[[{"header":{"parameterUnit":"m.s-1","parameterCategory":1,"la1":31.0,"la2":29.5877,"lo1":-88.7671,"lo2":-86.6584,"dx":0.0162,"dy":0.0185,"nx":115,"ny":88,"refTime":"2023-02-02T18:00:00:Z","depth":0,"parameterNumber":2,"parameterNumberName":"U-component_of_WINDS"},"data":[0.0,0.0,0.0,0.0,0.0,0.0,0.0,0.0,0.0,0.0,0.0,0.0,0.0,0.0,0.0,0.0,0.0,0.0,0.0,0.0,0.0,0.0,0.0,0.0,0.0,0.0,0.0,0.0,0.0,0.0,0.0,0.0,0.0,0.0,0.0,0.0,0.0,0.0,0.0,0.0,0.0,0.0,0.0,0.0,0.0,0.0,0.0,0.0,0.0,0.0,0.0,0.0,0.0,0.0,0.0,0.0,0.0,0.0,0.0,0.0,0.0,0.0,0.0,0.0,0.0,0.0,0.0,0.0,0.0,0.0,0.0,0.0,0.0,0.0,0.0,0.0,0.0,0.0,0.0,0.0,0.0,0.0,0.0,0.0,0.0,0.0,0.0,0.0,0.0,0.0,0.0,0.0,0.0,0.0,0.0,0.0,0.0,0.0,0.0,0.0,0.0,0.0,0.0,0.0,0.0,0.0,0.0,0.0,0.0,0.0,0.0,0.0,0.0,0.0,0.0,0.0,0.0,0.0,0.0,0.0,0.0,0.0,0.0,0.0,0.0,0.0,0.0,0.0,0.0,0.0,0.0,0.0,0.0,0.0,0.0,0.0,0.0,0.0,0.0,0.0,0.0,0.0,0.0,0.0,0.0,0.0,0.0,0.0,0.0,0.0,0.0,0.0,0.0,0.0,0.0,0.0,0.0,0.0,0.0,0.0,0.0,0.0,0.0,0.0,0.0,0.0,0.0,0.0,0.0,0.0,0.0,0.0,0.0,0.0,0.0,0.0,0.0,0.0,0.0,0.0,0.0,0.0,0.0,0.0,0.0,0.0,0.0,0.0,0.0,0.0,0.0,0.0,0.0,0.0,0.0,0.0,0.0,0.0,0.0,0.0,0.0,0.0,0.0,0.0,0.0,0.0,0.0,0.0,0.0,0.0,0.0,0.0,0.0,0.0,0.0,0.0,0.0,0.0,0.0,0.0,0.0,0.0,0.0,0.0,0.0,0.0,0.0,0.0,0.0,0.0,0.0,0.0,0.0,0.0,0.0,0.0,0.0,0.0,0.0,0.0,0.0,0.0,0.0,0.0,0.0,0.0,0.0,0.0,0.0,0.0,0.0,0.0,0.0,0.0,0.0,0.0,0.0,0.0,0.0,0.0,0.0,0.0,0.0,0.0,0.0,0.0,0.0,0.0,0.0,0.0,0.0,0.0,0.0,0.0,0.0,0.0,0.0,0.0,0.0,0.0,0.0,0.0,0.0,0.0,0.0,0.0,0.0,0.0,0.0,0.0,0.0,0.0,0.0,0.0,0.0,0.0,0.0,0.0,0.0,0.0,0.0,0.0,0.0,0.0,0.0,0.0,0.0,0.0,0.0,0.0,0.0,0.0,0.0,0.0,0.0,0.0,0.0,0.0,0.0,0.0,0.0,0.0,0.0,0.0,0.0,0.0,0.0,0.0,0.0,0.0,0.0,0.0,0.0,0.0,0.0,0.0,0.0,0.0,0.0,0.0,0.0,0.0,0.0,0.0,0.0,0.0,0.0,0.0,0.0,0.0,0.0,0.0,0.0,0.0,0.0,0.0,0.0,0.0,0.0,0.0,0.0,0.0,0.0,0.0,0.0,0.0,0.0,0.0,0.0,0.0,0.0,0.0,0.0,0.0,0.0,0.0,0.0,0.0,0.0,0.0,0.0,0.0,0.0,0.0,0.0,0.0,0.0,0.0,0.0,0.0,0.0,0.0,0.0,0.0,0.0,0.0,0.0,0.0,0.0,0.0,0.0,0.0,0.0,0.0,0.0,0.0,0.0,0.0,0.0,0.0,0.0,0.0,0.0,0.0,0.0,0.0,0.0,0.0,0.0,0.0,0.0,0.0,0.0,0.0,0.0,0.0,0.0,0.0,0.0,0.0,0.0,0.0,0.0,0.0,0.0,0.0,0.0,0.0,0.0,0.0,0.0,0.0,0.0,0.0,0.0,0.0,0.0,0.0,0.0,0.0,0.0,0.0,0.0,0.0,0.0,0.0,0.0,0.0,0.0,0.0,0.0,0.0,0.0,0.0,0.0,0.0,0.0,0.0,0.0,0.0,0.0,0.0,0.0,0.0,0.0,0.0,0.0,0.0,0.0,0.0,0.0,0.0,0.0,0.0,0.0,0.0,0.0,0.0,0.0,0.0,0.0,0.0,0.0,0.0,0.0,0.0,0.0,0.0,0.0,0.0,0.0,0.0,0.0,0.0,0.0,0.0,0.0,0.0,0.0,0.0,0.0,0.0,0.0,0.0,0.0,0.0,0.0,0.0,0.0,0.0,0.0,0.0,0.0,0.0,0.0,0.0,0.0,0.0,0.0,0.0,0.0,0.0,0.0,0.0,0.0,0.0,0.0,0.0,0.0,0.0,0.0,0.0,0.0,0.0,0.0,0.0,0.0,0.0,0.0,0.0,0.0,0.0,0.0,0.0,0.0,0.0,0.0,0.0,0.0,0.0,0.0,0.0,0.0,0.0,0.0,0.0,0.0,0.0,0.0,0.0,0.0,0.0,0.0,0.0,0.0,0.0,0.0,0.0,0.0,0.0,0.0,0.0,0.0,0.0,0.0,0.0,0.0,0.0,0.0,0.0,0.0,0.0,0.0,0.0,0.0,0.0,0.0,0.0,0.0,0.0,0.0,0.0,0.0,0.0,0.0,0.0,0.0,0.0,0.0,0.0,0.0,0.0,0.0,0.0,0.0,0.0,0.0,0.0,0.0,0.0,0.0,0.0,0.0,0.0,0.0,0.0,0.0,0.0,0.0,0.0,0.0,0.0,0.0,0.0,0.0,0.0,0.0,0.0,0.0,0.0,0.0,0.0,0.0,0.0,0.0,0.0,0.0,0.0,0.0,0.0,0.0,0.0,0.0,0.0,0.0,0.0,0.0,0.0,0.0,0.0,0.0,0.0,0.0,0.0,0.0,0.0,0.0,0.0,0.0,0.0,0.0,0.0,0.0,0.0,0.0,0.0,0.0,0.0,0.0,0.0,0.0,0.0,0.0,0.0,0.0,0.0,0.0,0.0,0.0,0.0,0.0,0.0,0.0,0.0,0.0,0.0,0.0,0.0,0.0,0.0,0.0,0.0,0.0,0.0,0.0,0.0,0.0,0.0,0.0,0.0,0.0,0.0,0.0,0.0,0.0,0.0,0.0,0.0,0.0,0.0,0.0,0.0,0.0,0.0,0.0,0.0,0.0,0.0,0.0,0.0,0.0,0.0,0.0,0.0,0.0,0.0,0.0,0.0,0.0,0.0,0.0,0.0,0.0,0.0,0.0,0.0,0.0,0.0,0.0,0.0,0.0,0.0,0.0,0.0,0.0,0.0,0.0,0.0,0.0,0.0,0.0,0.0,0.0,0.0,0.0,0.0,0.0,0.0,0.0,0.0,0.0,0.0,0.0,0.0,0.0,0.0,0.0,0.0,0.0,0.0,0.0,0.0,0.0,0.0,0.0,0.0,0.0,0.0,0.0,0.0,0.0,0.0,0.0,0.0,0.0,0.0,0.0,0.0,0.0,0.0,0.0,0.0,0.0,0.0,0.0,0.0,0.0,0.0,0.0,0.0,0.0,0.0,0.0,0.0,0.0,0.0,0.0,0.0,0.0,0.0,0.0,0.0,0.0,0.0,0.0,0.0,0.0,0.0,0.0,0.0,0.0,0.0,0.0,0.0,0.0,0.0,0.0,0.0,0.0,0.0,0.0,0.0,0.0,0.0,0.0,0.0,0.0,0.0,0.0,0.0,0.0,0.0,0.0,0.0,0.0,0.0,0.0,0.0,0.0,0.0,0.0,0.0,0.0,0.0,0.0,0.0,0.0,0.0,0.0,0.0,0.0,0.0,0.0,0.0,0.0,0.0,0.0,0.0,0.0,0.0,0.0,0.0,0.0,0.0,0.0,0.0,0.0,0.0,0.0,0.0,0.0,0.0,0.0,0.0,0.0,0.0,0.0,0.0,0.0,0.0,0.0,0.0,0.0,0.0,0.0,0.0,0.0,0.0,0.0,0.0,0.0,0.0,0.0,0.0,0.0,0.0,0.0,0.0,0.0,0.0,0.0,0.0,0.0,0.0,0.0,0.0,0.0,0.0,0.0,0.0,0.0,0.0,0.0,0.0,0.0,0.0,0.0,0.0,0.0,0.0,0.0,0.0,0.0,0.0,0.0,0.0,0.0,0.0,0.0,0.0,0.0,0.0,0.0,0.0,0.0,0.0,0.0,0.0,0.0,0.0,0.0,0.0,0.0,0.0,0.0,0.0,6.5625,0.0,0.0,0.0,0.0,0.0,0.0,0.0,0.0,0.0,0.0,0.0,0.0,0.0,0.0,0.0,0.0,0.0,0.0,0.0,0.0,0.0,0.0,0.0,0.0,0.0,0.0,0.0,0.0,0.0,0.0,0.0,0.0,0.0,0.0,0.0,0.0,0.0,0.0,0.0,0.0,0.0,0.0,0.0,0.0,0.0,0.0,0.0,0.0,0.0,0.0,0.0,0.0,0.0,0.0,0.0,0.0,0.0,0.0,0.0,0.0,0.0,0.0,0.0,0.0,0.0,0.0,0.0,0.0,0.0,0.0,0.0,0.0,0.0,0.0,0.0,0.0,0.0,0.0,0.0,0.0,0.0,0.0,0.0,0.0,0.0,0.0,0.0,0.0,0.0,0.0,0.0,0.0,0.0,0.0,0.0,0.0,0.0,0.0,0.0,0.0,0.0,0.0,0.0,0.0,0.0,0.0,0.0,0.0,0.0,0.0,6.6797,6.6797,6.6797,6.664,6.6328,0.0,0.0,0.0,0.0,0.0,0.0,0.0,0.0,0.0,0.0,0.0,0.0,0.0,0.0,0.0,0.0,0.0,0.0,0.0,0.0,0.0,0.0,0.0,0.0,0.0,0.0,0.0,0.0,0.0,0.0,0.0,0.0,0.0,0.0,0.0,0.0,0.0,0.0,0.0,0.0,0.0,0.0,0.0,0.0,0.0,0.0,0.0,0.0,0.0,0.0,0.0,0.0,0.0,0.0,0.0,0.0,0.0,0.0,0.0,0.0,0.0,0.0,0.0,0.0,0.0,0.0,0.0,0.0,0.0,0.0,0.0,0.0,0.0,0.0,0.0,0.0,0.0,0.0,0.0,0.0,0.0,0.0,0.0,0.0,0.0,0.0,0.0,0.0,0.0,0.0,0.0,0.0,0.0,0.0,0.0,0.0,0.0,0.0,0.0,0.0,0.0,0.0,0.0,0.0,0.0,0.0,0.0,0.0,0.0,0.0,0.0,0.0,6.6523,6.6564,6.661,0.0,0.0,0.0,0.0,0.0,0.0,0.0,0.0,0.0,0.0,0.0,0.0,0.0,0.0,0.0,0.0,0.0,0.0,0.0,0.0,0.0,0.0,0.0,0.0,0.0,0.0,0.0,0.0,0.0,0.0,0.0,0.0,0.0,0.0,0.0,0.0,0.0,0.0,0.0,0.0,0.0,0.0,0.0,0.0,0.0,0.0,0.0,0.0,0.0,0.0,0.0,0.0,0.0,0.0,0.0,0.0,0.0,0.0,0.0,0.0,0.0,0.0,0.0,0.0,0.0,0.0,0.0,0.0,0.0,0.0,0.0,0.0,0.0,0.0,0.0,0.0,0.0,0.0,0.0,0.0,0.0,0.0,0.0,0.0,0.0,0.0,0.0,0.0,0.0,0.0,0.0,0.0,0.0,0.0,0.0,0.0,0.0,0.0,0.0,0.0,0.0,0.0,0.0,0.0,0.0,0.0,0.0,0.0,0.0,0.0,6.6445,6.5741,6.5741,0.0,6.5728,0.0,0.0,0.0,0.0,0.0,0.0,0.0,0.0,0.0,0.0,0.0,0.0,0.0,0.0,0.0,0.0,0.0,0.0,0.0,0.0,0.0,0.0,0.0,0.0,0.0,0.0,0.0,0.0,0.0,0.0,0.0,0.0,0.0,0.0,0.0,0.0,0.0,0.0,0.0,0.0,0.0,0.0,0.0,0.0,0.0,0.0,0.0,0.0,0.0,0.0,0.0,0.0,0.0,0.0,0.0,0.0,0.0,0.0,0.0,0.0,0.0,0.0,0.0,0.0,0.0,0.0,0.0,0.0,0.0,0.0,0.0,0.0,0.0,0.0,0.0,0.0,0.0,0.0,0.0,0.0,0.0,0.0,0.0,0.0,0.0,0.0,0.0,0.0,0.0,0.0,0.0,0.0,0.0,0.0,0.0,0.0,0.0,0.0,0.0,0.0,0.0,0.0,0.0,0.0,0.0,0.0,0.0,0.0,0.0,0.0,6.664,6.6328,6.6328,6.6379,0.0,0.0,0.0,0.0,0.0,0.0,0.0,0.0,0.0,0.0,0.0,0.0,0.0,0.0,0.0,0.0,0.0,0.0,0.0,0.0,0.0,0.0,0.0,0.0,0.0,0.0,0.0,0.0,0.0,0.0,0.0,0.0,0.0,0.0,0.0,0.0,0.0,0.0,0.0,0.0,0.0,0.0,0.0,0.0,0.0,0.0,0.0,0.0,0.0,0.0,0.0,0.0,0.0,0.0,0.0,0.0,0.0,0.0,0.0,0.0,0.0,0.0,0.0,0.0,0.0,0.0,0.0,0.0,0.0,0.0,0.0,0.0,0.0,0.0,0.0,0.0,0.0,0.0,0.0,0.0,0.0,0.0,0.0,0.0,0.0,0.0,0.0,0.0,0.0,0.0,0.0,0.0,0.0,0.0,0.0,0.0,0.0,0.0,0.0,0.0,0.0,0.0,0.0,0.0,0.0,0.0,0.0,0.0,0.0,0.0,6.5938,6.6679,6.6484,6.672,6.6769,6.655,0.0,0.0,0.0,0.0,0.0,0.0,0.0,0.0,0.0,0.0,0.0,0.0,0.0,0.0,0.0,0.0,0.0,0.0,0.0,0.0,0.0,0.0,0.0,0.0,0.0,0.0,0.0,0.0,0.0,0.0,0.0,0.0,0.0,0.0,0.0,0.0,0.0,0.0,0.0,0.0,0.0,0.0,0.0,0.0,0.0,0.0,0.0,0.0,0.0,0.0,0.0,0.0,0.0,0.0,0.0,0.0,0.0,0.0,0.0,0.0,0.0,0.0,0.0,0.0,0.0,0.0,0.0,0.0,0.0,0.0,0.0,0.0,0.0,0.0,0.0,0.0,0.0,0.0,0.0,0.0,0.0,0.0,0.0,0.0,0.0,0.0,0.0,0.0,0.0,0.0,0.0,0.0,0.0,0.0,0.0,0.0,0.0,0.0,0.0,0.0,0.0,0.0,0.0,0.0,0.0,0.0,0.0,0.0,0.0,6.5938,6.6445,6.5741,6.6406,6.6453,0.0,0.0,0.0,0.0,0.0,0.0,0.0,0.0,0.0,0.0,0.0,0.0,0.0,0.0,0.0,0.0,0.0,0.0,0.0,0.0,0.0,0.0,0.0,0.0,0.0,0.0,0.0,0.0,0.0,0.0,0.0,0.0,0.0,0.0,0.0,0.0,0.0,0.0,0.0,0.0,0.0,0.0,0.0,0.0,0.0,0.0,0.0,0.0,0.0,0.0,0.0,0.0,0.0,0.0,0.0,0.0,0.0,0.0,0.0,0.0,0.0,0.0,0.0,0.0,0.0,0.0,0.0,0.0,0.0,0.0,0.0,0.0,0.0,0.0,0.0,0.0,0.0,0.0,0.0,0.0,0.0,0.0,0.0,0.0,0.0,0.0,0.0,0.0,0.0,0.0,0.0,0.0,0.0,0.0,0.0,0.0,0.0,0.0,0.0,0.0,0.0,0.0,0.0,0.0,0.0,0.0,0.0,0.0,0.0,6.5234,6.6249,6.6679,6.6406,6.6679,6.6643,0.0,0.0,0.0,0.0,0.0,0.0,0.0,0.0,0.0,0.0,0.0,0.0,0.0,0.0,0.0,0.0,0.0,0.0,0.0,0.0,0.0,0.0,0.0,0.0,0.0,0.0,0.0,0.0,0.0,0.0,0.0,0.0,0.0,0.0,0.0,0.0,0.0,0.0,0.0,0.0,0.0,0.0,0.0,0.0,0.0,0.0,0.0,0.0,0.0,0.0,0.0,0.0,0.0,0.0,0.0,0.0,0.0,0.0,0.0,0.0,0.0,0.0,0.0,0.0,0.0,0.0,0.0,0.0,0.0,0.0,0.0,0.0,0.0,0.0,0.0,0.0,0.0,0.0,0.0,0.0,0.0,0.0,0.0,0.0,0.0,0.0,0.0,0.0,0.0,0.0,0.0,0.0,0.0,0.0,0.0,0.0,0.0,0.0,0.0,0.0,0.0,0.0,0.0,0.0,0.0,0.0,0.0,0.0,0.0,6.6443,0.0,6.7225,6.7225,6.7225,6.7108,0.0,0.0,0.0,0.0,0.0,0.0,0.0,0.0,0.0,0.0,0.0,0.0,0.0,0.0,0.0,0.0,0.0,0.0,0.0,0.0,0.0,0.0,0.0,0.0,0.0,0.0,0.0,0.0,0.0,0.0,0.0,0.0,0.0,0.0,0.0,0.0,0.0,0.0,0.0,0.0,0.0,0.0,0.0,0.0,0.0,0.0,0.0,0.0,0.0,0.0,0.0,0.0,0.0,0.0,0.0,0.0,0.0,0.0,0.0,0.0,0.0,0.0,0.0,0.0,0.0,0.0,0.0,0.0,0.0,0.0,0.0,0.0,0.0,0.0,0.0,0.0,0.0,0.0,0.0,0.0,0.0,0.0,0.0,0.0,0.0,0.0,0.0,0.0,0.0,0.0,0.0,0.0,0.0,0.0,0.0,0.0,0.0,0.0,0.0,0.0,0.0,0.0,0.0,0.0,0.0,0.0,0.0,0.0,6.7304,6.8083,6.8121,6.8161,6.8121,6.8122,6.7693,0.0,0.0,0.0,0.0,0.0,0.0,0.0,0.0,0.0,0.0,0.0,0.0,0.0,0.0,0.0,0.0,0.0,0.0,0.0,0.0,0.0,0.0,0.0,0.0,0.0,0.0,0.0,0.0,0.0,0.0,0.0,0.0,0.0,0.0,0.0,0.0,0.0,0.0,0.0,0.0,0.0,0.0,0.0,0.0,0.0,0.0,0.0,0.0,0.0,0.0,0.0,0.0,0.0,0.0,0.0,0.0,0.0,0.0,0.0,0.0,0.0,0.0,0.0,0.0,0.0,0.0,0.0,0.0,0.0,0.0,0.0,0.0,0.0,0.0,0.0,0.0,0.0,0.0,0.0,0.0,0.0,0.0,0.0,0.0,0.0,0.0,0.0,0.0,0.0,0.0,0.0,0.0,0.0,0.0,0.0,0.0,0.0,0.0,0.0,0.0,0.0,0.0,0.0,0.0,0.0,0.0,0.0,0.0,0.0,6.9917,6.9878,6.9917,6.9878,6.9294,6.8591,0.0,0.0,0.0,0.0,0.0,0.0,0.0,0.0,0.0,0.0,0.0,0.0,0.0,0.0,0.0,0.0,0.0,0.0,0.0,0.0,0.0,0.0,0.0,0.0,0.0,0.0,0.0,0.0,0.0,0.0,0.0,0.0,0.0,0.0,0.0,0.0,0.0,0.0,0.0,0.0,0.0,0.0,0.0,0.0,0.0,0.0,0.0,0.0,0.0,0.0,0.0,0.0,0.0,0.0,0.0,0.0,0.0,0.0,0.0,0.0,0.0,0.0,0.0,0.0,0.0,0.0,0.0,0.0,0.0,0.0,0.0,0.0,0.0,0.0,0.0,0.0,0.0,0.0,0.0,0.0,0.0,0.0,0.0,0.0,0.0,0.0,0.0,0.0,0.0,0.0,0.0,0.0,0.0,0.0,0.0,0.0,0.0,0.0,0.0,0.0,0.0,0.0,0.0,0.0,0.0,0.0,0.0,0.0,0.0,7.3956,7.3385,7.2923,7.2612,7.1753,7.0426,6.8669,0.0,0.0,0.0,0.0,0.0,0.0,0.0,0.0,0.0,0.0,0.0,0.0,0.0,0.0,0.0,0.0,0.0,0.0,0.0,0.0,0.0,0.0,0.0,0.0,0.0,0.0,0.0,0.0,0.0,0.0,0.0,0.0,0.0,0.0,0.0,0.0,0.0,0.0,0.0,0.0,0.0,0.0,0.0,0.0,0.0,0.0,0.0,0.0,0.0,0.0,0.0,0.0,0.0,0.0,0.0,0.0,0.0,0.0,0.0,0.0,0.0,0.0,0.0,0.0,0.0,0.0,0.0,0.0,0.0,0.0,0.0,0.0,0.0,0.0,0.0,0.0,0.0,0.0,0.0,0.0,0.0,0.0,0.0,0.0,0.0,0.0,0.0,0.0,0.0,0.0,0.0,0.0,0.0,0.0,0.0,0.0,0.0,0.0,0.0,0.0,0.0,0.0,0.0,0.0,0.0,0.0,0.0,0.0,7.9803,7.8522,7.7333,7.6164,7.5227,7.3159,0.0,0.0,0.0,0.0,0.0,0.0,0.0,0.0,0.0,0.0,0.0,0.0,0.0,0.0,0.0,0.0,0.0,0.0,0.0,0.0,0.0,0.0,0.0,0.0,0.0,0.0,0.0,0.0,0.0,0.0,0.0,0.0,0.0,0.0,0.0,0.0,0.0,0.0,0.0,0.0,0.0,0.0,0.0,0.0,0.0,0.0,0.0,0.0,0.0,0.0,0.0,0.0,0.0,0.0,0.0,0.0,0.0,0.0,0.0,0.0,0.0,0.0,0.0,0.0,0.0,0.0,0.0,0.0,0.0,0.0,0.0,0.0,0.0,0.0,0.0,0.0,0.0,0.0,0.0,0.0,0.0,0.0,0.0,0.0,0.0,0.0,0.0,0.0,0.0,0.0,0.0,0.0,0.0,0.0,0.0,0.0,0.0,0.0,0.0,0.0,0.0,0.0,0.0,0.0,0.0,0.0,0.0,0.0,0.0,8.3252,8.5428,8.4633,8.0669,7.8499,7.6048,0.0,0.0,0.0,0.0,0.0,0.0,0.0,0.0,0.0,0.0,0.0,0.0,0.0,0.0,0.0,0.0,0.0,0.0,0.0,0.0,0.0,0.0,0.0,0.0,0.0,0.0,0.0,0.0,0.0,0.0,0.0,0.0,0.0,0.0,0.0,0.0,0.0,0.0,0.0,0.0,0.0,0.0,0.0,0.0,0.0,0.0,0.0,0.0,0.0,0.0,0.0,0.0,0.0,0.0,0.0,0.0,0.0,0.0,0.0,0.0,0.0,0.0,0.0,0.0,0.0,0.0,0.0,0.0,0.0,0.0,0.0,0.0,0.0,0.0,0.0,0.0,0.0,0.0,0.0,0.0,0.0,0.0,0.0,0.0,0.0,0.0,0.0,0.0,0.0,0.0,0.0,0.0,0.0,0.0,0.0,0.0,0.0,0.0,0.0,0.0,0.0,0.0,0.0,0.0,0.0,0.0,0.0,0.0,8.2187,8.6659,8.9439,8.9638,8.7103,8.2819,7.882,0.0,0.0,0.0,0.0,0.0,0.0,0.0,0.0,0.0,0.0,0.0,0.0,0.0,0.0,0.0,0.0,0.0,0.0,0.0,0.0,0.0,0.0,0.0,0.0,0.0,0.0,0.0,0.0,0.0,0.0,0.0,0.0,0.0,0.0,0.0,0.0,0.0,0.0,0.0,0.0,0.0,0.0,0.0,0.0,0.0,0.0,0.0,0.0,0.0,0.0,0.0,0.0,0.0,0.0,0.0,0.0,0.0,0.0,0.0,0.0,0.0,0.0,0.0,0.0,0.0,0.0,0.0,0.0,0.0,0.0,0.0,0.0,0.0,0.0,0.0,0.0,0.0,0.0,0.0,0.0,0.0,0.0,0.0,0.0,0.0,0.0,0.0,0.0,0.0,0.0,0.0,0.0,0.0,0.0,0.0,0.0,0.0,0.0,0.0,0.0,0.0,0.0,0.0,0.0,0.0,0.0,0.0,0.0,8.3918,8.9605,9.1611,9.2944,9.348,8.7328,8.159,0.0,0.0,0.0,0.0,0.0,0.0,0.0,0.0,0.0,0.0,0.0,0.0,0.0,0.0,0.0,0.0,0.0,0.0,0.0,0.0,0.0,0.0,0.0,0.0,0.0,0.0,0.0,0.0,0.0,0.0,0.0,0.0,0.0,0.0,0.0,0.0,0.0,0.0,0.0,0.0,0.0,0.0,0.0,0.0,0.0,0.0,0.0,0.0,0.0,0.0,0.0,0.0,0.0,0.0,0.0,0.0,0.0,0.0,0.0,0.0,0.0,0.0,0.0,0.0,0.0,0.0,0.0,0.0,0.0,0.0,0.0,0.0,0.0,0.0,0.0,0.0,0.0,0.0,0.0,0.0,0.0,0.0,0.0,0.0,0.0,0.0,0.0,0.0,0.0,0.0,0.0,0.0,0.0,0.0,0.0,0.0,0.0,0.0,0.0,0.0,0.0,0.0,0.0,0.0,0.0,0.0,0.0,0.0,8.6466,9.0394,9.3572,9.4693,9.3639,8.9057,8.4774,0.0,0.0,0.0,0.0,0.0,0.0,0.0,0.0,0.0,0.0,0.0,0.0,0.0,0.0,0.0,0.0,0.0,0.0,0.0,0.0,0.0,0.0,0.0,0.0,0.0,0.0,0.0,0.0,0.0,0.0,0.0,0.0,0.0,0.0,0.0,0.0,0.0,0.0,0.0,0.0,0.0,0.0,0.0,0.0,0.0,0.0,0.0,0.0,7.3092,0.0,0.0,0.0,0.0,0.0,0.0,0.0,0.0,0.0,0.0,0.0,0.0,0.0,0.0,0.0,0.0,0.0,0.0,0.0,0.0,0.0,0.0,0.0,0.0,0.0,0.0,0.0,0.0,0.0,0.0,0.0,0.0,0.0,0.0,0.0,0.0,0.0,0.0,0.0,0.0,0.0,0.0,0.0,0.0,0.0,0.0,0.0,0.0,0.0,0.0,0.0,0.0,0.0,0.0,0.0,0.0,0.0,0.0,0.0,8.8131,9.2324,9.4665,9.5507,9.4686,9.0726,8.658,0.0,0.0,0.0,0.0,0.0,0.0,0.0,0.0,0.0,0.0,0.0,0.0,0.0,0.0,0.0,0.0,0.0,0.0,0.0,0.0,0.0,0.0,0.0,0.0,0.0,0.0,0.0,0.0,0.0,0.0,0.0,0.0,0.0,0.0,0.0,0.0,0.0,0.0,0.0,0.0,0.0,0.0,0.0,0.0,0.0,0.0,0.0,0.0,0.0,0.0,0.0,0.0,0.0,0.0,0.0,0.0,0.0,0.0,0.0,0.0,0.0,0.0,0.0,0.0,0.0,0.0,0.0,0.0,0.0,0.0,0.0,0.0,0.0,0.0,0.0,0.0,0.0,0.0,0.0,0.0,0.0,0.0,0.0,0.0,0.0,0.0,0.0,0.0,0.0,0.0,0.0,0.0,0.0,0.0,0.0,0.0,0.0,0.0,0.0,0.0,0.0,0.0,0.0,0.0,0.0,0.0,0.0,8.4859,8.9439,9.3963,9.5258,9.5915,9.5848,9.1924,8.7562,8.2836,0.0,0.0,0.0,0.0,0.0,0.0,0.0,0.0,0.0,0.0,0.0,0.0,0.0,0.0,0.0,0.0,0.0,0.0,0.0,0.0,0.0,0.0,0.0,0.0,0.0,0.0,0.0,0.0,0.0,0.0,0.0,0.0,0.0,0.0,0.0,0.0,0.0,0.0,7.4683,7.6396,0.0,0.0,0.0,0.0,0.0,0.0,0.0,0.0,7.5399,0.0,0.0,0.0,0.0,0.0,0.0,0.0,0.0,0.0,0.0,0.0,0.0,0.0,0.0,0.0,0.0,0.0,0.0,0.0,0.0,0.0,0.0,0.0,0.0,0.0,0.0,0.0,0.0,0.0,0.0,0.0,0.0,0.0,0.0,0.0,0.0,0.0,0.0,0.0,0.0,0.0,0.0,0.0,0.0,0.0,0.0,0.0,0.0,0.0,0.0,0.0,0.0,0.0,0.0,0.0,0.0,8.0232,8.6461,9.0803,9.3032,9.5475,9.6122,9.4906,9.1598,8.8109,8.4435,0.0,0.0,0.0,0.0,0.0,0.0,0.0,0.0,0.0,0.0,0.0,0.0,0.0,0.0,0.0,0.0,0.0,0.0,0.0,0.0,0.0,0.0,0.0,0.0,0.0,0.0,0.0,0.0,0.0,0.0,0.0,0.0,0.0,0.0,0.0,0.0,0.0,0.0,0.0,7.7994,7.8657,0.0,0.0,0.0,0.0,0.0,0.0,0.0,0.0,7.5507,0.0,0.0,0.0,0.0,0.0,0.0,0.0,0.0,0.0,0.0,0.0,0.0,0.0,0.0,0.0,0.0,0.0,0.0,0.0,0.0,0.0,0.0,0.0,0.0,0.0,0.0,0.0,0.0,0.0,0.0,0.0,0.0,0.0,0.0,0.0,0.0,0.0,0.0,0.0,0.0,0.0,0.0,0.0,0.0,0.0,0.0,0.0,0.0,0.0,0.0,0.0,0.0,0.0,0.0,0.0,8.1488,8.7176,9.1238,9.3417,9.5659,9.6124,9.4698,9.1924,8.8638,0.0,0.0,0.0,0.0,0.0,0.0,0.0,0.0,0.0,0.0,0.0,0.0,0.0,0.0,0.0,0.0,0.0,0.0,0.0,0.0,0.0,0.0,0.0,0.0,0.0,0.0,0.0,0.0,0.0,0.0,0.0,0.0,0.0,0.0,0.0,0.0,0.0,0.0,0.0,0.0,8.0299,8.1859,8.225,0.0,0.0,0.0,0.0,0.0,0.0,7.8405,7.7671,0.0,0.0,0.0,0.0,0.0,0.0,0.0,0.0,0.0,0.0,0.0,0.0,0.0,0.0,0.0,0.0,0.0,0.0,0.0,0.0,0.0,0.0,0.0,0.0,0.0,0.0,0.0,0.0,0.0,0.0,0.0,0.0,0.0,0.0,0.0,0.0,0.0,0.0,0.0,0.0,0.0,0.0,0.0,0.0,0.0,0.0,0.0,0.0,0.0,0.0,0.0,0.0,0.0,0.0,0.0,8.3228,8.7867,9.1581,9.4244,9.5884,9.6057,9.4694,9.2101,8.8856,0.0,0.0,0.0,0.0,0.0,0.0,0.0,0.0,0.0,0.0,0.0,0.0,0.0,0.0,0.0,0.0,0.0,0.0,0.0,0.0,0.0,0.0,0.0,0.0,0.0,0.0,0.0,0.0,0.0,0.0,0.0,0.0,0.0,0.0,0.0,0.0,0.0,0.0,0.0,0.0,0.0,8.4474,8.4317,8.3696,0.0,0.0,0.0,0.0,8.0295,8.0542,0.0,0.0,0.0,0.0,0.0,0.0,0.0,0.0,0.0,0.0,0.0,0.0,0.0,0.0,0.0,0.0,0.0,0.0,0.0,0.0,0.0,0.0,0.0,0.0,0.0,0.0,0.0,0.0,0.0,0.0,0.0,0.0,0.0,0.0,0.0,0.0,0.0,0.0,0.0,0.0,0.0,0.0,0.0,0.0,0.0,0.0,0.0,0.0,0.0,0.0,0.0,0.0,0.0,0.0,0.0,0.0,8.5689,8.9305,9.2435,9.5043,9.6162,9.6057,9.4697,9.1556,8.8272,0.0,0.0,0.0,0.0,0.0,0.0,0.0,0.0,0.0,0.0,0.0,0.0,0.0,0.0,0.0,0.0,0.0,0.0,0.0,0.0,0.0,0.0,0.0,0.0,0.0,0.0,0.0,0.0,0.0,0.0,0.0,0.0,0.0,0.0,0.0,0.0,0.0,0.0,0.0,0.0,0.0,8.4474,8.666,8.6819,8.6366,0.0,0.0,8.3833,8.3654,8.2472,0.0,0.0,0.0,0.0,0.0,0.0,0.0,0.0,0.0,0.0,0.0,0.0,0.0,0.0,0.0,0.0,0.0,0.0,0.0,0.0,0.0,0.0,0.0,0.0,0.0,0.0,0.0,0.0,0.0,0.0,0.0,0.0,0.0,0.0,0.0,0.0,0.0,0.0,0.0,0.0,0.0,0.0,0.0,0.0,0.0,0.0,0.0,0.0,0.0,0.0,0.0,0.0,0.0,0.0,0.0,8.1063,8.6068,8.9532,9.2573,9.5217,9.6236,9.6059,9.4737,9.2415,8.917,0.0,0.0,0.0,0.0,0.0,0.0,0.0,0.0,0.0,0.0,0.0,0.0,0.0,0.0,0.0,0.0,0.0,0.0,0.0,0.0,0.0,0.0,0.0,0.0,0.0,0.0,0.0,0.0,0.0,0.0,0.0,0.0,0.0,0.0,0.0,0.0,0.0,0.0,0.0,0.0,0.0,0.0,8.7911,8.8459,0.0,0.0,0.0,8.5385,8.6145,0.0,0.0,0.0,0.0,0.0,0.0,0.0,0.0,0.0,0.0,0.0,0.0,0.0,0.0,0.0,0.0,0.0,0.0,0.0,0.0,0.0,0.0,0.0,0.0,0.0,0.0,0.0,0.0,0.0,0.0,0.0,0.0,0.0,0.0,0.0,0.0,0.0,0.0,0.0,0.0,0.0,0.0,0.0,0.0,0.0,0.0,0.0,0.0,0.0,0.0,0.0,0.0,0.0,0.0,0.0,0.0,0.0,8.6668,8.9705,9.2608,9.5485,9.6311,9.6057,9.4734,9.2728,0.0,0.0,0.0,0.0,0.0,0.0,0.0,0.0,0.0,0.0,0.0,0.0,0.0,0.0,0.0,0.0,0.0,0.0,0.0,0.0,0.0,0.0,0.0,0.0,0.0,0.0,0.0,0.0,0.0,0.0,0.0,0.0,0.0,0.0,0.0,0.0,0.0,0.0,0.0,0.0,0.0,0.0,8.7291,8.8811,8.9669,8.9867,0.0,0.0,8.6729,8.738,8.5181,8.2908,0.0,0.0,0.0,0.0,0.0,0.0,0.0,0.0,0.0,0.0,0.0,0.0,0.0,0.0,0.0,0.0,0.0,0.0,0.0,0.0,0.0,0.0,0.0,0.0,0.0,0.0,0.0,0.0,0.0,0.0,0.0,0.0,0.0,0.0,0.0,0.0,0.0,0.0,0.0,0.0,0.0,0.0,0.0,0.0,0.0,0.0,0.0,0.0,0.0,0.0,0.0,0.0,0.0,0.0,0.0,8.8331,9.0287,9.2916,9.6257,9.662,9.6059,9.4695,9.1595,8.83,0.0,0.0,0.0,0.0,0.0,0.0,0.0,0.0,0.0,0.0,0.0,0.0,0.0,0.0,0.0,0.0,0.0,0.0,0.0,0.0,0.0,0.0,0.0,0.0,0.0,0.0,0.0,0.0,0.0,0.0,0.0,0.0,0.0,0.0,0.0,0.0,0.0,0.0,0.0,0.0,0.0,8.6159,8.9358,9.049,9.0934,0.0,0.0,8.8504,8.6868,8.5705,8.3949,8.0734,0.0,0.0,0.0,0.0,0.0,0.0,0.0,0.0,0.0,0.0,0.0,0.0,0.0,0.0,0.0,0.0,0.0,0.0,0.0,0.0,0.0,0.0,0.0,0.0,0.0,0.0,0.0,0.0,0.0,0.0,0.0,0.0,0.0,0.0,0.0,0.0,0.0,0.0,0.0,0.0,0.0,0.0,0.0,0.0,0.0,0.0,0.0,0.0,0.0,0.0,0.0,0.0,0.0,8.2401,8.8598,9.1366,9.4229,9.7146,9.7432,9.6831,9.5471,9.2231,8.8699,0.0,0.0,0.0,0.0,0.0,0.0,0.0,0.0,0.0,0.0,0.0,0.0,0.0,0.0,0.0,0.0,0.0,0.0,0.0,0.0,0.0,0.0,0.0,0.0,0.0,0.0,0.0,0.0,6.1672,6.1866,6.3249,0.0,0.0,0.0,0.0,0.0,0.0,0.0,0.0,0.0,0.0,8.7082,8.9458,9.0865,0.0,0.0,8.9941,8.8998,8.816,8.561,8.3263,8.1899,7.8361,0.0,0.0,0.0,0.0,0.0,0.0,0.0,0.0,0.0,0.0,0.0,0.0,0.0,0.0,0.0,0.0,0.0,0.0,0.0,0.0,0.0,0.0,0.0,0.0,0.0,0.0,0.0,0.0,0.0,0.0,0.0,0.0,0.0,0.0,0.0,0.0,0.0,0.0,0.0,0.0,0.0,0.0,0.0,0.0,0.0,0.0,0.0,0.0,0.0,0.0,0.0,0.0,8.2747,8.8639,9.1984,9.5038,9.7763,9.7933,9.7333,9.5891,9.2721,8.902,0.0,0.0,0.0,0.0,0.0,0.0,0.0,0.0,0.0,0.0,0.0,0.0,0.0,0.0,0.0,0.0,0.0,0.0,0.0,0.0,0.0,0.0,0.0,0.0,0.0,0.0,0.0,0.0,6.2228,6.2565,6.4136,0.0,0.0,0.0,0.0,0.0,0.0,0.0,0.0,0.0,0.0,8.7266,8.8986,9.0631,9.1351,9.0426,8.9677,8.8949,8.8022,8.5214,8.2772,8.1751,0.0,0.0,0.0,0.0,0.0,0.0,0.0,0.0,0.0,0.0,0.0,0.0,0.0,0.0,0.0,0.0,0.0,0.0,0.0,0.0,0.0,0.0,0.0,0.0,0.0,0.0,0.0,0.0,0.0,0.0,6.6079,0.0,0.0,0.0,0.0,0.0,0.0,0.0,0.0,0.0,0.0,0.0,0.0,0.0,0.0,0.0,0.0,0.0,0.0,0.0,0.0,0.0,0.0,0.0,8.8641,9.2099,9.5076,9.7761,9.7933,9.7333,9.5931,9.2717,8.8956,8.4616,0.0,0.0,0.0,0.0,0.0,0.0,0.0,0.0,0.0,0.0,0.0,0.0,0.0,0.0,0.0,0.0,0.0,0.0,0.0,0.0,0.0,0.0,0.0,0.0,0.0,0.0,6.2572,6.3247,6.4086,0.0,0.0,0.0,0.0,0.0,0.0,0.0,0.0,0.0,0.0,8.2966,8.6267,8.8024,8.964,9.0389,8.945,8.9175,8.8232,8.5775,8.4507,8.2748,0.0,0.0,0.0,0.0,0.0,0.0,0.0,0.0,0.0,0.0,0.0,0.0,0.0,0.0,0.0,0.0,0.0,0.0,0.0,0.0,0.0,0.0,0.0,0.0,0.0,0.0,0.0,6.8125,6.8354,0.0,0.0,0.0,0.0,0.0,0.0,0.0,0.0,0.0,0.0,0.0,7.6821,7.5716,0.0,0.0,0.0,0.0,0.0,0.0,0.0,0.0,0.0,0.0,0.0,0.0,8.4978,9.025,9.4251,9.7269,9.9384,9.9051,9.8181,9.6783,9.2974,8.7823,8.122,0.0,0.0,0.0,0.0,0.0,0.0,0.0,0.0,0.0,0.0,0.0,0.0,0.0,0.0,0.0,0.0,0.0,0.0,0.0,0.0,0.0,0.0,0.0,0.0,0.0,6.3401,0.0,0.0,0.0,0.0,0.0,0.0,0.0,0.0,0.0,0.0,0.0,7.6112,7.9447,8.3069,8.6042,8.7767,8.9004,8.9447,0.0,0.0,0.0,0.0,0.0,0.0,0.0,0.0,0.0,0.0,0.0,0.0,0.0,0.0,7.8862,7.7128,7.6819,7.6746,7.6467,0.0,0.0,0.0,0.0,0.0,0.0,0.0,0.0,0.0,0.0,0.0,0.0,0.0,0.0,0.0,0.0,6.9661,0.0,0.0,0.0,0.0,0.0,0.0,0.0,0.0,7.6588,7.7552,7.9442,7.8594,7.7748,0.0,7.6626,7.5049,0.0,0.0,0.0,0.0,0.0,0.0,0.0,0.0,8.5788,9.1092,9.5093,9.8114,10.0153,9.9631,9.8762,9.76,9.266,8.6994,8.0675,7.7122,7.4168,0.0,0.0,0.0,0.0,0.0,0.0,0.0,0.0,0.0,0.0,0.0,0.0,0.0,0.0,0.0,0.0,0.0,0.0,0.0,0.0,0.0,0.0,0.0,6.3867,0.0,0.0,0.0,0.0,0.0,0.0,0.0,0.0,0.0,7.112,7.4252,7.7499,8.0259,8.355,8.6151,8.7257,0.0,0.0,0.0,0.0,0.0,0.0,0.0,8.3472,8.2866,8.1329,8.0519,8.1607,8.2644,8.3356,8.3366,0.0,0.0,8.0392,7.9831,7.9892,8.0206,8.0291,8.0387,8.0669,8.2095,8.3312,0.0,0.0,0.0,0.0,0.0,0.0,0.0,0.0,7.3624,7.4009,0.0,7.2128,0.0,0.0,0.0,0.0,0.0,7.3624,0.0,0.0,7.9513,8.1248,8.3484,8.2751,8.1939,8.1129,8.0281,7.8975,7.7134,7.3168,0.0,0.0,0.0,0.0,0.0,0.0,8.5363,9.1244,9.4668,9.7652,10.023,9.967,9.896,9.8145,9.1845,8.6677,8.3074,7.9588,7.6117,7.2721,7.1681,0.0,0.0,0.0,0.0,0.0,0.0,0.0,0.0,0.0,0.0,0.0,0.0,0.0,0.0,0.0,0.0,0.0,0.0,0.0,0.0,6.5005,0.0,0.0,0.0,0.0,0.0,0.0,0.0,0.0,0.0,0.0,7.2884,7.6363,7.9565,8.1288,0.0,0.0,0.0,0.0,8.7957,8.7901,8.7883,8.7598,8.6751,8.5865,8.4762,8.3142,0.0,0.0,8.4861,8.6365,8.7315,8.7433,8.7905,8.7336,8.3277,8.2605,8.2856,8.3583,8.3789,8.4085,8.4916,8.6284,8.7478,7.9742,0.0,0.0,0.0,0.0,7.5751,7.6289,7.7019,7.644,7.6324,7.644,7.4472,0.0,0.0,0.0,0.0,0.0,0.0,7.825,8.121,8.2097,8.3518,8.5363,8.5132,8.4247,8.2903,8.2637,8.1325,7.9092,7.7209,7.5826,7.4939,0.0,0.0,0.0,0.0,8.794,9.3638,9.6059,9.8463,10.1156,9.9979,9.7869,9.4945,9.1226,8.7764,8.4685,8.1851,7.8985,7.6084,7.4044,0.0,0.0,0.0,0.0,0.0,0.0,0.0,0.0,0.0,0.0,0.0,0.0,0.0,0.0,0.0,0.0,0.0,0.0,0.0,6.5662,6.6238,6.6626,0.0,0.0,0.0,0.0,0.0,0.0,0.0,0.0,0.0,7.6673,7.8459,8.0714,0.0,0.0,8.6869,8.8049,8.8569,8.8609,8.7985,0.0,0.0,0.0,8.6323,8.5957,8.5423,8.5753,8.6467,8.7459,8.8038,8.8316,8.8318,8.8038,8.7491,8.7113,8.6859,8.6917,8.7213,8.7673,8.8141,8.8493,8.9839,9.0817,8.4093,8.1098,7.8936,7.8517,7.9327,7.9675,8.0289,8.0979,8.0175,7.979,7.9635,7.7249,7.6207,7.617,7.5703,0.0,0.0,0.0,8.1095,8.336,8.4557,8.5828,8.7055,8.7134,8.6442,8.5136,8.5097,8.3982,8.182,8.1283,8.0364,7.9017,0.0,0.0,8.2789,8.4978,8.8863,9.4292,9.617,9.835,10.1006,9.9696,9.7359,9.4013,9.1754,8.9222,8.6372,8.4085,8.1484,7.8472,7.6274,7.403,0.0,0.0,0.0,0.0,0.0,0.0,0.0,0.0,0.0,0.0,0.0,6.6054,0.0,0.0,0.0,0.0,6.5992,6.615,6.6932,6.744,0.0,0.0,0.0,0.0,0.0,0.0,0.0,7.2608,7.5256,7.7782,7.9836,8.141,8.3125,8.5195,8.6558,8.7741,8.8757,0.0,8.9121,8.9255,8.9039,8.8614,8.8066,8.7965,8.7939,8.7827,8.8153,8.8729,8.9543,8.9696,8.9696,8.9578,8.8982,8.8674,8.9532,8.943,8.9201,8.921,8.9823,9.0479,9.0836,9.2028,9.29,8.7557,8.7173,8.3326,8.2095,8.2747,8.3561,8.4362,8.5128,8.4251,8.387,8.3522,8.0333,7.8829,7.8715,7.8713,0.0,7.9021,8.2255,8.4211,8.5241,8.6865,8.806,8.891,8.8908,8.8444,8.7596,8.7596,8.6786,8.5243,8.5089,8.4709,8.3832,8.0791,8.0793,8.383,8.5553,8.8825,9.3713,9.5516,9.7618,10.013,9.9009,9.7183,9.4754,9.2956,9.0698,8.801,8.6101,8.3507,8.0187,7.8253,7.5828,7.2596,0.0,0.0,0.0,0.0,0.0,0.0,0.0,0.0,0.0,0.0,0.0,0.0,0.0,0.0,0.0,6.6907,0.0,6.8523,6.8666,0.0,0.0,0.0,7.0529,7.1315,7.2993,7.4383,7.5113,0.0,0.0,8.239,0.0,8.6343,8.6473,8.7932,8.9035,8.9171,8.9381,8.9805,9.1088,9.0678,9.0103,8.9607,8.9623,8.9636,8.9713,8.9964,9.0129,9.0904,9.1124,9.1165,9.0945,9.0342,8.9993,9.0922,9.0257,8.9829,8.9966,9.0703,9.155,9.2224,9.3043,9.3776,8.894,8.8291,8.7331,8.6596,8.6213,8.6403,8.6983,8.7711,8.6867,8.6136,8.5361,8.3328,8.1675,8.0479,8.0479,8.1173,8.2483,8.3903,8.5747,8.7829,8.8861,8.9782,9.0594,9.0592,9.0171,8.9357,8.9318,8.8782,8.779,8.7132,8.6711,8.648,8.5674,8.5672,8.6519,8.8164,9.0862,9.4643,9.6367,9.7958,9.9369,9.8171,9.6576,9.4606,9.2311,9.0395,8.8915,8.6433,8.4071,8.1845,7.8897,7.6326,7.4205,7.2054,0.0,0.0,0.0,0.0,0.0,0.0,0.0,0.0,0.0,6.6273,6.6859,0.0,6.707,0.0,6.8118,6.8512,6.9348,6.9975,0.0,0.0,7.2697,7.3701,7.4007,7.6081,7.7574,7.7696,8.0688,8.3156,8.4202,8.6493,8.8303,8.8953,8.9974,9.0952,9.1601,9.2332,9.2398,9.1522,9.0727,8.9722,8.8516,8.8086,8.8544,8.9752,8.9906,9.0192,9.1047,9.1203,9.0994,9.0349,8.9554,8.9367,9.0109,8.957,8.9546,9.0615,9.1592,9.2242,9.2493,9.3127,9.3586,8.9628,8.9248,8.9248,8.8748,8.8019,8.8361,8.9017,8.975,8.8902,8.8246,8.7667,8.6019,8.4557,8.3362,8.3747,8.4405,8.5369,8.6551,8.7899,8.9248,9.009,9.0744,9.1165,9.1203,9.0938,9.0472,9.0475,9.0052,8.9248,8.8748,8.8323,8.8023,8.8709,8.9094,8.9133,9.0013,9.2167,9.5561,9.7686,9.8899,9.9127,9.7862,9.6282,9.447,9.2059,9.0268,8.9197,8.6955,8.4864,8.3041,8.0073,7.7684,7.5953,7.3455,7.1127,0.0,0.0,0.0,0.0,0.0,0.0,0.0,0.0,0.0,0.0,0.0,6.8354,0.0,6.9956,7.0477,7.1323,7.2115,7.2785,7.3322,7.4885,7.6063,7.6475,7.8463,7.989,8.0236,8.2911,8.5083,8.5942,8.7865,8.9522,9.0345,9.1266,9.1848,9.1975,9.2468,9.2514,9.1925,9.0842,8.9782,8.869,8.8241,8.8523,9.0064,9.047,9.053,9.0609,9.0609,9.0472,8.9971,8.9263,8.9086,9.0173,8.9795,8.97,9.0806,9.1554,9.2018,9.2439,9.2869,9.3057,9.0165,9.0086,9.0086,8.9669,8.9058,8.9667,9.0319,9.0975,9.0357,9.0011,8.978,8.8246,8.7132,8.6474,8.725,8.7634,8.7825,8.9244,8.9972,9.0124,9.0859,9.1203,9.1203,9.1203,9.1203,9.1203,9.1203,9.0823,9.0086,9.0047,8.9744,8.9254,9.0635,9.1515,9.1859,9.1939,9.3595,9.6749,9.9086,9.9988,9.9341,9.795,9.6359,9.456,9.203,9.0205,8.9116,8.7208,8.5468,8.385,8.1181,7.9018,7.7444,7.5019,7.2547,0.0,7.0012,0.0,0.0,0.0,0.0,0.0,0.0,0.0,0.0,6.9059,6.9793,7.1333,7.2129,7.286,7.374,7.456,7.5073,7.5239,7.6762,7.8123,7.8929,8.0536,8.1823,8.2554,8.4872,8.6752,8.7474,8.9015,9.0396,9.1056,9.173,9.1943,9.1412,9.153,9.1975,9.2418,9.1038,8.9814,8.9517,8.9056,8.9154,9.0614,9.0898,9.078,9.0057,8.9951,8.9842,8.9534,8.9032,8.9167,9.0637,9.0265,9.0213,9.1045,9.1244,9.1479,9.2074,9.2283,9.255,9.1592,9.0938,9.0934,9.0862,9.071,9.0126,9.0009,9.0201,9.0705,9.0549,8.9857,8.8902,8.8372,8.8216,8.8367,8.8786,8.9432,8.9742,9.0278,9.0977,9.1131,9.1203,9.1203,9.1203,9.1203,9.1203,9.1203,9.1131,9.0975,9.0975,9.1246,9.1789,9.2097,9.3289,9.5283,0.0,0.0,0.0,9.9945,10.0162,10.0031,9.8664,9.7084,9.5369,9.2311,0.0,8.922,8.6115,8.4221,8.3815,8.0681,0.0,0.0,0.0,0.0,0.0,0.0,0.0,0.0,0.0,0.0,0.0,7.3586,7.2941,7.165,7.2145,7.2951,7.3915,7.4135,7.459,7.5436,7.6304,7.7059,7.7768,7.9319,8.0691,8.1537,8.3107,8.4243,8.4435,8.663,8.8244,8.8483,8.9902,9.0973,9.1169,9.1323,9.1359,9.1218,9.228,9.2959,9.249,9.0965,8.9705,8.9024,8.8831,8.9111,8.9904,9.0139,9.0107,8.9914,8.9855,8.931,8.8275,8.8306,8.8758,8.9205,8.9534,9.0213,9.1045,9.1203,9.1244,9.1402,9.1439,9.1473,9.1592,0.0,9.0744,9.0549,0.0,9.1013,9.0934,9.0552,9.0552,9.0552,9.0513,9.0133,8.9945,8.9943,8.9945,9.0171,9.0549,9.0552,9.0782,9.1206,9.1203,9.1203,9.1203,9.1203,9.1203,9.1203,9.1203,9.1203,9.1206,9.1631,9.2056,9.252,9.3749,9.5208,9.6903,9.8981,10.0445,10.133,10.1813,10.1718,10.0931,9.9467,9.7677,9.5566,0.0,0.0,0.0,0.0,0.0,0.0,0.0,0.0,0.0,0.0,0.0,7.4787,7.4326,7.4095,7.4095,7.4055,7.4787,7.644,7.7361,7.6782,7.4285,7.4861,7.5553,7.5938,7.6744,7.7394,7.7857,7.9025,7.9942,8.037,8.1541,8.2642,8.3486,8.4344,8.5049,8.5591,8.7363,8.8677,8.8718,9.0171,9.1129,9.1203,9.1203,9.1203,9.1244,9.1918,9.2157,9.1364,9.0556,8.9787,8.9402,8.9286,8.9599,9.0302,9.0537,9.0208,8.9429,8.931,8.8866,8.7753,8.8107,8.8788,8.9282,8.9966,9.0688,9.1086,9.1203,9.1203,9.1203,9.1203,9.1203,9.1631,9.1554,9.0552,9.0126,9.0239,9.1669,9.1748,9.0936,0.0,0.0,0.0,9.1203,9.1203,9.1203,9.1203,9.1203,9.1203,9.1203,9.1285,9.1439,9.1441,9.1439,9.1441,9.1439,9.1364,9.1203,9.1203,9.1282,9.1439,9.2172,9.2751,9.3326,9.5288,9.7016,9.8519,10.1481,10.3133,10.3289,10.3719,10.3282,10.1853,10.0443,9.8522,9.6009,9.3543,9.137,8.9689,8.7723,8.6289,8.5399,8.2991,8.1559,8.1365,7.9216,7.7982,7.7942,7.7323,7.6901,7.6899,7.6898,7.7555,7.9096,8.0635,8.0208,7.713,7.7557,7.8017,7.8173,7.9438,8.0283,8.0473,8.1672,8.2586,8.2731,8.3408,8.4164,8.4949,8.5115,8.5397,8.6128,8.7444,8.8526,8.8716,8.9979,9.1052,9.1165,9.1203,9.1203,9.1203,9.1244,9.1124,9.0532,9.0337,9.0147,9.012,9.0124,9.0434,9.1015,9.1129,9.0649,8.9397,8.8917,8.8576,8.7858,8.8345,8.9107,8.9793,9.0549,9.1165,9.1203,9.1203,9.1203,9.1203,9.1203,9.1203,9.333,9.3213,9.1669,9.1013,9.1052,9.1282,9.0898,9.0165,9.0744,9.109,9.1203,9.1203,9.1203,9.1203,9.1203,9.1203,9.1203,9.1203,9.1595,0.0,9.2326,9.2326,9.2326,9.2326,9.1902,9.1244,9.1203,9.1592,9.2249,9.2441,9.3595,9.5552,9.6129,9.817,10.175,10.3789,10.5138,10.5823,10.4574,10.3522,10.2738,10.1761,10.015,9.7776,9.5147,9.2987,9.1305,8.8798,8.7055,8.6243,8.4386,8.3025,8.2249,8.1214,8.0556,8.0554,8.0441,8.0398,8.0362,8.0364,8.0787,8.171,8.2676,8.2404,8.0592,8.0517,8.0862,8.1518,8.1787,8.2249,8.2945,8.3291,8.3729,8.4374,8.4654,8.5051,8.5814,8.5897,8.5936,8.6091,8.6938,8.7944,8.8675,8.9556,9.0436,9.1013,9.1203,9.1203,9.1203,9.1203,9.1165,9.1045,9.1045,9.1011,9.0936,9.1011,9.1013,9.1165,9.1203,9.0848,8.9816,8.962,8.9312,8.8615,8.9107,8.9656,8.9947,9.0588,9.1088,9.1203,9.1203,9.1203,9.1203,9.1203,9.1203,9.4828,9.433,9.3561,9.3253,9.3251,9.3253,9.2789,9.2016,9.2362,9.152,8.9906,8.9866,9.0092,9.047,9.0511,9.0744,9.1206,9.1708,9.2095,9.252,9.2945,9.3136,9.3138,9.3138,9.2712,9.1977,9.2366,9.2518,9.2635,9.3867,9.5168,9.6399,9.8553,10.1132,10.3866,10.5174,10.6018,10.6397,10.5631,10.4927,10.4238,10.297,10.1161,9.8822,9.6632,9.4271,9.1714,9.0319,8.901,8.7738,8.6428,8.5539,8.5112,8.4306,8.363,8.3206,8.3166,8.2937,8.2479,8.2899,8.332,8.3708,8.4478,8.4632,8.3901,8.298,8.2635,8.2982,8.3403,8.3862,8.4286,8.4711,8.5099,8.5496,8.5559,8.5707,8.6015,8.6091,8.6091,8.6168,8.6863,8.7713,8.86,8.9402,9.0239,9.1011,9.1203,9.1203,9.1203,9.1203,9.1203,9.1203,9.1203,9.1203,9.1203,9.1203,9.1203,9.1203,9.1203,9.0846,9.0096,8.9906,8.956,8.8953,8.9366,8.9842,8.9932,9.0626,9.1088,9.1203,9.1203,9.1203,9.1203,9.1203,9.1203,9.6095,9.5292,9.5064,9.5181,9.5564,9.5564,9.4984,9.4023,9.3984,9.2217,8.956,8.9639,9.0171,9.0703,9.0744,9.1129,9.1785,9.2482,9.2869,9.3138,9.3715,9.3982,9.3984,9.3984,9.3559,9.2905,9.3405,9.3443,9.3369,9.5285,9.6709,9.7706,10.1094,10.3638,10.5064,10.5977,10.6397,10.6397,10.6397,10.6067,10.5363,10.3936,10.2006,9.9641,9.781,9.5412,9.2348,9.1784,9.0774,8.915,8.8361,8.7902,8.7675,8.7057,8.632,8.5589,8.5474,8.5093,8.4326,8.4784,8.5166,8.5166,8.5745,8.6091,8.5976,8.4939,8.4176,8.4251,8.4784,8.5166,8.5245,8.5668,8.6091,8.6091,8.6091,8.6053,8.6091,8.6091,8.6091,8.6168,8.6863,8.7711,8.8596,8.94,9.0242,9.0975,9.1203,9.1203,9.1203,9.1203,9.1203,9.1203,9.1203,9.1203,9.1203,9.1203,9.109,9.1013,9.109,9.0769,9.0215,9.0017,9.0017,8.9585,8.9781,9.0229,9.028,9.0705,9.1129,9.1203,9.1203,9.1203,9.1203,9.1203,9.1203,9.6939,9.6093,9.5448,9.5908,9.7173,9.725,9.6329,9.5025,9.4912,9.3407,9.1402,9.2559,9.3213,9.3328,9.3251,9.3253,9.3405,9.3561,9.3984,9.464,9.4835,9.4871,9.4871,9.4874,9.4407,9.3674,9.3715,9.4177,9.4756,9.5901,9.7899,10.0707,10.2828,10.4215,10.5102,10.5982,10.6397,10.6397,10.6397,10.6035,10.5301,10.4383,10.2698,10.0291,9.8518,9.6388,9.3808,9.2855,9.1606,8.9983,8.971,8.9323,8.8716,8.8521,8.806,8.725,8.7132,8.6788,8.594,8.5938,8.5938,8.5974,8.6015,8.6091,8.6091,8.5938,8.5859,8.582,8.5899,8.5936,8.5976,8.6053,8.6091,8.6091,8.6091,8.6091,8.6091,8.6091,8.6091,8.6091,8.6861,8.7711,8.8598,8.9438,9.0282,9.109,9.1203,9.1203,9.1203,9.1203,9.1203,9.1203,9.1203,9.1203,9.1203,9.1203,9.0896,9.0355,9.0703,9.0656,9.0258,9.0451,9.0966,9.0609,9.0808,9.0932,9.0973,9.1165,9.1165,9.1203,9.1203,9.1203,9.1203,9.1203,9.1203,9.9286,9.8444,9.76,9.7329,9.7555,9.8019,9.7598,9.6559,9.7021,9.6636,9.579,9.5903,9.4867,9.302,9.2979,9.3215,9.3713,9.4256,9.464,9.5027,9.5523,9.5749,9.5788,9.579,9.5292,9.4602,9.498,9.5441,9.6136,9.8093,10.0517,10.2712,10.4061,10.5023,10.5826,10.6246,10.6397,10.6397,10.6397,10.6231,10.5853,10.4643,10.3337,10.1794,9.9607,9.7479,9.5501,9.3995,9.2674,9.1515,9.0936,9.0513,9.0212,9.0173,8.9787,8.8936,8.7938,8.7019,8.6168,8.6091,8.6091,8.6091,8.6091,8.6091,8.6091,8.6091,8.6091,8.6091,8.6091,8.6091,8.6091,8.6091,8.6091,8.6091,8.6091,8.6091,8.6091,8.6091,8.6091,8.6166,8.6861,8.7752,8.8677,8.9863,9.0744,9.1129,9.1203,9.1203,9.1203,9.1203,9.1203,9.1203,9.1203,9.1203,9.1203,9.1203,9.078,9.0246,9.0182,9.0182,9.0107,9.0096,9.053,9.1086,9.1165,9.1203,9.1165,9.1203,9.1203,9.1203,9.1203,9.1203,9.1203,9.1203,9.1203,10.1558,10.0717,9.9868,9.9135,9.8594,9.9211,9.9019,9.8329,9.8906,9.9024,9.8714,9.8137,9.6559,9.4367,9.3787,9.3864,9.4444,9.5061,9.5369,9.5446,9.6019,9.6283,9.6283,9.6283,9.598,9.5559,9.6211,9.6865,9.7555,9.9899,10.2171,10.3794,10.4718,10.552,10.6285,10.6397,10.6397,10.6397,10.6397,10.6397,10.6179,10.4823,10.3591,10.2652,10.0249,9.8094,9.6433,9.4636,9.333,9.252,9.1669,9.1203,9.1203,9.1203,9.0821,8.9893,8.8553,8.7481,8.6863,8.6592,8.6436,8.6438,8.6247,8.6091,8.6091,8.6091,8.6091,8.6091,8.6091,8.6091,8.6091,8.6091,8.6091,8.6091,8.6091,8.6091,8.6091,8.6091,8.6209,8.6478,8.7327,8.8214,8.925,9.0404,9.1165,9.1165,9.1203,9.1203,9.1203,9.1203,9.1203,9.1203,9.1203,9.1203,9.1203,9.1203,9.0782,8.9981,8.969,8.9891,8.9735,8.9688,9.0213,9.1007,9.1086,9.1203,9.1203,9.1203,9.1203,9.1203,9.1203,9.1203,9.1203,9.1203,9.1203,10.3292,10.2402,10.1556,10.1128,10.1089,10.113,10.0709,9.9873,10.0027,9.9601,9.8985,9.8791,9.8639,9.8214,9.6711,9.6132,9.6206,9.6245,9.6326,9.6324,9.636,9.6322,9.6283,9.6283,9.6322,9.6403,9.7093,9.8252,9.9796,10.0866,10.2171,10.3871,10.4753,10.5559,10.6285,10.6397,10.6397,10.6397,10.6397,10.6397,10.6208,10.4794,10.3578,10.2585,10.0188,9.8112,9.6451,9.4679,9.3369,9.2559,9.1708,9.1244,9.1206,9.1203,9.0819,8.9932,8.9094,8.8641,8.8408,8.7752,8.7327,8.725,8.6709,8.6168,8.6361,8.6284,8.6245,8.613,8.613,8.6091,8.6091,8.6091,8.6091,8.6091,8.6091,8.6091,8.6091,8.6091,8.6476,8.7209,8.806,8.9175,9.0746,9.1133,9.1206,9.1203,9.1203,9.1203,9.1203,9.1203,9.1203,9.1203,9.1203,9.1203,9.1203,9.0973,9.0323,8.9522,8.9267,8.9564,8.9361,8.9385,9.0169,9.0887,9.1086,9.1203,9.1203,9.1203,9.1203,9.1203,9.1203,9.1203,9.1203,9.1203,9.1203,10.3869,10.2674,10.2866,10.2325,10.1397,10.1899,10.1633,10.0902,10.0866,10.0712,10.0327,9.987,9.9642,9.9565,9.8408,9.7906,9.7906,9.7904,9.7906,9.7906,9.7904,9.7904,9.7904,9.7906,9.7904,9.7944,9.8214,9.9214,10.0866,10.2251,10.3522,10.46,10.5518,10.6133,10.6359,10.6397,10.6397,10.6397,10.6397,10.6397,10.6285,10.5251,10.4292,10.3369,10.0986,9.9098,9.7942,9.6249,9.4711,9.3328,9.2482,9.1785,9.1282,9.1203,9.0823,9.0009,8.9631,8.9248,8.8754,8.8406,8.8216,8.8216,8.7983,8.7713,8.7673,8.7286,8.694,8.6824,8.6361,8.613,8.6091,8.6091,8.6091,8.6091,8.6091,8.6091,8.6091,8.613,8.644,8.7404,8.8556,8.9936,9.0823,9.1203,9.1203,9.1203,9.1203,9.1203,9.1203,9.1203,9.1203,9.1203,9.1203,9.1203,9.1203,9.0624,8.9972,8.9092,8.8643,8.8741,8.8628,8.8927,8.9628,9.0887,9.1165,9.1203,9.1203,9.1203,9.1203,9.1203,9.1203,9.1203,9.1203,9.1203,9.1203,10.4715,10.3599,10.4023,10.3289,10.1861,10.2361,10.2094,10.1358,10.1279,10.1279,10.1166,10.0712,10.0483,10.0406,9.9868,9.9599,9.9519,9.9058,9.8793,9.8793,9.8793,9.8793,9.8793,9.8793,9.8793,9.8906,9.9406,10.0366,10.1746,10.3446,10.4561,10.5102,10.5979,10.6397,10.6397,10.6397,10.6397,10.6397,10.6397,10.6397,10.6282,10.5559,10.4718,10.3756,10.1948,10.0219,9.887,9.7442,9.5749,9.3943,9.3174,9.2364,9.1359,9.1203,9.0934,9.0396,9.0321,9.009,8.9558,8.9252,8.9096,8.9058,8.8829,8.8677,8.8639,8.8137,8.7867,8.7637,8.7055,8.6515,8.6476,8.6284,8.6091,8.6091,8.6091,8.6091,8.6128,8.6393,8.7085,8.8205,8.9475,9.0511,9.1052,9.1165,9.1203,9.1203,9.1203,9.1203,9.1203,9.1203,9.1203,9.1203,9.1203,9.102,9.068,9.0026,8.9631,8.8863,8.8444,8.8348,8.8543,8.8835,8.9467,9.0652,9.1203,9.1203,9.1203,9.1203,9.1203,9.1203,9.1203,9.1203,9.1203,9.1203,9.1242,10.5828,10.5025,10.5105,10.4176,10.2825,10.2712,10.2169,10.1476,10.132,10.1279,10.1281,10.1243,10.1166,10.1205,10.1169,10.1245,10.0979,9.9945,9.9252,9.906,9.9021,9.9021,9.9024,9.906,9.9137,9.9252,10.0594,10.1786,10.2787,10.4215,10.5064,10.5292,10.6018,10.6397,10.6397,10.6397,10.6397,10.6397,10.6397,10.6397,10.6285,10.5638,10.4833,10.3987,10.302,10.1404,9.9021,9.8019,9.6403,9.4213,9.3715,9.2903,9.1477,9.1203,9.1165,9.1126,9.1129,9.1169,9.1015,9.0323,8.9936,8.9859,8.925,8.8983,8.9021,8.8829,8.8716,8.856,8.7942,8.7404,8.7211,8.6786,8.6284,8.6091,8.6091,8.6091,8.6314,8.6957,8.803,8.9468,9.0513,9.1088,9.1165,9.1203,9.1203,9.1203,9.1203,9.1203,9.1203,9.1203,9.1203,9.1203,9.1167,9.102,9.0186,8.9351,8.9068,8.8716,8.8528,8.8421,8.8891,8.9284,8.9869,9.0887,9.1165,9.1203,9.1203,9.1203,9.1203,9.1203,9.1203,9.1203,9.1203,9.1203,9.1321,10.5333,10.5179,10.5751,10.5366,10.4292,10.3715,10.2981,10.2171,10.1592,10.1279,10.1279,10.1279,10.1279,10.1435,10.1897,10.2169,10.2171,10.2174,10.1673,10.0671,10.0517,10.0479,10.0479,10.0517,10.0827,10.1481,10.2561,10.3522,10.4253,10.4871,10.5369,10.5941,10.6244,10.6397,10.6397,10.6397,10.6397,10.6397,10.6397,10.6397,10.6397,10.6131,10.5556,10.4756,10.3946,10.252,10.0591,9.9137,9.748,9.5518,9.4328,9.2943,9.1554,9.1203,9.1203,9.1203,9.1203,9.1203,9.1165,9.0977,9.0744,9.0742,9.0515,9.0438,9.0364,8.9823,8.9554,8.9479,8.8786,8.8098,8.7598,8.775,8.7325,8.6205,8.6091,8.6472,8.7111,8.8231,8.9235,8.9853,9.0667,9.1129,9.1203,9.1203,9.1203,9.1203,9.1203,9.1203,9.1203,9.1203,9.1203,9.1203,9.1167,9.1052,9.0364,8.9795,8.9445,8.9101,8.8801,8.881,8.9278,8.9804,9.0432,9.0808,9.1086,9.1203,9.1203,9.1203,9.1203,9.1203,9.1203,9.1203,9.1203,9.1323,9.152,10.5105,10.5218,10.6054,10.5903,10.5025,10.4256,10.3405,10.2556,10.1669,10.1279,10.1279,10.1279,10.1476,10.182,10.2361,10.2787,10.3097,10.3679,10.3328,10.2325,10.1861,10.1784,10.1784,10.1784,10.2248,10.3097,10.3948,10.4602,10.5102,10.5448,10.5867,10.6323,10.6397,10.6397,10.6397,10.6397,10.6397,10.6397,10.6397,10.6397,10.6397,10.6397,10.5979,10.5102,10.433,10.3058,10.1358,9.9981,9.8368,9.6362,9.4364,9.2633,9.1359,9.1203,9.1203,9.1203,9.1203,9.1203,9.1203,9.1165,9.1203,9.1203,9.1203,9.1165,9.109,9.0626,9.0396,9.0282,8.9633,8.8902,8.8517,8.8444,8.8173,8.7211,8.7113,8.7446,8.8267,8.9229,9.0009,9.0396,9.0898,9.1126,9.1203,9.1203,9.1203,9.1203,9.1203,9.1203,9.1203,9.1203,9.1203,9.1203,9.1167,9.097,9.0654,9.0274,8.9934,8.956,8.919,8.9316,8.9635,9.0221,9.0808,9.0966,9.1203,9.1203,9.1203,9.1203,9.1203,9.1203,9.1203,9.1203,9.1244,9.168,9.1954,10.5025,10.5141,10.6018,10.5941,10.5179,10.4369,10.3638,10.2748,10.1822,10.1474,10.1435,10.1512,10.1822,10.244,10.2825,10.3366,10.3907,10.4215,10.4253,10.3866,10.3289,10.2825,10.2674,10.2825,10.3289,10.3987,10.4794,10.5177,10.5333,10.5944,10.6436,10.6554,10.659,10.6515,10.6592,10.6474,10.6513,10.6397,10.6397,10.6397,10.6397,10.6397,10.6054,10.5256,10.4446,10.3328,10.1863,10.0445,9.8714,9.6365,9.4134,9.2518,9.1515,9.1244,9.1203,9.1203,9.1203,9.1203,9.1203,9.1203,9.1203,9.1203,9.1203,9.1203,9.1165,9.1088,9.1011,9.1015,9.0398,8.9895,8.9665,8.9402,8.8985,8.8876,8.8699,8.8957,8.972,8.9919,9.0357,9.0936,9.1165,9.1203,9.1203,9.1203,9.1203,9.1203,9.1203,9.1203,9.1203,9.1203,9.1203,9.1203,9.1203,9.1047,9.0771,9.0699,9.0396,9.0284,8.9913,9.0,9.0088,9.0599,9.0966,9.1124,9.1203,9.1203,9.1203,9.1203,9.1203,9.1203,9.1203,9.1203,9.152,9.1993,9.2617,10.4215,10.4369,10.5785,10.6246,10.5941,10.5136,10.4641,10.4251,10.2864,10.2287,10.2289,10.2248,10.2402,10.271,10.3907,10.46,10.4869,10.5405,10.5749,10.5597,10.4866,10.41,10.383,10.4176,10.4523,10.491,10.5559,10.6054,10.6054,10.6323,10.6744,10.7364,10.7323,10.7364,10.7362,10.7364,10.6977,10.6474,10.6397,10.6438,10.6438,10.6397,10.6321,10.6018,10.5218,10.4253,10.3022,10.0563,9.8288,9.6439,9.5098,9.3636,9.2287,9.1592,9.1282,9.1282,9.1206,9.1203,9.1203,9.1203,9.1203,9.1203,9.1203,9.1203,9.1203,9.1203,9.1203,9.1167,9.0936,9.0588,9.0126,9.0244,9.0441,9.0479,8.994,8.9699,8.9987,9.0496,9.0977,9.1169,9.1203,9.1203,9.1203,9.1203,9.1203,9.1203,9.1203,9.1203,9.1203,9.1203,9.1203,9.1203,9.1165,9.1086,9.1009,9.0934,9.0898,9.0936,9.0825,9.0748,9.0832,9.0977,9.1124,9.1203,9.1203,9.1203,9.1203,9.1203,9.1203,9.1203,9.1321,9.1439,9.1945,9.2456,9.335,10.4407,10.4525,10.5864,10.6397,10.6285,10.5443,10.5105,10.4871,10.3751,10.3174,10.3135,10.3138,10.3369,10.3751,10.4677,10.5292,10.571,10.6172,10.6359,10.6326,10.5864,10.5174,10.4715,10.4948,10.5295,10.5674,10.6169,10.6321,10.6474,10.6744,10.7246,10.7672,10.8021,10.8175,10.8211,10.8175,10.7982,10.748,10.7133,10.6941,10.6939,10.6554,10.6397,10.6246,10.5561,10.4602,10.3176,10.1058,9.8786,9.6749,9.5444,9.4373,9.3138,9.2212,9.1748,9.1746,9.1436,9.1203,9.1203,9.1203,9.1203,9.1203,9.1203,9.1203,9.1203,9.1203,9.1203,9.1167,9.1203,9.0934,9.0665,9.0936,9.1167,9.1049,9.0729,9.0451,9.0451,9.0887,9.1165,9.1203,9.1203,9.1203,9.1203,9.1203,9.1203,9.1203,9.1203,9.1203,9.1203,9.1203,9.1203,9.1203,9.1203,9.1124,9.1086,9.1049,9.1052,9.1129,9.1129,9.1203,9.1203,9.1203,9.1203,9.1203,9.1203,9.1203,9.1203,9.1203,9.1203,9.1244,9.1477,9.1868,9.2416,9.3353,9.4206,10.5105,10.5177,10.6018,10.6397,10.6285,10.5561,10.5333,10.51,10.4407,10.4023,10.4023,10.4025,10.4333,10.5105,10.5215,10.5677,10.6359,10.6362,10.6362,10.64,10.6246,10.5864,10.5331,10.5331,10.5713,10.6249,10.6438,10.659,10.6862,10.7439,10.7864,10.829,10.8793,10.8985,10.9062,10.9024,10.8985,10.8636,10.8098,10.7829,10.7672,10.7095,10.6705,10.6554,10.5597,10.4564,10.3215,10.1709,9.9935,9.7016,9.579,9.4794,9.3867,9.3061,9.2484,9.2251,9.1669,9.1203,9.1203,9.1203,9.1203,9.1203,9.1203,9.1203,9.1203,9.1203,9.1203,9.1203,9.1203,9.1129,9.1129,9.1208,9.1206,9.1165,9.1165,9.1165,9.1203,9.1203,9.1203,9.1203,9.1203,9.1203,9.1203,9.1203,9.1203,9.1203,9.1203,9.1203,9.1203,9.1203,9.1203,9.1203,9.1203,9.1203,9.1165,9.1165,9.1165,9.1165,9.1167,9.1203,9.1203,9.1203,9.1203,9.1203,9.1203,9.1203,9.1203,9.1203,9.1242,9.1552,9.1902,9.2375,9.2927,9.4251,9.5263,10.5105,10.5179,10.6018,10.6397,10.6359,10.6208,10.6092,10.6015,10.5215,10.4833,10.483,10.4833,10.4948,10.5182,10.5787,10.6246,10.6397,10.6397,10.6397,10.6397,10.6397,10.6323,10.6133,10.6172,10.6246,10.659,10.7133,10.7403,10.7595,10.8213,10.8985,10.9565,10.968,10.9911,10.9911,10.9911,10.9565,10.9021,10.8752,10.8675,10.8482,10.7787,10.7323,10.7131,10.5908,10.5025,10.4217,10.244,10.0976,9.9745,9.7673,9.5828,9.4792,9.3407,9.2712,9.2405,9.1748,9.1244,9.1203,9.1244,9.1206,9.1282,9.1244,9.1203,9.1203,9.1203,9.1203,9.1203,9.1203,9.1203,9.1203,9.1203,9.1203,9.1203,9.1203,9.1203,9.1203,9.1203,9.1203,9.1203,9.1203,9.1203,9.1203,9.1203,9.1203,9.1203,9.1203,9.1203,9.1203,9.1203,9.1203,9.1203,9.1203,9.1203,9.1203,9.1203,9.1203,9.1203,9.1203,9.1203,9.1203,9.1203,9.1203,9.1203,9.1203,9.1203,9.1203,9.1396,9.147,9.1939,9.2482,9.3264,9.4088,9.5301,9.6452,10.5713,10.5751,10.6205,10.6397,10.6397,10.6397,10.6397,10.6323,10.5941,10.5713,10.5713,10.5713,10.571,10.5749,10.6169,10.6397,10.6397,10.6397,10.6397,10.6515,10.6785,10.7015,10.7133,10.7326,10.7439,10.7249,10.7864,10.8213,10.8482,10.9101,10.9716,11.0219,11.0601,11.0791,11.0793,11.0791,11.0598,11.0175,10.9713,10.9521,10.937,10.8329,10.74,10.7133,10.6174,10.5559,10.4907,10.352,10.2207,10.1015,9.925,9.7442,9.6139,9.4602,9.3597,9.2982,9.2287,9.1862,9.1785,9.1439,9.1398,9.1748,9.1477,9.1244,9.1203,9.1203,9.1203,9.1203,9.1203,9.1203,9.1203,9.1203,9.1203,9.1203,9.1206,9.1203,9.1206,9.1203,9.1203,9.1203,9.1203,9.1203,9.1203,9.1203,9.1203,9.1203,9.1203,9.1203,9.1203,9.1203,9.1203,9.1203,9.1203,9.1203,9.1203,9.1203,9.1203,9.1203,9.1203,9.1203,9.1203,9.1203,9.1203,9.1203,9.1203,9.1203,9.1242,9.1473,9.1855,9.2362,9.3102,9.4154,9.5245,9.6261,9.7511,10.6397,10.6397,10.6397,10.6397,10.6397,10.6397,10.6397,10.6397,10.6397,10.6285,10.6397,10.6397,10.6285,10.6362,10.6362,10.6397,10.6397,10.6438,10.6438,10.6823,10.7326,10.7672,10.7982,10.8521,10.8865,10.8364,10.8826,10.9136,10.956,11.0139,11.0909,11.0986,11.1522,11.1827,11.175,11.167,11.1516,11.117,11.0675,11.0406,11.0139,10.8829,10.7593,10.6631,10.64,10.6018,10.5407,10.4407,10.333,10.1784,10.0794,9.9483,9.7944,9.6177,9.4794,9.3946,9.3136,9.2597,9.2326,9.2016,9.2016,9.252,9.2056,9.1554,9.1513,9.1669,9.1708,9.1631,9.1631,9.1821,9.159,9.1798,9.1755,9.1712,9.1633,9.1592,9.1595,9.1554,9.1667,9.1203,9.1203,9.1203,9.1203,9.1203,9.1203,9.1203,9.1244,9.1244,9.1282,9.1206,9.1244,9.1203,9.1203,9.1203,9.1203,9.1203,9.1203,9.1206,9.1206,9.1282,9.1323,9.1561,9.1601,9.1244,9.1203,9.1282,9.1547,9.1925,9.2351,9.2821,9.3907,9.5186,9.6241,9.7219,9.8461,10.6397,10.6397,10.6397,10.6397,10.6397,10.6397,10.6397,10.6397,10.6397,10.6397,10.6397,10.6397,10.6397,10.6397,10.6397,10.6397,10.6397,10.64,10.6746,10.7285,10.7711,10.8059,10.8829,10.9601,11.0175,11.0596,11.0444,11.0406,11.1134,11.1862,11.2483,11.3176,11.3409,11.3253,11.2673,11.2439,11.2093,11.1708,11.1288,11.1131,11.0785,10.9598,10.798,10.6746,10.6554,10.6362,10.6056,10.5331,10.4448,10.3443,10.1943,10.0714,9.9409,9.7408,9.5905,9.4831,9.3984,9.333,9.2866,9.302,9.2864,9.2828,9.2866,9.2789,9.2597,9.2712,9.2556,9.2479,9.2749,9.3172,9.3289,9.3042,9.3169,9.3235,9.3097,9.309,9.3131,9.302,9.2554,9.1783,9.1475,9.1398,9.1629,9.1748,9.1791,9.1832,9.183,9.1796,9.1759,9.1561,9.1362,9.1282,9.1203,9.1203,9.1203,9.1203,9.1203,9.1244,9.1323,9.1443,9.1601,9.2038,9.2035,9.1894,9.1742,9.1794,9.2092,9.2538,9.3348,9.4167,9.5249,9.6372,9.7393,9.841,9.9274,10.6397,10.6397,10.6397,10.6397,10.6397,10.6397,10.6397,10.6397,10.6397,10.6397,10.6397,10.6397,10.6397,10.6397,10.6397,10.6397,10.6397,10.6397,10.69,10.7595,10.8136,10.8754,10.9598,11.0486,11.1288,11.1788,11.1714,11.1945,11.2824,11.3637,11.3984,11.4022,11.4409,11.4217,11.3445,11.2863,11.2555,11.2093,11.1785,11.1552,11.1437,11.0172,10.8752,10.7557,10.7018,10.6862,10.6285,10.5597,10.4948,10.4256,10.2904,10.1671,10.0483,9.9178,9.7444,9.5944,9.4907,9.4253,9.3753,9.3869,9.3636,9.383,9.3828,9.3561,9.3176,9.3061,9.302,9.2905,9.3213,9.3674,9.3636,9.3776,9.3697,9.3683,9.3733,9.3753,9.3753,9.3742,9.3328,9.2749,9.2864,9.2866,9.2635,9.2678,9.2572,9.2497,9.2418,9.2379,9.2305,9.2078,9.1839,9.1791,9.1751,9.1552,9.159,9.159,9.1599,9.1601,9.1676,9.1834,9.2104,9.2653,9.2857,9.2824,9.2686,9.2918,9.3208,9.3885,9.4697,9.5588,9.6711,9.7797,9.8663,9.9553,10.0344,10.6397,10.6397,10.6397,10.6397,10.6397,10.6397,10.6397,10.6397,10.6397,10.6397,10.6397,10.6397,10.6397,10.6397,10.6397,10.6397,10.6438,10.6554,10.721,10.8018,10.8829,10.9639,11.0483,11.1327,11.217,11.2865,11.3253,11.356,11.4137,11.4758,11.4833,11.4948,11.5335,11.5105,11.4291,11.375,11.3247,11.2786,11.2404,11.1939,11.1362,11.0598,10.9524,10.8059,10.7787,10.7326,10.6785,10.5941,10.5369,10.4715,10.3676,10.2479,10.1594,10.064,9.9139,9.7326,9.6136,9.5485,9.4871,9.4754,9.4597,9.4681,9.4484,9.4215,9.391,9.3638,9.3289,9.3328,9.3867,9.4403,9.4518,9.4328,9.433,9.4324,9.4371,9.4343,9.4703,9.4921,9.5218,9.4835,9.464,9.4215,9.383,9.3292,9.3106,9.3113,9.3072,9.3088,9.3018,9.2902,9.2707,9.2578,9.2414,9.2133,9.2092,9.221,9.2262,9.2354,9.2506,9.2696,9.3038,9.3418,9.3615,9.3973,9.4634,9.4894,9.5061,9.5228,9.5911,9.6878,9.8127,9.8993,9.9476,10.0327,10.1279,10.6397,10.64,10.6436,10.6397,10.6436,10.6436,10.64,10.6397,10.6397,10.6397,10.6397,10.6397,10.6397,10.6397,10.6474,10.6436,10.6631,10.7249,10.7982,10.879,10.9562,11.0406,11.1362,11.217,11.2981,11.3753,11.4525,11.4986,11.5217,11.5374,11.5682,11.5989,11.6064,11.5951,11.5179,11.4756,11.4599,11.3948,11.3717,11.2945,11.1673,11.0752,10.9867,10.8906,10.8213,10.7713,10.7403,10.6595,10.5979,10.5138,10.4294,10.333,10.2366,10.0947,10.018,9.9255,9.8175,9.6598,9.5641,9.5598,9.5713,9.5679,9.5636,9.5482,9.5061,9.4871,9.4946,9.5824,9.5862,9.5747,9.567,9.5903,9.5939,9.5978,9.593,9.6296,9.6644,9.6385,9.6603,9.6942,9.6783,9.5595,9.4715,9.4136,9.3636,9.3683,9.3724,9.3896,9.3848,9.3805,9.335,9.3133,9.309,9.281,9.2672,9.2787,9.2916,9.3056,9.3526,9.3787,9.419,9.4638,9.4966,9.5418,9.6155,9.6789,9.6958,9.7122,9.7325,9.8253,9.9702,9.9995,9.9978,10.1017,10.2249,10.7823,10.7826,10.7823,10.7557,10.7169,10.7133,10.6862,10.6474,10.6397,10.6397,10.6397,10.6397,10.6397,10.6513,10.6862,10.7131,10.7323,10.798,10.8831,10.9485,11.0139,11.0947,11.198,11.2596,11.3291,11.4525,11.514,11.5528,11.5871,11.6407,11.6792,11.649,11.691,11.6792,11.5913,11.5528,11.514,11.4679,11.4214,11.3365,11.2404,11.1714,11.0986,10.9716,10.9254,10.8598,10.7787,10.7403,10.6708,10.5867,10.5023,10.4217,10.3292,10.2176,10.1178,10.0027,9.9447,9.8411,9.741,9.7096,9.6944,9.7023,9.7019,9.6557,9.6057,9.6136,9.5985,9.5523,9.6016,9.6283,9.648,9.672,9.692,9.7071,9.7252,9.7706,9.8084,9.8134,9.818,9.8553,9.8733,9.7548,9.6632,9.6557,9.6259,9.6085,9.6008,9.5878,9.5514,9.5011,9.4387,9.3588,9.3552,9.348,9.3428,9.3405,9.3563,9.3893,9.5005,9.5258,9.5605,9.5969,9.6341,9.6932,9.7665,9.8246,9.8694,9.9123,9.9389,10.0293,10.132,10.1496,10.1671,10.2263,10.3408,10.956,10.9521,10.9095,10.8559,10.8018,10.798,10.7518,10.6782,10.6746,10.6592,10.6515,10.659,10.6746,10.6939,10.7595,10.8018,10.8057,10.887,10.9524,11.0062,11.0755,11.156,11.2519,11.3096,11.4102,11.5335,11.5605,11.5913,11.6487,11.691,11.6872,11.6528,11.6946,11.6984,11.649,11.5992,11.5643,11.5566,11.4794,11.4099,11.3445,11.2865,11.1983,11.1101,11.0334,10.9524,10.8252,10.7711,10.7249,10.6362,10.5484,10.4718,10.41,10.3292,10.2253,10.1255,10.0755,10.0332,9.9291,9.8634,9.8368,9.8368,9.8327,9.7596,9.7209,9.7478,9.7557,9.641,9.6752,9.7016,9.706,9.7535,9.773,9.7995,9.8254,9.8711,9.9132,9.9255,9.9488,9.9784,9.9928,9.9772,9.9163,9.9284,9.9069,9.8674,9.8369,9.7895,9.7187,9.6355,9.5812,9.5063,9.4789,9.4873,9.5041,9.4867,9.4717,9.4962,9.6073,9.675,9.7048,9.7459,9.7916,9.8557,9.9165,9.962,10.0063,10.0757,10.1458,10.206,10.2702,10.3225,10.3632,10.4029,10.445,11.1324,11.1211,10.9598,10.8944,10.879,10.879,10.8367,10.7631,10.7595,10.7208,10.6787,10.721,10.7595,10.7829,10.8408,10.8829,10.887,10.9719,11.0255,11.087,11.1673,11.2519,11.3327,11.4217,11.5066,11.5451,11.5913,11.6297,11.649,11.6643,11.6643,11.6567,11.6718,11.6605,11.6451,11.6297,11.622,11.6105,11.5525,11.514,11.4525,11.3755,11.2711,11.2173,11.1024,10.9757,10.887,10.8175,10.7323,10.6474,10.5713,10.5141,10.4753,10.4176,10.3217,10.252,10.2253,10.183,10.1056,9.9712,9.8868,9.8791,9.8829,9.8791,9.8483,9.8562,9.8524,9.818,9.806,9.8252,9.8411,9.8723,9.8918,9.9154,9.9606,10.02,10.0471,10.0486,10.0717,10.1015,10.1123,10.1156,10.1161,10.1171,10.0325,9.9772,9.911,9.8675,9.8262,9.7596,9.7415,9.691,9.6437,9.655,9.7053,9.6944,9.6639,9.6922,9.7758,9.8221,9.8512,9.8974,9.9659,9.9882,10.0404,10.0938,10.1471,10.2098,10.2778,10.3408,10.4005,10.4451,10.4684,10.4841,10.5302,11.1513,11.1437,11.0747,11.0214,10.9678,10.9678,10.9216,10.8521,10.8444,10.8288,10.7903,10.8288,10.8444,10.8675,10.9293,10.9719,10.9911,11.1175,11.1522,11.206,11.2865,11.3712,11.4409,11.4871,11.5525,11.5951,11.6374,11.649,11.649,11.649,11.649,11.649,11.6567,11.649,11.649,11.649,11.649,11.6451,11.6143,11.5874,11.522,11.4758,11.3791,11.2596,11.2327,11.0675,10.9216,10.8677,10.7672,10.6705,10.6092,10.5636,10.5256,10.4833,10.4253,10.352,10.3407,10.3138,10.2517,10.0945,9.9678,9.9716,9.9983,10.0137,9.968,9.9603,9.9257,9.9026,9.8947,9.9137,9.8908,9.9678,10.0411,10.0618,10.1034,10.1659,10.1885,10.1863,10.1989,10.2289,10.2664,10.2926,10.2895,10.2904,10.1786,10.0748,10.0043,9.9423,9.9089,9.8707,9.8442,9.8216,9.7704,9.7709,9.8173,9.8365,9.8444,9.8884,9.9365,9.9599,9.9945,10.0971,10.1529,10.1628,10.1887,10.2635,10.3171,10.3526,10.398,10.449,10.5041,10.5554,10.5667,10.5621,10.5931,11.1513,11.1513,11.1513,11.117,11.0639,11.0601,11.0098,10.9408,10.9293,10.9098,10.8947,10.9101,10.929,10.9524,11.0175,11.0793,11.1175,11.2057,11.2714,11.3291,11.3945,11.4717,11.5179,11.5605,11.5989,11.6413,11.649,11.649,11.649,11.649,11.672,11.6872,11.6874,11.6833,11.649,11.649,11.649,11.649,11.6413,11.63,11.572,11.5297,11.4912,11.3522,11.2981,11.1747,11.0096,10.9213,10.8172,10.7208,10.6515,10.6056,10.5713,10.5407,10.5023,10.4561,10.4217,10.4179,10.3446,10.2525,10.1101,10.1099,10.1289,10.1135,10.0717,10.0486,10.0253,10.0291,10.0096,9.9983,10.0137,10.1484,10.2063,10.2232,10.2607,10.3084,10.3151,10.3197,10.3325,10.3525,10.3746,10.3702,10.3666,10.3484,10.2832,10.1912,10.1414,10.0704,10.0075,9.9687,9.9257,9.9031,9.8762,9.8889,9.9135,9.9291,9.9524,10.0099,10.0539,10.0887,10.1411,10.239,10.2948,10.2867,10.3295,10.4335,10.4682,10.4692,10.5031,10.5451,10.5849,10.6092,10.6131,10.6049,10.6126,11.1513,11.1513,11.1513,11.1475,11.1401,11.1475,11.0942,11.0216,11.0178,10.979,10.9331,10.9873,11.018,11.037,11.098,11.1593,11.2247,11.267,11.3211,11.4063,11.4833,11.5297,11.5605,11.5989,11.6297,11.6451,11.649,11.649,11.649,11.649,11.6872,11.7484,11.7635,11.7407,11.6605,11.649,11.649,11.649,11.649,11.6413,11.622,11.5756,11.5297,11.464,11.3599,11.2285,11.1016,10.9521,10.8444,10.7557,10.6705,10.6323,10.6208,10.6169,10.5826,10.5218,10.5102,10.4753,10.4018,10.3828,10.3282,10.2515,10.2479,10.221,10.1592,10.1399,10.1633,10.1827,10.2135,10.2638,10.3215,10.3676,10.3643,10.3763,10.4064,10.4397,10.4464,10.4462,10.4592,10.4677,10.4253,10.3946,10.3987,10.3912,10.3532,10.3037,10.2701,10.2073,10.1315,10.1043,10.0772,10.0683,10.0536,10.0582,10.075,10.0447,10.0601,10.1176,10.1681,10.2039,10.2501,10.3273,10.3702,10.3883,10.4475,10.521,10.552,10.5708,10.5854,10.5962,10.6121,10.6323,10.6397,10.6397,10.6397,11.1513,11.1513,11.1513,11.1513,11.1513,11.1513,11.1288,11.1096,11.1055,11.0903,11.0711,11.0978,11.1057,11.1173,11.1324,11.1978,11.2709,11.3481,11.4022,11.4871,11.5682,11.5989,11.6182,11.6297,11.649,11.649,11.649,11.649,11.649,11.649,11.6987,11.7635,11.8556,11.8135,11.7407,11.6907,11.649,11.649,11.649,11.649,11.6451,11.6182,11.5836,11.5335,11.4176,11.2981,11.167,11.006,10.8752,10.7829,10.6977,10.6513,10.6397,10.6397,10.6246,10.5941,10.59,10.5826,10.5515,10.5338,10.4757,10.398,10.3392,10.3274,10.3017,10.3017,10.3251,10.3369,10.3443,10.3715,10.3753,10.4369,10.4569,10.4774,10.5112,10.5556,10.5738,10.5703,10.5749,10.5823,10.5592,10.5402,10.5325,10.502,10.4602,10.4225,10.3886,10.3478,10.2809,10.2896,10.2821,10.283,10.2746,10.2633,10.2443,10.1984,10.1948,10.2484,10.2922,10.3249,10.3786,10.4235,10.4513,10.4739,10.5369,10.6003,10.6049,10.6092,10.6246,10.6359,10.6477,10.6554,10.659,10.6513,10.64,11.1513,11.1513,11.1513,11.1513,11.1513,11.1513,11.1513,11.1513,11.1513,11.1513,11.1475,11.1475,11.1475,11.1475,11.159,11.2247,11.3135,11.3714,11.4794,11.5602,11.6182,11.6374,11.6451,11.649,11.649,11.649,11.649,11.649,11.649,11.649,11.741,11.8715,11.9751,11.9943,11.9138,11.8103,11.6833,11.6682,11.649,11.649,11.649,11.6374,11.6223,11.5682,11.4833,11.3832,11.2368,11.0829,10.9252,10.8252,10.7403,10.6708,10.6551,10.6397,10.6397,10.6397,10.6313,10.6235,10.6146,10.603,10.5412,10.4796,10.4434,10.4116,10.3941,10.3687,10.3977,10.4138,10.4292,10.452,10.4748,10.5366,10.5448,10.5654,10.5802,10.6244,10.6282,10.6208,10.6208,10.6321,10.6359,10.6397,10.6397,10.6244,10.5823,10.5484,10.5107,10.4622,10.4132,10.4129,10.4129,10.4066,10.3967,10.3615,10.3467,10.3366,10.3484,10.383,10.4079,10.4252,10.4589,10.4956,10.5277,10.5564,10.5923,10.62,10.6318,10.6397,10.6385,10.6546,10.6754,10.679,10.6821,10.6856,10.6818,11.1513,11.1513,11.1513,11.1513,11.1513,11.159,11.1629,11.159,11.159,11.1629,11.167,11.1783,11.1898,11.1744,11.1706,11.2593,11.3791,11.4102,11.5063,11.5989,11.6413,11.649,11.649,11.649,11.649,11.649,11.649,11.649,11.6528,11.7028,11.8218,12.0062,12.1521,12.1523,12.0562,11.9372,11.791,11.7374,11.6872,11.6833,11.6833,11.6531,11.6413,11.6028,11.5451,11.4602,11.3368,11.2022,11.048,10.9211,10.8139,10.7326,10.6746,10.6438,10.6397,10.6372,10.6265,10.6215,10.6197,10.6076,10.6157,10.5763,10.5553,10.4749,10.4318,10.4388,10.4741,10.5023,10.5174,10.5633,10.6092,10.6131,10.6208,10.6249,10.6249,10.6359,10.6359,10.6359,10.6359,10.6397,10.6397,10.6397,10.6397,10.6359,10.64,10.6131,10.571,10.5397,10.4979,10.4656,10.4654,10.461,10.4477,10.4241,10.4246,10.4423,10.4516,10.4718,10.4859,10.5084,10.542,10.5561,10.5779,10.5962,10.6238,10.6385,10.6343,10.6382,10.6438,10.6641,10.6974,10.7092,10.7148,10.7533,10.7692,11.1513,11.1513,11.1513,11.1513,11.159,11.2093,11.2365,11.2321,11.2362,11.2632,11.3291,11.3291,11.3096,11.3253,11.3291,11.3945,11.4525,11.5028,11.5605,11.6143,11.649,11.649,11.649,11.649,11.649,11.6528,11.6528,11.6643,11.6913,11.749,11.9298,12.1183,12.2636,12.2485,12.1873,12.0875,11.9683,11.8564,11.7866,11.7407,11.7179,11.6874,11.6682,11.6297,11.5797,11.4945,11.3868,11.2519,11.1019,10.9906,10.8444,10.7518,10.7403,10.6785,10.6397,10.6387,10.626,10.6167,10.615,10.6536,10.6752,10.6896,10.7007,10.6688,10.6043,10.5636,10.582,10.6056,10.621,10.6592,10.6785,10.6785,10.6828,10.6836,10.6833,10.6831,10.6867,10.6862,10.6862,10.6862,10.6823,10.6746,10.6708,10.6556,10.6597,10.6477,10.6241,10.5962,10.5726,10.5408,10.5249,10.5208,10.5187,10.5056,10.529,10.5502,10.5473,10.5544,10.5519,10.5554,10.5703,10.589,10.6149,10.6359,10.6532,10.6423,10.6245,10.6448,10.6848,10.6997,10.7296,10.7389,10.7553,10.8037,10.8454,11.1513,11.1513,11.1513,11.167,11.2016,11.2478,11.3019,11.3558,11.3365,11.3558,11.3942,11.3942,11.3981,11.3904,11.3945,11.4371,11.5182,11.5256,11.5679,11.6297,11.649,11.649,11.649,11.649,11.649,11.6567,11.6833,11.7138,11.7602,11.9446,12.137,12.21,12.3444,12.3678,12.3296,12.2757,12.1873,12.0523,11.9325,11.8363,11.7712,11.7295,11.6951,11.6451,11.591,11.5179,11.4099,11.2788,11.1827,11.0524,10.8944,10.8521,10.8329,10.7672,10.7397,10.7445,10.7335,10.7254,10.722,10.7323,10.7487,10.7661,10.8166,10.7904,10.7691,10.7335,10.7418,10.7518,10.7477,10.7477,10.7441,10.7405,10.7418,10.747,10.7464,10.7459,10.7452,10.7441,10.7477,10.748,10.7403,10.7285,10.7172,10.6985,10.6715,10.6518,10.6397,10.628,10.6162,10.6041,10.5962,10.5923,10.5975,10.5969,10.6142,10.6039,10.5738,10.5552,10.5542,10.561,10.5848,10.6087,10.6262,10.6487,10.677,10.6783,10.6959,10.7143,10.7466,10.7644,10.7923,10.829,10.8548,10.8809,10.9192,11.1513,11.1513,11.1513,11.1939,11.2632,11.2786,11.3753,11.514,11.4525,11.4253,11.4291,11.4256,11.4368,11.4563,11.4602,11.491,11.5412,11.5605,11.5874,11.649,11.649,11.649,11.649,11.649,11.6641,11.691,11.7292,11.7789,11.8828,12.0328,12.1867,12.3018,12.4832,12.5296,12.4758,12.4024,12.3098,12.2059,12.0443,11.9138,11.8248,11.7789,11.7407,11.6643,11.622,11.58,11.4563,11.364,11.2909,11.1255,11.0062,10.9678,10.9021,10.8682,10.8587,10.8498,10.8236,10.8121,10.8045,10.8195,10.8304,10.8482,10.8661,10.8916,10.8944,10.8447,10.8313,10.8326,10.8211,10.8211,10.8213,10.8139,10.8147,10.8085,10.8052,10.8089,10.8072,10.8097,10.8148,10.8161,10.8198,10.8046,10.7908,10.7762,10.7706,10.7033,10.6836,10.6913,10.6674,10.6672,10.6556,10.6549,10.6287,10.6163,10.5963,10.5782,10.5582,10.5439,10.5359,10.5362,10.5409,10.5824,10.6297,10.6822,10.7441,10.7747,10.7936,10.7971,10.8098,10.8446,10.8797,10.9327,10.9589,10.963,10.9752,11.1513,11.1513,11.1513,11.1978,11.2747,11.3407,11.4294,11.5335,11.5759,11.5833,11.5874,11.5833,11.5836,11.5682,11.5679,11.5913,11.6028,11.6066,11.6297,11.6451,11.649,11.649,11.649,11.6528,11.6827,11.7369,11.7866,11.8527,11.9675,12.084,12.2092,12.363,12.4906,12.4989,12.5489,12.4636,12.3675,12.2982,12.1754,12.0103,11.8946,11.8058,11.7404,11.6795,11.6377,11.5992,11.4989,11.4256,11.3407,11.2211,11.0796,10.9832,10.8941,10.8898,10.88,10.8692,10.8947,10.8953,10.8971,10.9178,10.9296,10.9531,10.9831,11.0267,11.0184,10.9414,10.9013,10.9016,10.8983,10.9021,10.9016,10.8941,10.8898,10.8837,10.8737,10.8742,10.874,10.8794,10.8868,10.8923,10.8932,10.8841,10.87,10.8578,10.8491,10.8421,10.838,10.8221,10.7659,10.7418,10.7072,10.6918,10.6342,10.6106,10.5861,10.5449,10.5178,10.4932,10.4792,10.4832,10.4996,10.593,10.6845,10.7583,10.8184,10.8473,10.8542,10.8384,10.8572,10.9113,10.9392,10.9785,11.0083,11.0213,11.0303,11.1513,11.1513,11.1513,11.2209,11.325,11.3791,11.4676,11.5794,11.6336,11.6456,11.6422,11.6459,11.6487,11.6487,11.649,11.6484,11.6484,11.649,11.6451,11.6451,11.649,11.649,11.649,11.6558,11.701,11.7575,11.8531,11.9459,12.0491,12.142,12.2588,12.3763,12.4094,12.4595,12.5447,12.4793,12.3867,12.3444,12.2527,12.1257,11.9718,11.8792,11.7943,11.7333,11.6643,11.6146,11.5489,11.4756,11.4176,11.3418,11.2357,11.194,11.1404,11.1285,11.1001,11.092,11.0886,11.059,11.0471,11.0385,11.0585,11.0942,11.0917,11.1276,11.2161,11.1538,11.0929,11.0866,11.0395,11.0362,11.0237,11.0149,11.0046,10.9952,10.9842,10.9755,10.9866,10.9988,11.0022,11.0082,11.0059,10.9875,10.9634,10.9268,10.911,10.8611,10.8775,10.8913,10.848,10.8188,10.7847,10.7376,10.6819,10.6084,10.5623,10.5133,10.4655,10.4448,10.4417,10.472,10.5212,10.6394,10.7419,10.8268,10.8879,10.9076,10.9108,10.9333,10.9451,10.9964,11.0089,11.0172,11.0493,11.074,11.0616,11.1513,11.1513,11.1632,11.2555,11.3909,11.4137,11.5063,11.6294,11.647,11.6399,11.6318,11.6393,11.6442,11.6445,11.6464,11.6467,11.6473,11.6481,11.6484,11.649,11.649,11.649,11.6555,11.6654,11.7417,11.8356,11.9384,12.0188,12.1064,12.1715,12.2398,12.3505,12.4155,12.4698,12.5406,12.4947,12.3713,12.3444,12.2713,12.1831,12.0677,11.9523,11.8597,11.7753,11.699,11.6185,11.5685,11.522,11.4833,11.4288,11.3691,11.3319,11.3129,11.2852,11.2871,11.2741,11.2561,11.2568,11.2617,11.2014,11.2313,11.2534,11.2227,11.2469,11.3267,11.3244,11.2637,11.2322,11.1855,11.1393,11.127,11.0973,11.0861,11.0728,11.0589,11.055,11.0738,11.0844,11.0907,11.0975,11.0804,11.0626,11.038,10.9982,10.9615,10.9087,10.8979,10.9032,10.9068,10.8995,10.8788,10.8125,10.7434,10.663,10.5971,10.5275,10.487,10.4652,10.4763,10.4945,10.5452,10.6757,10.7957,10.9028,10.9492,10.9989,11.0534,11.0968,11.1044,11.0977,11.122,11.1334,11.1028,11.1167,11.0792,11.1513,11.1552,11.217,11.3058,11.4025,11.472,11.5605,11.6357,11.6376,11.6312,11.6253,11.6187,11.6178,11.6181,11.6294,11.6333,11.635,11.6416,11.6478,11.649,11.6638,11.6564,11.6785,11.7379,11.8256,11.9273,12.0236,12.093,12.1213,12.1505,12.1991,12.2926,12.291,12.3454,12.4198,12.3698,12.3231,12.3038,12.2633,12.1757,12.1183,12.0026,11.8712,11.783,11.6948,11.6528,11.6146,11.5605,11.5294,11.4873,11.4358,11.402,11.3908,11.3878,11.3747,11.3795,11.3689,11.3537,11.3305,11.2912,11.3082,11.3102,11.2798,11.2815,11.3394,11.3686,11.3314,11.3329,11.2828,11.2041,11.1691,11.1027,11.0772,11.0576,11.0422,11.0689,11.0906,11.0945,11.0938,11.0929,11.0839,11.0741,11.0687,11.0485,11.0518,11.0201,11.0328,11.0317,10.9963,10.983,10.9692,10.9046,10.8266,10.7858,10.7449,10.6126,10.5546,10.5253,10.5215,10.566,10.6306,10.7249,10.8401,10.9697,11.0627,11.1232,11.1804,11.2,11.2267,11.2224,11.2609,11.2638,11.213,11.1676,11.1387]},{"header":{"parameterUnit":"m.s-1","parameterCategory":1,"la1":31.0,"la2":29.5877,"lo1":-88.7671,"lo2":-86.6584,"dx":0.0162,"dy":0.0185,"nx":115,"ny":88,"refTime":"2023-02-02T18:00:00:Z","depth":0,"parameterNumber":3,"parameterNumberName":"V-component_of_WINDS"},"data":[0.0,0.0,0.0,0.0,0.0,0.0,0.0,0.0,0.0,0.0,0.0,0.0,0.0,0.0,0.0,0.0,0.0,0.0,0.0,0.0,0.0,0.0,0.0,0.0,0.0,0.0,0.0,0.0,0.0,0.0,0.0,0.0,0.0,0.0,0.0,0.0,0.0,0.0,0.0,0.0,0.0,0.0,0.0,0.0,0.0,0.0,0.0,0.0,0.0,0.0,0.0,0.0,0.0,0.0,0.0,0.0,0.0,0.0,0.0,0.0,0.0,0.0,0.0,0.0,0.0,0.0,0.0,0.0,0.0,0.0,0.0,0.0,0.0,0.0,0.0,0.0,0.0,0.0,0.0,0.0,0.0,0.0,0.0,0.0,0.0,0.0,0.0,0.0,0.0,0.0,0.0,0.0,0.0,0.0,0.0,0.0,0.0,0.0,0.0,0.0,0.0,0.0,0.0,0.0,0.0,0.0,0.0,0.0,0.0,0.0,0.0,0.0,0.0,0.0,0.0,0.0,0.0,0.0,0.0,0.0,0.0,0.0,0.0,0.0,0.0,0.0,0.0,0.0,0.0,0.0,0.0,0.0,0.0,0.0,0.0,0.0,0.0,0.0,0.0,0.0,0.0,0.0,0.0,0.0,0.0,0.0,0.0,0.0,0.0,0.0,0.0,0.0,0.0,0.0,0.0,0.0,0.0,0.0,0.0,0.0,0.0,0.0,0.0,0.0,0.0,0.0,0.0,0.0,0.0,0.0,0.0,0.0,0.0,0.0,0.0,0.0,0.0,0.0,0.0,0.0,0.0,0.0,0.0,0.0,0.0,0.0,0.0,0.0,0.0,0.0,0.0,0.0,0.0,0.0,0.0,0.0,0.0,0.0,0.0,0.0,0.0,0.0,0.0,0.0,0.0,0.0,0.0,0.0,0.0,0.0,0.0,0.0,0.0,0.0,0.0,0.0,0.0,0.0,0.0,0.0,0.0,0.0,0.0,0.0,0.0,0.0,0.0,0.0,0.0,0.0,0.0,0.0,0.0,0.0,0.0,0.0,0.0,0.0,0.0,0.0,0.0,0.0,0.0,0.0,0.0,0.0,0.0,0.0,0.0,0.0,0.0,0.0,0.0,0.0,0.0,0.0,0.0,0.0,0.0,0.0,0.0,0.0,0.0,0.0,0.0,0.0,0.0,0.0,0.0,0.0,0.0,0.0,0.0,0.0,0.0,0.0,0.0,0.0,0.0,0.0,0.0,0.0,0.0,0.0,0.0,0.0,0.0,0.0,0.0,0.0,0.0,0.0,0.0,0.0,0.0,0.0,0.0,0.0,0.0,0.0,0.0,0.0,0.0,0.0,0.0,0.0,0.0,0.0,0.0,0.0,0.0,0.0,0.0,0.0,0.0,0.0,0.0,0.0,0.0,0.0,0.0,0.0,0.0,0.0,0.0,0.0,0.0,0.0,0.0,0.0,0.0,0.0,0.0,0.0,0.0,0.0,0.0,0.0,0.0,0.0,0.0,0.0,0.0,0.0,0.0,0.0,0.0,0.0,0.0,0.0,0.0,0.0,0.0,0.0,0.0,0.0,0.0,0.0,0.0,0.0,0.0,0.0,0.0,0.0,0.0,0.0,0.0,0.0,0.0,0.0,0.0,0.0,0.0,0.0,0.0,0.0,0.0,0.0,0.0,0.0,0.0,0.0,0.0,0.0,0.0,0.0,0.0,0.0,0.0,0.0,0.0,0.0,0.0,0.0,0.0,0.0,0.0,0.0,0.0,0.0,0.0,0.0,0.0,0.0,0.0,0.0,0.0,0.0,0.0,0.0,0.0,0.0,0.0,0.0,0.0,0.0,0.0,0.0,0.0,0.0,0.0,0.0,0.0,0.0,0.0,0.0,0.0,0.0,0.0,0.0,0.0,0.0,0.0,0.0,0.0,0.0,0.0,0.0,0.0,0.0,0.0,0.0,0.0,0.0,0.0,0.0,0.0,0.0,0.0,0.0,0.0,0.0,0.0,0.0,0.0,0.0,0.0,0.0,0.0,0.0,0.0,0.0,0.0,0.0,0.0,0.0,0.0,0.0,0.0,0.0,0.0,0.0,0.0,0.0,0.0,0.0,0.0,0.0,0.0,0.0,0.0,0.0,0.0,0.0,0.0,0.0,0.0,0.0,0.0,0.0,0.0,0.0,0.0,0.0,0.0,0.0,0.0,0.0,0.0,0.0,0.0,0.0,0.0,0.0,0.0,0.0,0.0,0.0,0.0,0.0,0.0,0.0,0.0,0.0,0.0,0.0,0.0,0.0,0.0,0.0,0.0,0.0,0.0,0.0,0.0,0.0,0.0,0.0,0.0,0.0,0.0,0.0,0.0,0.0,0.0,0.0,0.0,0.0,0.0,0.0,0.0,0.0,0.0,0.0,0.0,0.0,0.0,0.0,0.0,0.0,0.0,0.0,0.0,0.0,0.0,0.0,0.0,0.0,0.0,0.0,0.0,0.0,0.0,0.0,0.0,0.0,0.0,0.0,0.0,0.0,0.0,0.0,0.0,0.0,0.0,0.0,0.0,0.0,0.0,0.0,0.0,0.0,0.0,0.0,0.0,0.0,0.0,0.0,0.0,0.0,0.0,0.0,0.0,0.0,0.0,0.0,0.0,0.0,0.0,0.0,0.0,0.0,0.0,0.0,0.0,0.0,0.0,0.0,0.0,0.0,0.0,0.0,0.0,0.0,0.0,0.0,0.0,0.0,0.0,0.0,0.0,0.0,0.0,0.0,0.0,0.0,0.0,0.0,0.0,0.0,0.0,0.0,0.0,0.0,0.0,0.0,0.0,0.0,0.0,0.0,0.0,0.0,0.0,0.0,0.0,0.0,0.0,0.0,0.0,0.0,0.0,0.0,0.0,0.0,0.0,0.0,0.0,0.0,0.0,0.0,0.0,0.0,0.0,0.0,0.0,0.0,0.0,0.0,0.0,0.0,0.0,0.0,0.0,0.0,0.0,0.0,0.0,0.0,0.0,0.0,0.0,0.0,0.0,0.0,0.0,0.0,0.0,0.0,0.0,0.0,0.0,0.0,0.0,0.0,0.0,0.0,0.0,0.0,0.0,0.0,0.0,0.0,0.0,0.0,0.0,0.0,0.0,0.0,0.0,0.0,0.0,0.0,0.0,0.0,0.0,0.0,0.0,0.0,0.0,0.0,0.0,0.0,0.0,0.0,0.0,0.0,0.0,0.0,0.0,0.0,0.0,0.0,0.0,0.0,0.0,0.0,0.0,0.0,0.0,0.0,0.0,0.0,0.0,0.0,0.0,0.0,0.0,0.0,0.0,0.0,0.0,0.0,0.0,0.0,0.0,0.0,0.0,0.0,0.0,0.0,0.0,0.0,0.0,0.0,0.0,0.0,0.0,0.0,0.0,0.0,0.0,0.0,0.0,0.0,0.0,0.0,0.0,0.0,0.0,0.0,0.0,0.0,0.0,0.0,0.0,0.0,0.0,0.0,0.0,0.0,0.0,0.0,0.0,0.0,0.0,0.0,0.0,0.0,0.0,0.0,0.0,0.0,0.0,0.0,0.0,0.0,0.0,0.0,0.0,0.0,0.0,0.0,0.0,0.0,0.0,0.0,0.0,0.0,0.0,0.0,0.0,0.0,0.0,0.0,0.0,0.0,0.0,0.0,0.0,0.0,0.0,0.0,0.0,0.0,0.0,0.0,0.0,0.0,0.0,0.0,0.0,0.0,0.0,0.0,0.0,0.0,0.0,0.0,0.0,0.0,0.0,0.0,0.0,0.0,0.0,0.0,0.0,0.0,0.0,0.0,0.0,0.0,0.0,0.0,0.0,0.0,0.0,0.0,0.0,0.0,0.0,0.0,0.0,0.0,0.0,0.0,0.0,0.0,0.0,0.0,0.0,0.0,0.0,0.0,0.0,0.0,0.0,0.0,0.0,0.0,0.0,0.0,0.0,0.0,0.0,0.0,0.0,0.0,0.0,0.0,0.0,0.0,0.0,0.0,0.0,0.0,0.0,0.0,0.0,0.0,0.0,0.0,0.0,0.0,0.0,0.0,0.0,0.0,0.0,0.0,0.0,0.0,0.0,0.0,0.0,0.0,0.0,0.0,0.0,0.0,0.0,0.0,0.0,0.0,0.0,0.0,0.0,0.0,0.0,0.0,0.0,0.0,0.0,0.0,0.0,0.0,0.0,0.0,0.0,0.0,0.0,0.0,0.0,0.0,0.0,0.0,0.0,0.0,0.0,0.0,0.0,0.0,0.0,0.0,0.0,0.0,0.2274,0.0,0.0,0.0,0.0,0.0,0.0,0.0,0.0,0.0,0.0,0.0,0.0,0.0,0.0,0.0,0.0,0.0,0.0,0.0,0.0,0.0,0.0,0.0,0.0,0.0,0.0,0.0,0.0,0.0,0.0,0.0,0.0,0.0,0.0,0.0,0.0,0.0,0.0,0.0,0.0,0.0,0.0,0.0,0.0,0.0,0.0,0.0,0.0,0.0,0.0,0.0,0.0,0.0,0.0,0.0,0.0,0.0,0.0,0.0,0.0,0.0,0.0,0.0,0.0,0.0,0.0,0.0,0.0,0.0,0.0,0.0,0.0,0.0,0.0,0.0,0.0,0.0,0.0,0.0,0.0,0.0,0.0,0.0,0.0,0.0,0.0,0.0,0.0,0.0,0.0,0.0,0.0,0.0,0.0,0.0,0.0,0.0,0.0,0.0,0.0,0.0,0.0,0.0,0.0,0.0,0.0,0.0,0.0,0.0,0.0,0.2287,0.2287,0.2287,0.2291,0.2262,0.0,0.0,0.0,0.0,0.0,0.0,0.0,0.0,0.0,0.0,0.0,0.0,0.0,0.0,0.0,0.0,0.0,0.0,0.0,0.0,0.0,0.0,0.0,0.0,0.0,0.0,0.0,0.0,0.0,0.0,0.0,0.0,0.0,0.0,0.0,0.0,0.0,0.0,0.0,0.0,0.0,0.0,0.0,0.0,0.0,0.0,0.0,0.0,0.0,0.0,0.0,0.0,0.0,0.0,0.0,0.0,0.0,0.0,0.0,0.0,0.0,0.0,0.0,0.0,0.0,0.0,0.0,0.0,0.0,0.0,0.0,0.0,0.0,0.0,0.0,0.0,0.0,0.0,0.0,0.0,0.0,0.0,0.0,0.0,0.0,0.0,0.0,0.0,0.0,0.0,0.0,0.0,0.0,0.0,0.0,0.0,0.0,0.0,0.0,0.0,0.0,0.0,0.0,0.0,0.0,0.0,0.0,0.0,0.0,0.0,0.0,0.0,0.2287,0.2225,0.2026,0.0,0.0,0.0,0.0,0.0,0.0,0.0,0.0,0.0,0.0,0.0,0.0,0.0,0.0,0.0,0.0,0.0,0.0,0.0,0.0,0.0,0.0,0.0,0.0,0.0,0.0,0.0,0.0,0.0,0.0,0.0,0.0,0.0,0.0,0.0,0.0,0.0,0.0,0.0,0.0,0.0,0.0,0.0,0.0,0.0,0.0,0.0,0.0,0.0,0.0,0.0,0.0,0.0,0.0,0.0,0.0,0.0,0.0,0.0,0.0,0.0,0.0,0.0,0.0,0.0,0.0,0.0,0.0,0.0,0.0,0.0,0.0,0.0,0.0,0.0,0.0,0.0,0.0,0.0,0.0,0.0,0.0,0.0,0.0,0.0,0.0,0.0,0.0,0.0,0.0,0.0,0.0,0.0,0.0,0.0,0.0,0.0,0.0,0.0,0.0,0.0,0.0,0.0,0.0,0.0,0.0,0.0,0.0,0.0,0.0,0.2293,0.2287,0.2287,0.0,0.138,0.0,0.0,0.0,0.0,0.0,0.0,0.0,0.0,0.0,0.0,0.0,0.0,0.0,0.0,0.0,0.0,0.0,0.0,0.0,0.0,0.0,0.0,0.0,0.0,0.0,0.0,0.0,0.0,0.0,0.0,0.0,0.0,0.0,0.0,0.0,0.0,0.0,0.0,0.0,0.0,0.0,0.0,0.0,0.0,0.0,0.0,0.0,0.0,0.0,0.0,0.0,0.0,0.0,0.0,0.0,0.0,0.0,0.0,0.0,0.0,0.0,0.0,0.0,0.0,0.0,0.0,0.0,0.0,0.0,0.0,0.0,0.0,0.0,0.0,0.0,0.0,0.0,0.0,0.0,0.0,0.0,0.0,0.0,0.0,0.0,0.0,0.0,0.0,0.0,0.0,0.0,0.0,0.0,0.0,0.0,0.0,0.0,0.0,0.0,0.0,0.0,0.0,0.0,0.0,0.0,0.0,0.0,0.0,0.0,0.0,0.2291,0.2289,0.2262,0.191,0.0,0.0,0.0,0.0,0.0,0.0,0.0,0.0,0.0,0.0,0.0,0.0,0.0,0.0,0.0,0.0,0.0,0.0,0.0,0.0,0.0,0.0,0.0,0.0,0.0,0.0,0.0,0.0,0.0,0.0,0.0,0.0,0.0,0.0,0.0,0.0,0.0,0.0,0.0,0.0,0.0,0.0,0.0,0.0,0.0,0.0,0.0,0.0,0.0,0.0,0.0,0.0,0.0,0.0,0.0,0.0,0.0,0.0,0.0,0.0,0.0,0.0,0.0,0.0,0.0,0.0,0.0,0.0,0.0,0.0,0.0,0.0,0.0,0.0,0.0,0.0,0.0,0.0,0.0,0.0,0.0,0.0,0.0,0.0,0.0,0.0,0.0,0.0,0.0,0.0,0.0,0.0,0.0,0.0,0.0,0.0,0.0,0.0,0.0,0.0,0.0,0.0,0.0,0.0,0.0,0.0,0.0,0.0,0.0,0.0,0.2258,0.2292,0.2285,0.2248,0.194,0.1307,0.0,0.0,0.0,0.0,0.0,0.0,0.0,0.0,0.0,0.0,0.0,0.0,0.0,0.0,0.0,0.0,0.0,0.0,0.0,0.0,0.0,0.0,0.0,0.0,0.0,0.0,0.0,0.0,0.0,0.0,0.0,0.0,0.0,0.0,0.0,0.0,0.0,0.0,0.0,0.0,0.0,0.0,0.0,0.0,0.0,0.0,0.0,0.0,0.0,0.0,0.0,0.0,0.0,0.0,0.0,0.0,0.0,0.0,0.0,0.0,0.0,0.0,0.0,0.0,0.0,0.0,0.0,0.0,0.0,0.0,0.0,0.0,0.0,0.0,0.0,0.0,0.0,0.0,0.0,0.0,0.0,0.0,0.0,0.0,0.0,0.0,0.0,0.0,0.0,0.0,0.0,0.0,0.0,0.0,0.0,0.0,0.0,0.0,0.0,0.0,0.0,0.0,0.0,0.0,0.0,0.0,0.0,0.0,0.0,0.2258,0.2293,0.2287,0.2292,0.2048,0.0,0.0,0.0,0.0,0.0,0.0,0.0,0.0,0.0,0.0,0.0,0.0,0.0,0.0,0.0,0.0,0.0,0.0,0.0,0.0,0.0,0.0,0.0,0.0,0.0,0.0,0.0,0.0,0.0,0.0,0.0,0.0,0.0,0.0,0.0,0.0,0.0,0.0,0.0,0.0,0.0,0.0,0.0,0.0,0.0,0.0,0.0,0.0,0.0,0.0,0.0,0.0,0.0,0.0,0.0,0.0,0.0,0.0,0.0,0.0,0.0,0.0,0.0,0.0,0.0,0.0,0.0,0.0,0.0,0.0,0.0,0.0,0.0,0.0,0.0,0.0,0.0,0.0,0.0,0.0,0.0,0.0,0.0,0.0,0.0,0.0,0.0,0.0,0.0,0.0,0.0,0.0,0.0,0.0,0.0,0.0,0.0,0.0,0.0,0.0,0.0,0.0,0.0,0.0,0.0,0.0,0.0,0.0,0.0,0.226,0.2286,0.2292,0.2292,0.2292,0.2209,0.0,0.0,0.0,0.0,0.0,0.0,0.0,0.0,0.0,0.0,0.0,0.0,0.0,0.0,0.0,0.0,0.0,0.0,0.0,0.0,0.0,0.0,0.0,0.0,0.0,0.0,0.0,0.0,0.0,0.0,0.0,0.0,0.0,0.0,0.0,0.0,0.0,0.0,0.0,0.0,0.0,0.0,0.0,0.0,0.0,0.0,0.0,0.0,0.0,0.0,0.0,0.0,0.0,0.0,0.0,0.0,0.0,0.0,0.0,0.0,0.0,0.0,0.0,0.0,0.0,0.0,0.0,0.0,0.0,0.0,0.0,0.0,0.0,0.0,0.0,0.0,0.0,0.0,0.0,0.0,0.0,0.0,0.0,0.0,0.0,0.0,0.0,0.0,0.0,0.0,0.0,0.0,0.0,0.0,0.0,0.0,0.0,0.0,0.0,0.0,0.0,0.0,0.0,0.0,0.0,0.0,0.0,0.0,0.0,0.2329,0.0,0.2338,0.2338,0.2338,0.2316,0.0,0.0,0.0,0.0,0.0,0.0,0.0,0.0,0.0,0.0,0.0,0.0,0.0,0.0,0.0,0.0,0.0,0.0,0.0,0.0,0.0,0.0,0.0,0.0,0.0,0.0,0.0,0.0,0.0,0.0,0.0,0.0,0.0,0.0,0.0,0.0,0.0,0.0,0.0,0.0,0.0,0.0,0.0,0.0,0.0,0.0,0.0,0.0,0.0,0.0,0.0,0.0,0.0,0.0,0.0,0.0,0.0,0.0,0.0,0.0,0.0,0.0,0.0,0.0,0.0,0.0,0.0,0.0,0.0,0.0,0.0,0.0,0.0,0.0,0.0,0.0,0.0,0.0,0.0,0.0,0.0,0.0,0.0,0.0,0.0,0.0,0.0,0.0,0.0,0.0,0.0,0.0,0.0,0.0,0.0,0.0,0.0,0.0,0.0,0.0,0.0,0.0,0.0,0.0,0.0,0.0,0.0,0.0,0.2323,0.2396,0.2407,0.2399,0.2407,0.2397,0.2373,0.0,0.0,0.0,0.0,0.0,0.0,0.0,0.0,0.0,0.0,0.0,0.0,0.0,0.0,0.0,0.0,0.0,0.0,0.0,0.0,0.0,0.0,0.0,0.0,0.0,0.0,0.0,0.0,0.0,0.0,0.0,0.0,0.0,0.0,0.0,0.0,0.0,0.0,0.0,0.0,0.0,0.0,0.0,0.0,0.0,0.0,0.0,0.0,0.0,0.0,0.0,0.0,0.0,0.0,0.0,0.0,0.0,0.0,0.0,0.0,0.0,0.0,0.0,0.0,0.0,0.0,0.0,0.0,0.0,0.0,0.0,0.0,0.0,0.0,0.0,0.0,0.0,0.0,0.0,0.0,0.0,0.0,0.0,0.0,0.0,0.0,0.0,0.0,0.0,0.0,0.0,0.0,0.0,0.0,0.0,0.0,0.0,0.0,0.0,0.0,0.0,0.0,0.0,0.0,0.0,0.0,0.0,0.0,0.0,0.247,0.2469,0.247,0.2469,0.242,0.2377,0.0,0.0,0.0,0.0,0.0,0.0,0.0,0.0,0.0,0.0,0.0,0.0,0.0,0.0,0.0,0.0,0.0,0.0,0.0,0.0,0.0,0.0,0.0,0.0,0.0,0.0,0.0,0.0,0.0,0.0,0.0,0.0,0.0,0.0,0.0,0.0,0.0,0.0,0.0,0.0,0.0,0.0,0.0,0.0,0.0,0.0,0.0,0.0,0.0,0.0,0.0,0.0,0.0,0.0,0.0,0.0,0.0,0.0,0.0,0.0,0.0,0.0,0.0,0.0,0.0,0.0,0.0,0.0,0.0,0.0,0.0,0.0,0.0,0.0,0.0,0.0,0.0,0.0,0.0,0.0,0.0,0.0,0.0,0.0,0.0,0.0,0.0,0.0,0.0,0.0,0.0,0.0,0.0,0.0,0.0,0.0,0.0,0.0,0.0,0.0,0.0,0.0,0.0,0.0,0.0,0.0,0.0,0.0,0.0,0.3148,0.2783,0.2566,0.2536,0.2506,0.244,0.2407,0.0,0.0,0.0,0.0,0.0,0.0,0.0,0.0,0.0,0.0,0.0,0.0,0.0,0.0,0.0,0.0,0.0,0.0,0.0,0.0,0.0,0.0,0.0,0.0,0.0,0.0,0.0,0.0,0.0,0.0,0.0,0.0,0.0,0.0,0.0,0.0,0.0,0.0,0.0,0.0,0.0,0.0,0.0,0.0,0.0,0.0,0.0,0.0,0.0,0.0,0.0,0.0,0.0,0.0,0.0,0.0,0.0,0.0,0.0,0.0,0.0,0.0,0.0,0.0,0.0,0.0,0.0,0.0,0.0,0.0,0.0,0.0,0.0,0.0,0.0,0.0,0.0,0.0,0.0,0.0,0.0,0.0,0.0,0.0,0.0,0.0,0.0,0.0,0.0,0.0,0.0,0.0,0.0,0.0,0.0,0.0,0.0,0.0,0.0,0.0,0.0,0.0,0.0,0.0,0.0,0.0,0.0,0.0,0.4357,0.3343,0.2774,0.267,0.2637,0.2535,0.0,0.0,0.0,0.0,0.0,0.0,0.0,0.0,0.0,0.0,0.0,0.0,0.0,0.0,0.0,0.0,0.0,0.0,0.0,0.0,0.0,0.0,0.0,0.0,0.0,0.0,0.0,0.0,0.0,0.0,0.0,0.0,0.0,0.0,0.0,0.0,0.0,0.0,0.0,0.0,0.0,0.0,0.0,0.0,0.0,0.0,0.0,0.0,0.0,0.0,0.0,0.0,0.0,0.0,0.0,0.0,0.0,0.0,0.0,0.0,0.0,0.0,0.0,0.0,0.0,0.0,0.0,0.0,0.0,0.0,0.0,0.0,0.0,0.0,0.0,0.0,0.0,0.0,0.0,0.0,0.0,0.0,0.0,0.0,0.0,0.0,0.0,0.0,0.0,0.0,0.0,0.0,0.0,0.0,0.0,0.0,0.0,0.0,0.0,0.0,0.0,0.0,0.0,0.0,0.0,0.0,0.0,0.0,0.0,0.4932,0.45,0.3984,0.3423,0.2945,0.2625,0.0,0.0,0.0,0.0,0.0,0.0,0.0,0.0,0.0,0.0,0.0,0.0,0.0,0.0,0.0,0.0,0.0,0.0,0.0,0.0,0.0,0.0,0.0,0.0,0.0,0.0,0.0,0.0,0.0,0.0,0.0,0.0,0.0,0.0,0.0,0.0,0.0,0.0,0.0,0.0,0.0,0.0,0.0,0.0,0.0,0.0,0.0,0.0,0.0,0.0,0.0,0.0,0.0,0.0,0.0,0.0,0.0,0.0,0.0,0.0,0.0,0.0,0.0,0.0,0.0,0.0,0.0,0.0,0.0,0.0,0.0,0.0,0.0,0.0,0.0,0.0,0.0,0.0,0.0,0.0,0.0,0.0,0.0,0.0,0.0,0.0,0.0,0.0,0.0,0.0,0.0,0.0,0.0,0.0,0.0,0.0,0.0,0.0,0.0,0.0,0.0,0.0,0.0,0.0,0.0,0.0,0.0,0.0,0.6209,0.6654,0.6119,0.5458,0.4636,0.3435,0.2731,0.0,0.0,0.0,0.0,0.0,0.0,0.0,0.0,0.0,0.0,0.0,0.0,0.0,0.0,0.0,0.0,0.0,0.0,0.0,0.0,0.0,0.0,0.0,0.0,0.0,0.0,0.0,0.0,0.0,0.0,0.0,0.0,0.0,0.0,0.0,0.0,0.0,0.0,0.0,0.0,0.0,0.0,0.0,0.0,0.0,0.0,0.0,0.0,0.0,0.0,0.0,0.0,0.0,0.0,0.0,0.0,0.0,0.0,0.0,0.0,0.0,0.0,0.0,0.0,0.0,0.0,0.0,0.0,0.0,0.0,0.0,0.0,0.0,0.0,0.0,0.0,0.0,0.0,0.0,0.0,0.0,0.0,0.0,0.0,0.0,0.0,0.0,0.0,0.0,0.0,0.0,0.0,0.0,0.0,0.0,0.0,0.0,0.0,0.0,0.0,0.0,0.0,0.0,0.0,0.0,0.0,0.0,0.0,0.7977,0.8825,0.7927,0.6945,0.5986,0.404,0.2883,0.0,0.0,0.0,0.0,0.0,0.0,0.0,0.0,0.0,0.0,0.0,0.0,0.0,0.0,0.0,0.0,0.0,0.0,0.0,0.0,0.0,0.0,0.0,0.0,0.0,0.0,0.0,0.0,0.0,0.0,0.0,0.0,0.0,0.0,0.0,0.0,0.0,0.0,0.0,0.0,0.0,0.0,0.0,0.0,0.0,0.0,0.0,0.0,0.0,0.0,0.0,0.0,0.0,0.0,0.0,0.0,0.0,0.0,0.0,0.0,0.0,0.0,0.0,0.0,0.0,0.0,0.0,0.0,0.0,0.0,0.0,0.0,0.0,0.0,0.0,0.0,0.0,0.0,0.0,0.0,0.0,0.0,0.0,0.0,0.0,0.0,0.0,0.0,0.0,0.0,0.0,0.0,0.0,0.0,0.0,0.0,0.0,0.0,0.0,0.0,0.0,0.0,0.0,0.0,0.0,0.0,0.0,0.0,0.9553,0.9925,0.8791,0.7634,0.6535,0.4679,0.3423,0.0,0.0,0.0,0.0,0.0,0.0,0.0,0.0,0.0,0.0,0.0,0.0,0.0,0.0,0.0,0.0,0.0,0.0,0.0,0.0,0.0,0.0,0.0,0.0,0.0,0.0,0.0,0.0,0.0,0.0,0.0,0.0,0.0,0.0,0.0,0.0,0.0,0.0,0.0,0.0,0.0,0.0,0.0,0.0,0.0,0.0,0.0,0.0,0.3251,0.0,0.0,0.0,0.0,0.0,0.0,0.0,0.0,0.0,0.0,0.0,0.0,0.0,0.0,0.0,0.0,0.0,0.0,0.0,0.0,0.0,0.0,0.0,0.0,0.0,0.0,0.0,0.0,0.0,0.0,0.0,0.0,0.0,0.0,0.0,0.0,0.0,0.0,0.0,0.0,0.0,0.0,0.0,0.0,0.0,0.0,0.0,0.0,0.0,0.0,0.0,0.0,0.0,0.0,0.0,0.0,0.0,0.0,0.0,1.1102,1.1259,1.0394,0.9078,0.7218,0.5586,0.4159,0.0,0.0,0.0,0.0,0.0,0.0,0.0,0.0,0.0,0.0,0.0,0.0,0.0,0.0,0.0,0.0,0.0,0.0,0.0,0.0,0.0,0.0,0.0,0.0,0.0,0.0,0.0,0.0,0.0,0.0,0.0,0.0,0.0,0.0,0.0,0.0,0.0,0.0,0.0,0.0,0.0,0.0,0.0,0.0,0.0,0.0,0.0,0.0,0.0,0.0,0.0,0.0,0.0,0.0,0.0,0.0,0.0,0.0,0.0,0.0,0.0,0.0,0.0,0.0,0.0,0.0,0.0,0.0,0.0,0.0,0.0,0.0,0.0,0.0,0.0,0.0,0.0,0.0,0.0,0.0,0.0,0.0,0.0,0.0,0.0,0.0,0.0,0.0,0.0,0.0,0.0,0.0,0.0,0.0,0.0,0.0,0.0,0.0,0.0,0.0,0.0,0.0,0.0,0.0,0.0,0.0,0.0,1.1714,1.2532,1.2605,1.2039,1.0465,0.7885,0.6428,0.4828,0.3006,0.0,0.0,0.0,0.0,0.0,0.0,0.0,0.0,0.0,0.0,0.0,0.0,0.0,0.0,0.0,0.0,0.0,0.0,0.0,0.0,0.0,0.0,0.0,0.0,0.0,0.0,0.0,0.0,0.0,0.0,0.0,0.0,0.0,0.0,0.0,0.0,0.0,0.0,0.2557,0.2751,0.0,0.0,0.0,0.0,0.0,0.0,0.0,0.0,0.5303,0.0,0.0,0.0,0.0,0.0,0.0,0.0,0.0,0.0,0.0,0.0,0.0,0.0,0.0,0.0,0.0,0.0,0.0,0.0,0.0,0.0,0.0,0.0,0.0,0.0,0.0,0.0,0.0,0.0,0.0,0.0,0.0,0.0,0.0,0.0,0.0,0.0,0.0,0.0,0.0,0.0,0.0,0.0,0.0,0.0,0.0,0.0,0.0,0.0,0.0,0.0,0.0,0.0,0.0,0.0,0.0,1.1242,1.2657,1.3469,1.3619,1.249,1.0726,0.8355,0.6606,0.4847,0.3098,0.0,0.0,0.0,0.0,0.0,0.0,0.0,0.0,0.0,0.0,0.0,0.0,0.0,0.0,0.0,0.0,0.0,0.0,0.0,0.0,0.0,0.0,0.0,0.0,0.0,0.0,0.0,0.0,0.0,0.0,0.0,0.0,0.0,0.0,0.0,0.0,0.0,0.0,0.0,0.2873,0.2897,0.0,0.0,0.0,0.0,0.0,0.0,0.0,0.0,0.5963,0.0,0.0,0.0,0.0,0.0,0.0,0.0,0.0,0.0,0.0,0.0,0.0,0.0,0.0,0.0,0.0,0.0,0.0,0.0,0.0,0.0,0.0,0.0,0.0,0.0,0.0,0.0,0.0,0.0,0.0,0.0,0.0,0.0,0.0,0.0,0.0,0.0,0.0,0.0,0.0,0.0,0.0,0.0,0.0,0.0,0.0,0.0,0.0,0.0,0.0,0.0,0.0,0.0,0.0,0.0,1.2372,1.3673,1.4247,1.3948,1.3178,1.139,0.8493,0.6957,0.5179,0.0,0.0,0.0,0.0,0.0,0.0,0.0,0.0,0.0,0.0,0.0,0.0,0.0,0.0,0.0,0.0,0.0,0.0,0.0,0.0,0.0,0.0,0.0,0.0,0.0,0.0,0.0,0.0,0.0,0.0,0.0,0.0,0.0,0.0,0.0,0.0,0.0,0.0,0.0,0.0,0.2903,0.2993,0.2996,0.0,0.0,0.0,0.0,0.0,0.0,0.8522,0.765,0.0,0.0,0.0,0.0,0.0,0.0,0.0,0.0,0.0,0.0,0.0,0.0,0.0,0.0,0.0,0.0,0.0,0.0,0.0,0.0,0.0,0.0,0.0,0.0,0.0,0.0,0.0,0.0,0.0,0.0,0.0,0.0,0.0,0.0,0.0,0.0,0.0,0.0,0.0,0.0,0.0,0.0,0.0,0.0,0.0,0.0,0.0,0.0,0.0,0.0,0.0,0.0,0.0,0.0,0.0,1.338,1.4544,1.4825,1.4229,1.3822,1.1941,0.8532,0.7211,0.5459,0.0,0.0,0.0,0.0,0.0,0.0,0.0,0.0,0.0,0.0,0.0,0.0,0.0,0.0,0.0,0.0,0.0,0.0,0.0,0.0,0.0,0.0,0.0,0.0,0.0,0.0,0.0,0.0,0.0,0.0,0.0,0.0,0.0,0.0,0.0,0.0,0.0,0.0,0.0,0.0,0.0,0.3111,0.3117,0.3014,0.0,0.0,0.0,0.0,1.0783,1.009,0.0,0.0,0.0,0.0,0.0,0.0,0.0,0.0,0.0,0.0,0.0,0.0,0.0,0.0,0.0,0.0,0.0,0.0,0.0,0.0,0.0,0.0,0.0,0.0,0.0,0.0,0.0,0.0,0.0,0.0,0.0,0.0,0.0,0.0,0.0,0.0,0.0,0.0,0.0,0.0,0.0,0.0,0.0,0.0,0.0,0.0,0.0,0.0,0.0,0.0,0.0,0.0,0.0,0.0,0.0,0.0,1.4303,1.4945,1.517,1.4947,1.4077,1.1941,0.8506,0.7168,0.5411,0.0,0.0,0.0,0.0,0.0,0.0,0.0,0.0,0.0,0.0,0.0,0.0,0.0,0.0,0.0,0.0,0.0,0.0,0.0,0.0,0.0,0.0,0.0,0.0,0.0,0.0,0.0,0.0,0.0,0.0,0.0,0.0,0.0,0.0,0.0,0.0,0.0,0.0,0.0,0.0,0.0,0.3111,0.318,0.3115,0.37,0.0,0.0,1.0839,1.2677,1.1293,0.0,0.0,0.0,0.0,0.0,0.0,0.0,0.0,0.0,0.0,0.0,0.0,0.0,0.0,0.0,0.0,0.0,0.0,0.0,0.0,0.0,0.0,0.0,0.0,0.0,0.0,0.0,0.0,0.0,0.0,0.0,0.0,0.0,0.0,0.0,0.0,0.0,0.0,0.0,0.0,0.0,0.0,0.0,0.0,0.0,0.0,0.0,0.0,0.0,0.0,0.0,0.0,0.0,0.0,0.0,1.3781,1.4874,1.5472,1.553,1.5094,1.4114,1.1928,0.8497,0.7197,0.5442,0.0,0.0,0.0,0.0,0.0,0.0,0.0,0.0,0.0,0.0,0.0,0.0,0.0,0.0,0.0,0.0,0.0,0.0,0.0,0.0,0.0,0.0,0.0,0.0,0.0,0.0,0.0,0.0,0.0,0.0,0.0,0.0,0.0,0.0,0.0,0.0,0.0,0.0,0.0,0.0,0.0,0.0,0.3178,0.3174,0.0,0.0,0.0,1.1324,1.3439,0.0,0.0,0.0,0.0,0.0,0.0,0.0,0.0,0.0,0.0,0.0,0.0,0.0,0.0,0.0,0.0,0.0,0.0,0.0,0.0,0.0,0.0,0.0,0.0,0.0,0.0,0.0,0.0,0.0,0.0,0.0,0.0,0.0,0.0,0.0,0.0,0.0,0.0,0.0,0.0,0.0,0.0,0.0,0.0,0.0,0.0,0.0,0.0,0.0,0.0,0.0,0.0,0.0,0.0,0.0,0.0,0.0,1.5294,1.5843,1.5796,1.515,1.4139,1.1941,0.8523,0.7209,0.0,0.0,0.0,0.0,0.0,0.0,0.0,0.0,0.0,0.0,0.0,0.0,0.0,0.0,0.0,0.0,0.0,0.0,0.0,0.0,0.0,0.0,0.0,0.0,0.0,0.0,0.0,0.0,0.0,0.0,0.0,0.0,0.0,0.0,0.0,0.0,0.0,0.0,0.0,0.0,0.0,0.0,0.3036,0.3162,0.3205,0.4096,0.0,0.0,1.2165,1.3632,1.2766,1.1848,0.0,0.0,0.0,0.0,0.0,0.0,0.0,0.0,0.0,0.0,0.0,0.0,0.0,0.0,0.0,0.0,0.0,0.0,0.0,0.0,0.0,0.0,0.0,0.0,0.0,0.0,0.0,0.0,0.0,0.0,0.0,0.0,0.0,0.0,0.0,0.0,0.0,0.0,0.0,0.0,0.0,0.0,0.0,0.0,0.0,0.0,0.0,0.0,0.0,0.0,0.0,0.0,0.0,0.0,0.0,1.5538,1.592,1.5848,1.5272,1.4184,1.1928,0.8519,0.7171,0.5582,0.0,0.0,0.0,0.0,0.0,0.0,0.0,0.0,0.0,0.0,0.0,0.0,0.0,0.0,0.0,0.0,0.0,0.0,0.0,0.0,0.0,0.0,0.0,0.0,0.0,0.0,0.0,0.0,0.0,0.0,0.0,0.0,0.0,0.0,0.0,0.0,0.0,0.0,0.0,0.0,0.0,0.2973,0.3169,0.3209,0.4691,0.0,0.0,1.403,1.337,1.2964,1.2558,1.2133,0.0,0.0,0.0,0.0,0.0,0.0,0.0,0.0,0.0,0.0,0.0,0.0,0.0,0.0,0.0,0.0,0.0,0.0,0.0,0.0,0.0,0.0,0.0,0.0,0.0,0.0,0.0,0.0,0.0,0.0,0.0,0.0,0.0,0.0,0.0,0.0,0.0,0.0,0.0,0.0,0.0,0.0,0.0,0.0,0.0,0.0,0.0,0.0,0.0,0.0,0.0,0.0,0.0,1.4529,1.5597,1.6097,1.6046,1.54,1.4303,1.205,0.8615,0.7537,0.6069,0.0,0.0,0.0,0.0,0.0,0.0,0.0,0.0,0.0,0.0,0.0,0.0,0.0,0.0,0.0,0.0,0.0,0.0,0.0,0.0,0.0,0.0,0.0,0.0,0.0,0.0,0.0,0.0,0.5896,0.704,0.7661,0.0,0.0,0.0,0.0,0.0,0.0,0.0,0.0,0.0,0.0,0.5016,0.5202,0.5234,0.0,0.0,1.1729,1.3388,1.3704,1.2806,1.2119,1.2263,1.1624,0.0,0.0,0.0,0.0,0.0,0.0,0.0,0.0,0.0,0.0,0.0,0.0,0.0,0.0,0.0,0.0,0.0,0.0,0.0,0.0,0.0,0.0,0.0,0.0,0.0,0.0,0.0,0.0,0.0,0.0,0.0,0.0,0.0,0.0,0.0,0.0,0.0,0.0,0.0,0.0,0.0,0.0,0.0,0.0,0.0,0.0,0.0,0.0,0.0,0.0,0.0,0.0,1.459,1.5592,1.6193,1.6184,1.5498,1.439,1.2126,0.8745,0.7781,0.6506,0.0,0.0,0.0,0.0,0.0,0.0,0.0,0.0,0.0,0.0,0.0,0.0,0.0,0.0,0.0,0.0,0.0,0.0,0.0,0.0,0.0,0.0,0.0,0.0,0.0,0.0,0.0,0.0,0.697,0.7457,0.713,0.0,0.0,0.0,0.0,0.0,0.0,0.0,0.0,0.0,0.0,0.7383,0.7443,0.7456,0.8206,1.034,1.1644,1.2649,1.3315,1.2545,1.1967,1.2195,0.0,0.0,0.0,0.0,0.0,0.0,0.0,0.0,0.0,0.0,0.0,0.0,0.0,0.0,0.0,0.0,0.0,0.0,0.0,0.0,0.0,0.0,0.0,0.0,0.0,0.0,0.0,0.0,0.0,0.0,1.1021,0.0,0.0,0.0,0.0,0.0,0.0,0.0,0.0,0.0,0.0,0.0,0.0,0.0,0.0,0.0,0.0,0.0,0.0,0.0,0.0,0.0,0.0,0.0,1.558,1.6214,1.619,1.5511,1.439,1.2126,0.8736,0.7831,0.6842,0.565,0.0,0.0,0.0,0.0,0.0,0.0,0.0,0.0,0.0,0.0,0.0,0.0,0.0,0.0,0.0,0.0,0.0,0.0,0.0,0.0,0.0,0.0,0.0,0.0,0.0,0.0,0.7397,0.767,0.7567,0.0,0.0,0.0,0.0,0.0,0.0,0.0,0.0,0.0,0.0,0.9212,0.9924,0.9677,0.9632,1.0323,1.2447,1.2446,1.213,1.1936,1.2253,1.2401,0.0,0.0,0.0,0.0,0.0,0.0,0.0,0.0,0.0,0.0,0.0,0.0,0.0,0.0,0.0,0.0,0.0,0.0,0.0,0.0,0.0,0.0,0.0,0.0,0.0,0.0,0.0,1.2031,1.2082,0.0,0.0,0.0,0.0,0.0,0.0,0.0,0.0,0.0,0.0,0.0,1.333,1.3298,0.0,0.0,0.0,0.0,0.0,0.0,0.0,0.0,0.0,0.0,0.0,0.0,1.4984,1.5901,1.6606,1.6577,1.5755,1.4569,1.2273,0.8853,0.8466,0.8178,0.7877,0.0,0.0,0.0,0.0,0.0,0.0,0.0,0.0,0.0,0.0,0.0,0.0,0.0,0.0,0.0,0.0,0.0,0.0,0.0,0.0,0.0,0.0,0.0,0.0,0.0,0.8022,0.0,0.0,0.0,0.0,0.0,0.0,0.0,0.0,0.0,0.0,0.0,0.8987,0.9052,1.0349,1.1423,1.1786,1.1052,1.097,0.0,0.0,0.0,0.0,0.0,0.0,0.0,0.0,0.0,0.0,0.0,0.0,0.0,0.0,1.4127,1.3611,1.3567,1.3532,1.3311,0.0,0.0,0.0,0.0,0.0,0.0,0.0,0.0,0.0,0.0,0.0,0.0,0.0,0.0,0.0,0.0,1.2322,0.0,0.0,0.0,0.0,0.0,0.0,0.0,0.0,1.3526,1.3685,1.3985,1.3847,1.3698,0.0,1.3533,1.3254,0.0,0.0,0.0,0.0,0.0,0.0,0.0,0.0,1.5115,1.6075,1.6781,1.6735,1.5891,1.4654,1.2345,0.8928,0.8476,0.864,0.9314,0.9736,1.0032,0.0,0.0,0.0,0.0,0.0,0.0,0.0,0.0,0.0,0.0,0.0,0.0,0.0,0.0,0.0,0.0,0.0,0.0,0.0,0.0,0.0,0.0,0.0,0.8958,0.0,0.0,0.0,0.0,0.0,0.0,0.0,0.0,0.0,0.7946,0.9395,1.0472,1.0455,1.1487,1.2347,1.2615,0.0,0.0,0.0,0.0,0.0,0.0,0.0,1.1766,1.1865,1.1294,1.116,1.2105,1.3564,1.4733,1.5122,0.0,0.0,1.4221,1.4256,1.4357,1.4154,1.4124,1.4027,1.3771,1.3772,1.3837,0.0,0.0,0.0,0.0,0.0,0.0,0.0,0.0,1.3013,1.3081,0.0,1.2728,0.0,0.0,0.0,0.0,0.0,1.3013,0.0,0.0,1.4032,1.4315,1.4685,1.4568,1.4448,1.4317,1.4178,1.3937,1.3579,1.2901,0.0,0.0,0.0,0.0,0.0,0.0,1.5052,1.6114,1.6719,1.6656,1.5903,1.466,1.2343,0.8978,0.7934,0.8263,0.9982,1.1053,1.1577,1.1548,1.1373,0.0,0.0,0.0,0.0,0.0,0.0,0.0,0.0,0.0,0.0,0.0,0.0,0.0,0.0,0.0,0.0,0.0,0.0,0.0,0.0,0.928,0.0,0.0,0.0,0.0,0.0,0.0,0.0,0.0,0.0,0.0,0.9909,1.07,1.1492,1.2126,0.0,0.0,0.0,0.0,1.241,1.2244,1.2376,1.2433,1.2289,1.2139,1.2125,1.2403,0.0,0.0,1.4749,1.5216,1.5224,1.5232,1.5253,1.5105,1.4731,1.4937,1.5088,1.4797,1.4751,1.4649,1.4424,1.4536,1.497,1.4083,0.0,0.0,0.0,0.0,1.3325,1.342,1.3559,1.3468,1.3447,1.3468,1.3152,0.0,0.0,0.0,0.0,0.0,0.0,1.3776,1.4308,1.4453,1.4715,1.5052,1.5011,1.4855,1.4606,1.4536,1.4328,1.3946,1.3603,1.3349,1.3203,0.0,0.0,0.0,0.0,1.5506,1.6485,1.6924,1.6781,1.605,1.4705,1.2559,0.96,0.8282,0.8789,1.1255,1.1788,1.2201,1.253,1.1935,0.0,0.0,0.0,0.0,0.0,0.0,0.0,0.0,0.0,0.0,0.0,0.0,0.0,0.0,0.0,0.0,0.0,0.0,0.0,1.0171,1.0278,1.0329,0.0,0.0,0.0,0.0,0.0,0.0,0.0,0.0,0.0,1.2069,1.2525,1.2773,0.0,0.0,1.3104,1.2313,1.2263,1.2256,1.2207,0.0,0.0,0.0,1.3057,1.2858,1.3255,1.3163,1.3659,1.5532,1.5846,1.5846,1.5834,1.5846,1.5796,1.5691,1.556,1.546,1.5354,1.5447,1.5492,1.5293,1.5299,1.5605,1.4828,1.4266,1.393,1.3834,1.3965,1.4015,1.4134,1.4267,1.4103,1.4036,1.4019,1.3599,1.3437,1.342,1.337,0.0,0.0,0.0,1.4288,1.471,1.4898,1.511,1.535,1.5352,1.523,1.4988,1.4981,1.4785,1.445,1.4344,1.4159,1.3922,0.0,0.0,1.4575,1.4984,1.5669,1.66,1.6971,1.6748,1.5998,1.3347,1.1254,0.9881,0.8519,0.9119,1.1899,1.2438,1.2906,1.3407,1.2817,1.2264,0.0,0.0,0.0,0.0,0.0,0.0,0.0,0.0,0.0,0.0,0.0,1.0444,0.0,0.0,0.0,0.0,0.955,1.0338,1.1135,1.1172,0.0,0.0,0.0,0.0,0.0,0.0,0.0,1.074,1.1258,1.2059,1.3304,1.384,1.4004,1.3696,1.383,1.3603,1.261,0.0,1.2265,1.2432,1.2848,1.3318,1.3801,1.3686,1.3597,1.3812,1.4246,1.4836,1.5864,1.6119,1.6119,1.611,1.6116,1.606,1.5925,1.5832,1.5779,1.573,1.5851,1.5954,1.5953,1.5942,1.6172,1.5426,1.5359,1.4681,1.4464,1.459,1.4699,1.4875,1.5034,1.4832,1.4741,1.4692,1.4108,1.3866,1.3835,1.3846,0.0,1.39,1.4457,1.4837,1.5066,1.5304,1.5503,1.5627,1.5639,1.557,1.5433,1.5433,1.5303,1.5055,1.5027,1.4936,1.4735,1.4211,1.42,1.4746,1.5097,1.5662,1.6511,1.6856,1.6623,1.5789,1.1267,0.9197,0.9933,0.8669,0.9283,1.2027,1.2952,1.3612,1.4038,1.3754,1.3339,1.277,0.0,0.0,0.0,0.0,0.0,0.0,0.0,0.0,0.0,0.0,0.0,0.0,0.0,0.0,0.0,1.0803,0.0,1.1563,1.1886,0.0,0.0,0.0,1.1644,1.1186,1.1072,1.1283,1.1928,0.0,0.0,1.3903,0.0,1.5115,1.4822,1.4628,1.4176,1.3289,1.2661,1.2447,1.3144,1.3779,1.417,1.4055,1.4207,1.4372,1.4385,1.503,1.5689,1.6016,1.6119,1.6113,1.601,1.6057,1.6007,1.5687,1.5864,1.6041,1.5939,1.6032,1.6181,1.6404,1.6484,1.6601,1.5683,1.5543,1.5362,1.5257,1.5177,1.5223,1.5313,1.5454,1.5293,1.5164,1.5063,1.467,1.4367,1.4179,1.4179,1.429,1.4509,1.4783,1.512,1.5462,1.5681,1.5856,1.5974,1.5987,1.59,1.5794,1.5787,1.568,1.5455,1.5364,1.5277,1.5237,1.5083,1.5094,1.5243,1.5583,1.6034,1.6635,1.6979,1.6489,1.5086,1.1375,0.9778,1.057,0.9244,0.9551,1.1743,1.2845,1.3551,1.3845,1.3701,1.3437,1.3095,1.2695,0.0,0.0,0.0,0.0,0.0,0.0,0.0,0.0,0.0,1.1044,1.1095,0.0,1.052,0.0,1.1141,1.1628,1.2072,1.2112,0.0,0.0,1.2645,1.3027,1.3091,1.255,1.2373,1.2839,1.3423,1.4055,1.4658,1.5166,1.5471,1.5385,1.4968,1.48,1.5188,1.3812,1.3359,1.4944,1.5437,1.5518,1.516,1.5124,1.5227,1.5574,1.5828,1.6005,1.6105,1.612,1.5955,1.5563,1.5803,1.5959,1.58,1.5932,1.6067,1.608,1.6163,1.6304,1.6452,1.6683,1.6778,1.5829,1.5737,1.5737,1.5649,1.5508,1.5593,1.5696,1.5813,1.5676,1.5573,1.5483,1.5155,1.4898,1.4699,1.4767,1.4859,1.5017,1.5286,1.5511,1.5737,1.5911,1.6026,1.6113,1.612,1.6048,1.5991,1.5979,1.5904,1.5737,1.5649,1.5586,1.5484,1.5642,1.571,1.5716,1.5897,1.6277,1.6823,1.669,1.6065,1.4856,1.1664,1.0345,1.1077,0.979,0.9998,1.1991,1.279,1.3287,1.3559,1.3546,1.3381,1.3073,1.2849,1.2552,0.0,0.0,0.0,0.0,0.0,0.0,0.0,0.0,0.0,0.0,0.0,1.1151,0.0,1.1756,1.2189,1.2566,1.2574,1.2599,1.2702,1.3288,1.3797,1.4152,1.3692,1.3459,1.3753,1.4328,1.4835,1.5142,1.5481,1.576,1.5816,1.5529,1.5602,1.6244,1.5448,1.5171,1.6299,1.6146,1.5856,1.5751,1.5597,1.5572,1.583,1.6003,1.6116,1.6117,1.6117,1.5991,1.5687,1.5652,1.5758,1.5887,1.601,1.6094,1.6126,1.6156,1.6225,1.6312,1.6571,1.6631,1.5937,1.5935,1.5935,1.5824,1.5691,1.5836,1.5964,1.6067,1.5971,1.5909,1.5869,1.5573,1.5364,1.5272,1.5372,1.544,1.5486,1.5761,1.5903,1.5942,1.6046,1.612,1.612,1.612,1.612,1.612,1.612,1.6027,1.5935,1.5928,1.5849,1.57,1.5969,1.615,1.6223,1.6224,1.6503,1.706,1.6373,1.5683,1.5013,1.223,1.1059,1.1637,1.0409,1.0552,1.2301,1.2681,1.2964,1.3199,1.3312,1.3223,1.2927,1.2975,1.2823,0.0,1.2355,0.0,0.0,0.0,0.0,0.0,0.0,0.0,0.0,1.1673,1.1787,1.2047,1.2495,1.2847,1.3033,1.3105,1.3121,1.3076,1.3665,1.4259,1.4629,1.4529,1.4428,1.4557,1.5132,1.5492,1.5449,1.5708,1.5977,1.6056,1.6058,1.6199,1.6723,1.6732,1.6684,1.6868,1.6155,1.5673,1.5784,1.5703,1.5595,1.5634,1.5823,1.6045,1.6095,1.6025,1.5968,1.5913,1.5611,1.5522,1.5956,1.6043,1.611,1.6118,1.6114,1.613,1.6132,1.6298,1.6358,1.6163,1.6048,1.6072,1.6034,1.5995,1.593,1.5922,1.5956,1.6019,1.6004,1.5882,1.5676,1.5533,1.5518,1.5557,1.5655,1.582,1.5862,1.5969,1.6054,1.6082,1.612,1.612,1.612,1.612,1.612,1.612,1.6082,1.6067,1.6067,1.6102,1.6172,1.6226,1.6436,1.6828,0.0,0.0,0.0,1.6921,1.6326,1.5662,1.3688,1.2539,1.2397,1.136,0.0,1.182,1.2318,1.2587,1.2655,1.2982,0.0,0.0,0.0,0.0,0.0,0.0,0.0,0.0,0.0,0.0,0.0,1.3006,1.2841,1.2513,1.263,1.2781,1.294,1.3041,1.3163,1.3312,1.3336,1.3328,1.3352,1.4008,1.4546,1.4698,1.4794,1.4878,1.4912,1.5287,1.5585,1.5577,1.5852,1.6079,1.6088,1.6116,1.6135,1.6264,1.631,1.6287,1.6244,1.5899,1.5616,1.566,1.5626,1.5613,1.5612,1.5628,1.5812,1.6006,1.5667,1.5384,1.5404,1.5682,1.5813,1.5754,1.5913,1.611,1.6118,1.612,1.6114,1.6117,1.6136,1.6168,1.6163,0.0,1.6026,1.6004,0.0,1.6074,1.6072,1.5992,1.5992,1.5992,1.5985,1.5893,1.5834,1.5847,1.5834,1.59,1.6004,1.5992,1.6033,1.6108,1.612,1.612,1.612,1.612,1.612,1.612,1.612,1.612,1.6108,1.617,1.6232,1.6301,1.653,1.6801,1.7087,1.7453,1.7697,1.7853,1.7352,1.6737,1.5972,1.4422,1.3415,1.2993,0.0,0.0,0.0,0.0,0.0,0.0,0.0,0.0,0.0,0.0,0.0,1.3166,1.3085,1.3044,1.3044,1.3047,1.3166,1.3468,1.3641,1.355,1.3088,1.32,1.3322,1.339,1.3543,1.3679,1.375,1.3879,1.3849,1.3663,1.4229,1.4735,1.4897,1.4979,1.5032,1.5104,1.5404,1.5599,1.5593,1.59,1.6094,1.612,1.612,1.612,1.6114,1.6117,1.6107,1.611,1.5967,1.5832,1.5764,1.5744,1.5773,1.5834,1.585,1.5919,1.6058,1.561,1.5195,1.5214,1.5461,1.5643,1.5768,1.5939,1.6118,1.6112,1.612,1.612,1.612,1.612,1.612,1.617,1.6156,1.5992,1.593,1.5962,1.6177,1.6178,1.606,0.0,0.0,0.0,1.612,1.612,1.612,1.612,1.612,1.612,1.612,1.6109,1.6136,1.6123,1.6136,1.6123,1.6136,1.611,1.612,1.612,1.6121,1.6136,1.6252,1.6341,1.6456,1.6802,1.712,1.7372,1.7894,1.82,1.8213,1.7793,1.7095,1.6146,1.5039,1.4134,1.3493,1.2796,1.2536,1.2717,1.2939,1.3016,1.2894,1.3377,1.366,1.3639,1.369,1.3717,1.3721,1.3634,1.3549,1.3559,1.357,1.3664,1.3925,1.4195,1.4143,1.36,1.3654,1.3746,1.3762,1.4007,1.4167,1.4212,1.4389,1.4376,1.3995,1.4438,1.4876,1.5146,1.5104,1.5082,1.5211,1.5394,1.556,1.5606,1.5866,1.608,1.6113,1.612,1.612,1.612,1.6114,1.6119,1.6103,1.6081,1.6035,1.5967,1.5942,1.5984,1.6061,1.6094,1.6111,1.6015,1.5591,1.527,1.5294,1.523,1.5411,1.5795,1.6004,1.6113,1.612,1.612,1.612,1.612,1.612,1.612,1.643,1.6423,1.6177,1.6074,1.608,1.6121,1.6053,1.5937,1.6026,1.6087,1.612,1.612,1.612,1.612,1.612,1.612,1.612,1.612,1.6151,0.0,1.6279,1.6279,1.6279,1.6279,1.6205,1.6114,1.612,1.6163,1.6266,1.63,1.6503,1.6875,1.6977,1.7324,1.7941,1.8301,1.8524,1.8689,1.8351,1.7556,1.6301,1.5975,1.5149,1.3837,1.3729,1.3651,1.3544,1.3667,1.3691,1.3575,1.3802,1.3894,1.3798,1.4058,1.4193,1.4204,1.4173,1.4188,1.417,1.4159,1.4234,1.4396,1.4543,1.4507,1.4211,1.4186,1.4258,1.4362,1.441,1.4491,1.459,1.4651,1.4646,1.4581,1.4796,1.5021,1.5192,1.517,1.5177,1.5192,1.5342,1.5482,1.5611,1.5791,1.5972,1.6074,1.612,1.612,1.612,1.612,1.6113,1.6118,1.6118,1.6086,1.606,1.6086,1.6074,1.6113,1.612,1.6108,1.6115,1.5651,1.5372,1.5501,1.5411,1.5443,1.5822,1.6011,1.61,1.612,1.612,1.612,1.612,1.612,1.612,1.6707,1.6606,1.6471,1.6417,1.643,1.6417,1.6348,1.6238,1.6299,1.6125,1.5828,1.5833,1.5898,1.6003,1.5998,1.6026,1.6108,1.6183,1.6239,1.6301,1.6363,1.6409,1.6397,1.6397,1.6335,1.6231,1.6274,1.6313,1.6321,1.6538,1.6807,1.7025,1.7405,1.7847,1.8314,1.8545,1.8709,1.8806,1.8655,1.7912,1.6568,1.6338,1.5514,1.3971,1.4105,1.4049,1.3719,1.4305,1.4571,1.4363,1.4621,1.4722,1.4673,1.4747,1.4758,1.4683,1.4688,1.4636,1.4532,1.4629,1.4715,1.476,1.4896,1.4923,1.4794,1.462,1.4548,1.4609,1.4694,1.4787,1.4862,1.4925,1.4969,1.4967,1.5062,1.5124,1.5179,1.5192,1.5192,1.5206,1.5316,1.5442,1.5585,1.5764,1.5962,1.6086,1.612,1.612,1.612,1.612,1.612,1.612,1.612,1.612,1.612,1.612,1.612,1.612,1.612,1.6121,1.6102,1.5828,1.5767,1.5835,1.5745,1.5741,1.5908,1.6018,1.61,1.612,1.612,1.612,1.612,1.612,1.612,1.6944,1.6776,1.6722,1.673,1.681,1.681,1.6722,1.6552,1.6546,1.6221,1.5767,1.5768,1.59,1.6032,1.6026,1.6094,1.6197,1.6294,1.6349,1.6397,1.6498,1.6558,1.6546,1.6546,1.6484,1.6369,1.6457,1.6463,1.6437,1.6815,1.7066,1.7256,1.784,1.826,1.8496,1.8716,1.8806,1.8806,1.8806,1.8196,1.6953,1.6724,1.5928,1.4586,1.4686,1.4605,1.4227,1.5038,1.5394,1.5156,1.5369,1.5499,1.5435,1.5338,1.5245,1.5116,1.5095,1.5004,1.4857,1.4962,1.5041,1.5041,1.5131,1.5192,1.5172,1.4977,1.4807,1.4832,1.4962,1.5041,1.5043,1.5118,1.5192,1.5192,1.5192,1.5186,1.5192,1.5192,1.5192,1.5206,1.5316,1.5454,1.5609,1.5776,1.595,1.6067,1.612,1.612,1.612,1.612,1.612,1.612,1.612,1.612,1.612,1.612,1.6087,1.6074,1.6087,1.6107,1.6098,1.61,1.61,1.6073,1.6083,1.6024,1.5957,1.6019,1.6094,1.612,1.612,1.612,1.612,1.612,1.612,1.7107,1.6957,1.679,1.6884,1.7134,1.7148,1.6972,1.6715,1.6682,1.6444,1.6117,1.6308,1.6423,1.6443,1.643,1.6417,1.6457,1.6471,1.6546,1.6648,1.6669,1.6688,1.6688,1.6675,1.662,1.6504,1.6498,1.6579,1.6668,1.6923,1.729,1.7786,1.8131,1.8361,1.8503,1.8687,1.8806,1.8806,1.8806,1.8384,1.7577,1.738,1.6797,1.5772,1.5976,1.5927,1.5488,1.5969,1.6088,1.5841,1.5818,1.5763,1.5606,1.5584,1.5503,1.5372,1.5364,1.5291,1.5153,1.5165,1.5165,1.5184,1.5179,1.5192,1.5192,1.5165,1.5163,1.5157,1.5158,1.5177,1.5172,1.5186,1.5192,1.5192,1.5192,1.5192,1.5192,1.5192,1.5192,1.5192,1.5328,1.5454,1.5597,1.5783,1.5945,1.6087,1.612,1.612,1.612,1.612,1.612,1.612,1.612,1.612,1.612,1.612,1.6066,1.5983,1.6032,1.6074,1.608,1.6114,1.6116,1.6117,1.6114,1.6085,1.6079,1.6113,1.6113,1.612,1.612,1.612,1.612,1.612,1.612,1.7521,1.7345,1.7182,1.7148,1.7215,1.7283,1.7195,1.7012,1.7094,1.7026,1.6877,1.691,1.6714,1.6389,1.6395,1.641,1.6511,1.658,1.6648,1.6702,1.6816,1.6883,1.689,1.6877,1.6776,1.6641,1.6748,1.6829,1.6938,1.731,1.7738,1.8111,1.8334,1.8504,1.8675,1.8764,1.8806,1.8806,1.8806,1.8627,1.8293,1.7717,1.7003,1.6265,1.6334,1.6271,1.6022,1.6257,1.6328,1.615,1.606,1.5985,1.5894,1.5887,1.5832,1.5707,1.5518,1.5332,1.5206,1.5192,1.5192,1.5192,1.5192,1.5192,1.5192,1.5192,1.5192,1.5192,1.5192,1.5192,1.5192,1.5192,1.5192,1.5192,1.5192,1.5192,1.5192,1.5192,1.5192,1.5218,1.5328,1.5448,1.5599,1.5845,1.6026,1.6094,1.612,1.612,1.612,1.612,1.612,1.612,1.612,1.612,1.612,1.612,1.6045,1.5925,1.5838,1.5838,1.604,1.6102,1.6116,1.6112,1.6113,1.612,1.6113,1.612,1.612,1.612,1.612,1.612,1.612,1.612,1.612,1.7907,1.7731,1.7595,1.748,1.7399,1.7494,1.746,1.7324,1.7426,1.7433,1.7392,1.729,1.7012,1.6626,1.6537,1.6551,1.664,1.6735,1.6789,1.6803,1.6931,1.7004,1.7004,1.7004,1.6924,1.6836,1.6965,1.708,1.7215,1.7643,1.803,1.8273,1.8435,1.8606,1.8771,1.8806,1.8806,1.8806,1.8806,1.8806,1.8692,1.8056,1.7379,1.6833,1.6762,1.6622,1.6367,1.6447,1.643,1.6301,1.6177,1.612,1.612,1.612,1.604,1.5901,1.5627,1.5413,1.5316,1.5281,1.5265,1.5253,1.5208,1.5192,1.5192,1.5192,1.5192,1.5192,1.5192,1.5192,1.5192,1.5192,1.5192,1.5192,1.5192,1.5192,1.5192,1.5192,1.5201,1.5248,1.5386,1.553,1.5725,1.5928,1.6113,1.6113,1.612,1.612,1.612,1.612,1.612,1.612,1.612,1.612,1.612,1.612,1.6033,1.5853,1.5701,1.5686,1.5898,1.5941,1.611,1.6111,1.6112,1.612,1.612,1.612,1.612,1.612,1.612,1.612,1.612,1.612,1.612,1.8199,1.8071,1.7921,1.7874,1.7867,1.786,1.7772,1.7568,1.7595,1.7534,1.7426,1.7406,1.7365,1.7304,1.7053,1.6964,1.6991,1.6998,1.6985,1.6998,1.7018,1.7011,1.7004,1.7004,1.7011,1.6998,1.7134,1.7311,1.7555,1.7785,1.803,1.8286,1.8456,1.8613,1.8771,1.8806,1.8806,1.8806,1.8806,1.8806,1.8757,1.8449,1.8147,1.793,1.7581,1.7203,1.6953,1.6655,1.6437,1.6308,1.6183,1.6114,1.6108,1.612,1.6052,1.5908,1.571,1.558,1.5551,1.5448,1.5386,1.5372,1.5289,1.5206,1.524,1.5226,1.522,1.5199,1.5199,1.5192,1.5192,1.5192,1.5192,1.5192,1.5192,1.5192,1.5192,1.5192,1.526,1.5377,1.5503,1.5699,1.6014,1.6069,1.6108,1.612,1.612,1.612,1.612,1.612,1.612,1.612,1.612,1.612,1.612,1.6079,1.5939,1.576,1.5627,1.5516,1.5543,1.5635,1.5912,1.6115,1.6112,1.612,1.612,1.612,1.612,1.612,1.612,1.612,1.612,1.612,1.612,1.83,1.8104,1.8138,1.8057,1.7922,1.7996,1.7935,1.7806,1.7785,1.7758,1.769,1.7582,1.7528,1.7514,1.7324,1.725,1.725,1.7263,1.725,1.725,1.7263,1.7263,1.7263,1.725,1.7263,1.7256,1.7304,1.748,1.7785,1.803,1.8239,1.8429,1.862,1.8729,1.8799,1.8806,1.8806,1.8806,1.8806,1.8806,1.8771,1.8559,1.8375,1.8212,1.7778,1.746,1.727,1.6971,1.67,1.6443,1.6294,1.6197,1.6121,1.612,1.6027,1.5922,1.5817,1.5737,1.5612,1.5563,1.5518,1.5518,1.5489,1.5442,1.5447,1.5391,1.533,1.5309,1.524,1.5199,1.5192,1.5192,1.5192,1.5192,1.5192,1.5192,1.5192,1.5199,1.5242,1.5399,1.5615,1.5883,1.6027,1.612,1.612,1.612,1.612,1.612,1.612,1.612,1.612,1.612,1.612,1.612,1.612,1.603,1.5903,1.5722,1.5568,1.546,1.5428,1.5755,1.6056,1.6115,1.6113,1.612,1.612,1.612,1.612,1.612,1.612,1.612,1.612,1.612,1.612,1.8449,1.8253,1.8327,1.8213,1.7989,1.8078,1.8016,1.7915,1.7915,1.7915,1.7881,1.7758,1.7704,1.769,1.7595,1.7548,1.7548,1.7467,1.7392,1.7392,1.7392,1.7392,1.7392,1.7392,1.7392,1.7426,1.7514,1.7697,1.7969,1.8226,1.8422,1.8503,1.8702,1.8806,1.8806,1.8806,1.8806,1.8806,1.8806,1.8806,1.8785,1.8613,1.8435,1.8266,1.7947,1.7629,1.7406,1.7182,1.6883,1.6552,1.6416,1.6286,1.6135,1.612,1.6072,1.5977,1.5951,1.5911,1.5779,1.5712,1.5698,1.5691,1.5638,1.5599,1.5592,1.5516,1.5469,1.5428,1.535,1.5267,1.526,1.5226,1.5192,1.5192,1.5192,1.5192,1.5211,1.5282,1.5404,1.5578,1.5802,1.5998,1.608,1.6113,1.612,1.612,1.612,1.612,1.612,1.612,1.612,1.612,1.612,1.6036,1.5938,1.5823,1.5817,1.5669,1.557,1.5442,1.5463,1.5826,1.6065,1.6099,1.612,1.612,1.612,1.612,1.612,1.612,1.612,1.612,1.612,1.612,1.6127,1.866,1.8489,1.8488,1.8354,1.8145,1.8111,1.8044,1.7922,1.7908,1.7915,1.7901,1.7895,1.7881,1.7888,1.7867,1.7881,1.7819,1.7609,1.7487,1.7453,1.7446,1.7446,1.7433,1.7453,1.7467,1.7487,1.7752,1.7962,1.8139,1.8361,1.8496,1.8551,1.8709,1.8806,1.8806,1.8806,1.8806,1.8806,1.8806,1.8806,1.8771,1.8612,1.8455,1.8306,1.8165,1.788,1.7446,1.7283,1.6998,1.6599,1.6498,1.6381,1.6143,1.612,1.6113,1.6106,1.6094,1.6088,1.6061,1.5939,1.5883,1.587,1.5725,1.5665,1.5672,1.5638,1.5606,1.5591,1.5494,1.5399,1.5365,1.5303,1.5226,1.5192,1.5192,1.5192,1.528,1.5455,1.5671,1.5839,1.5985,1.61,1.6113,1.612,1.612,1.612,1.612,1.612,1.612,1.612,1.612,1.612,1.6101,1.6036,1.5814,1.5604,1.563,1.5606,1.5548,1.5479,1.5511,1.5756,1.6036,1.6115,1.6113,1.612,1.612,1.612,1.612,1.612,1.612,1.612,1.612,1.612,1.6128,1.8543,1.8516,1.8647,1.8579,1.8375,1.8273,1.8158,1.803,1.7942,1.7915,1.7915,1.7915,1.7915,1.7929,1.801,1.8044,1.803,1.8016,1.7928,1.7765,1.7738,1.7731,1.7731,1.7738,1.7779,1.7894,1.807,1.8239,1.8368,1.8462,1.8565,1.8695,1.8778,1.8806,1.8806,1.8806,1.8806,1.8806,1.8806,1.8806,1.8806,1.8744,1.8627,1.8442,1.8314,1.8077,1.7765,1.7467,1.7188,1.6842,1.6619,1.6375,1.6156,1.612,1.612,1.612,1.612,1.612,1.6113,1.6054,1.6026,1.6038,1.5973,1.5959,1.5934,1.5851,1.5803,1.5778,1.5655,1.5509,1.5421,1.546,1.5398,1.5224,1.5192,1.5284,1.5483,1.5657,1.581,1.5907,1.6013,1.6094,1.612,1.612,1.612,1.612,1.612,1.612,1.612,1.612,1.612,1.612,1.6101,1.608,1.5934,1.5783,1.5746,1.5673,1.5571,1.5522,1.5566,1.5734,1.5996,1.6114,1.6112,1.612,1.612,1.612,1.612,1.612,1.612,1.612,1.612,1.6116,1.6125,1.8488,1.8523,1.873,1.8688,1.8489,1.8354,1.8233,1.8098,1.7956,1.7915,1.7915,1.7915,1.7922,1.7997,1.8078,1.8139,1.8179,1.8252,1.8219,1.8057,1.7989,1.7976,1.7976,1.7976,1.8043,1.8179,1.83,1.8415,1.8503,1.8564,1.8667,1.8778,1.8806,1.8806,1.8806,1.8806,1.8806,1.8806,1.8806,1.8806,1.8806,1.8806,1.8702,1.8503,1.8382,1.8172,1.7915,1.7629,1.7331,1.7005,1.6639,1.6334,1.6135,1.612,1.612,1.612,1.612,1.612,1.612,1.6113,1.612,1.612,1.612,1.6113,1.6087,1.6018,1.5977,1.5945,1.5805,1.5676,1.5608,1.557,1.5535,1.5365,1.525,1.5382,1.5676,1.5846,1.5922,1.5977,1.6053,1.6106,1.612,1.612,1.612,1.612,1.612,1.612,1.612,1.612,1.612,1.612,1.6101,1.6092,1.6087,1.5994,1.5896,1.5767,1.5614,1.5573,1.5566,1.5845,1.6114,1.6116,1.612,1.612,1.612,1.612,1.612,1.612,1.612,1.612,1.6114,1.6114,1.6136,1.8489,1.851,1.8709,1.8695,1.8516,1.8388,1.826,1.8132,1.7983,1.7935,1.7929,1.7942,1.7983,1.8077,1.8145,1.8226,1.8307,1.8361,1.8368,1.8314,1.8213,1.8145,1.8104,1.8145,1.8213,1.8306,1.8449,1.8531,1.8543,1.8681,1.8812,1.8818,1.884,1.8811,1.8825,1.8819,1.8826,1.8806,1.8806,1.8806,1.8806,1.8806,1.873,1.853,1.8402,1.8219,1.7976,1.7697,1.7392,1.6992,1.6598,1.6313,1.615,1.6114,1.612,1.612,1.612,1.612,1.612,1.612,1.612,1.612,1.612,1.612,1.6113,1.61,1.6086,1.6061,1.5965,1.5889,1.5848,1.5764,1.5653,1.5596,1.5478,1.5586,1.5984,1.5982,1.5971,1.606,1.6113,1.612,1.612,1.612,1.612,1.612,1.612,1.612,1.612,1.612,1.612,1.612,1.612,1.6105,1.6095,1.6056,1.5977,1.5932,1.5791,1.5743,1.5695,1.595,1.6116,1.6119,1.612,1.612,1.612,1.612,1.612,1.612,1.612,1.612,1.6125,1.6143,1.6201,1.8361,1.8388,1.8682,1.8764,1.8695,1.8538,1.8422,1.8382,1.8152,1.805,1.8036,1.8043,1.8071,1.8125,1.8307,1.8429,1.8476,1.8586,1.8661,1.862,1.8491,1.8341,1.8293,1.8354,1.8415,1.8469,1.8613,1.873,1.873,1.8778,1.8867,1.8946,1.8954,1.8946,1.8961,1.8946,1.8893,1.8819,1.8806,1.8798,1.8798,1.8806,1.8792,1.8709,1.8523,1.8368,1.8151,1.7704,1.7331,1.7018,1.6755,1.6497,1.6273,1.6163,1.6121,1.6121,1.6108,1.612,1.612,1.612,1.612,1.612,1.612,1.612,1.612,1.612,1.612,1.6101,1.606,1.6011,1.593,1.5938,1.5947,1.5954,1.5859,1.5879,1.6044,1.6084,1.6054,1.6088,1.612,1.612,1.612,1.612,1.612,1.612,1.612,1.612,1.612,1.612,1.612,1.612,1.6113,1.6112,1.6098,1.6072,1.6053,1.606,1.6015,1.6001,1.5978,1.6054,1.6119,1.612,1.612,1.612,1.612,1.612,1.612,1.612,1.6128,1.6136,1.6187,1.6212,1.6316,1.8395,1.8401,1.8682,1.8806,1.8771,1.8593,1.8488,1.8462,1.8294,1.8192,1.8186,1.8171,1.8212,1.8294,1.8443,1.8551,1.8654,1.8736,1.8799,1.8763,1.8682,1.8545,1.8449,1.8476,1.8537,1.8633,1.875,1.8792,1.8819,1.8867,1.8941,1.9001,1.9047,1.9074,1.9096,1.9074,1.904,1.8967,1.8906,1.8872,1.8886,1.8818,1.8806,1.8764,1.8598,1.8415,1.8178,1.7819,1.7433,1.706,1.6816,1.6588,1.6397,1.6247,1.6178,1.619,1.6148,1.612,1.612,1.612,1.612,1.612,1.612,1.612,1.612,1.612,1.612,1.6101,1.612,1.6072,1.6025,1.606,1.6101,1.6093,1.6113,1.6114,1.6114,1.6115,1.6113,1.612,1.612,1.612,1.612,1.612,1.612,1.612,1.612,1.612,1.612,1.612,1.612,1.612,1.612,1.6119,1.6112,1.6093,1.608,1.6094,1.6094,1.612,1.612,1.612,1.612,1.612,1.612,1.612,1.612,1.612,1.612,1.6114,1.6143,1.6173,1.6217,1.6303,1.6412,1.8488,1.8531,1.8709,1.8806,1.8771,1.8598,1.8543,1.8517,1.8395,1.8327,1.8327,1.8313,1.8367,1.8488,1.8537,1.8619,1.8799,1.8784,1.8784,1.8791,1.8764,1.8682,1.8558,1.8558,1.864,1.8749,1.8798,1.884,1.8873,1.8975,1.9035,1.9094,1.9168,1.9202,1.9215,1.9208,1.9202,1.9156,1.9061,1.9013,1.9001,1.8899,1.886,1.8818,1.862,1.8408,1.8185,1.7948,1.7663,1.712,1.6877,1.6675,1.6538,1.6383,1.6281,1.6253,1.6177,1.612,1.612,1.612,1.612,1.612,1.612,1.612,1.612,1.612,1.612,1.612,1.612,1.6094,1.6094,1.6095,1.6108,1.6113,1.6113,1.6113,1.612,1.612,1.612,1.612,1.612,1.612,1.612,1.612,1.612,1.612,1.612,1.612,1.612,1.612,1.612,1.612,1.612,1.612,1.6113,1.6113,1.6113,1.6113,1.6101,1.612,1.612,1.612,1.612,1.612,1.612,1.612,1.612,1.612,1.6127,1.6169,1.6205,1.6223,1.6242,1.6381,1.649,1.8488,1.8516,1.8709,1.8806,1.8799,1.8757,1.8737,1.8723,1.8537,1.8455,1.847,1.8455,1.8476,1.8502,1.8668,1.8764,1.8806,1.8806,1.8806,1.8806,1.8806,1.8778,1.8729,1.8736,1.8764,1.884,1.8906,1.8953,1.8987,1.9081,1.9202,1.9288,1.9309,1.9349,1.9349,1.9349,1.9288,1.9223,1.9176,1.9162,1.9128,1.9021,1.8954,1.892,1.8659,1.8489,1.8347,1.8077,1.7833,1.7616,1.7222,1.6884,1.6688,1.6444,1.6335,1.628,1.6178,1.6114,1.612,1.6114,1.6108,1.6121,1.6114,1.612,1.612,1.612,1.612,1.612,1.612,1.612,1.612,1.612,1.612,1.612,1.612,1.612,1.612,1.612,1.612,1.612,1.612,1.612,1.612,1.612,1.612,1.612,1.612,1.612,1.612,1.612,1.612,1.612,1.612,1.612,1.612,1.612,1.612,1.612,1.612,1.612,1.612,1.612,1.612,1.612,1.612,1.612,1.612,1.6154,1.618,1.6224,1.6294,1.6353,1.6405,1.6496,1.6722,1.864,1.8647,1.8772,1.8806,1.8806,1.8806,1.8806,1.8778,1.8695,1.864,1.864,1.864,1.8654,1.8661,1.875,1.8806,1.8806,1.8806,1.8806,1.8811,1.8859,1.89,1.8906,1.894,1.8975,1.8926,1.9035,1.9081,1.9128,1.9222,1.933,1.9404,1.9486,1.9535,1.952,1.9535,1.9501,1.9427,1.9345,1.9312,1.9269,1.9101,1.8968,1.8906,1.8721,1.8613,1.8483,1.8253,1.8051,1.784,1.75,1.7182,1.6925,1.6641,1.6491,1.6382,1.6273,1.6211,1.6197,1.6136,1.6142,1.6178,1.6143,1.6114,1.612,1.612,1.612,1.612,1.612,1.612,1.612,1.612,1.612,1.612,1.6108,1.612,1.6108,1.612,1.612,1.612,1.612,1.612,1.612,1.612,1.612,1.612,1.612,1.612,1.612,1.612,1.612,1.612,1.612,1.612,1.612,1.612,1.612,1.612,1.612,1.612,1.612,1.612,1.612,1.612,1.612,1.612,1.6127,1.6168,1.6248,1.6299,1.6377,1.6483,1.6593,1.6676,1.7016,1.8806,1.8806,1.8806,1.8806,1.8806,1.8806,1.8806,1.8806,1.8806,1.8771,1.8806,1.8806,1.8771,1.8784,1.8784,1.8806,1.8806,1.8798,1.8798,1.8866,1.894,1.9001,1.904,1.9135,1.9211,1.9123,1.9204,1.9244,1.9318,1.9405,1.9541,1.9554,1.9664,1.9734,1.972,1.9722,1.9695,1.9634,1.9515,1.9468,1.9405,1.9189,1.9002,1.8832,1.8791,1.8709,1.8571,1.8395,1.8205,1.7976,1.7744,1.7528,1.7256,1.6932,1.6675,1.6539,1.6409,1.6314,1.6279,1.6238,1.6238,1.6301,1.6232,1.6156,1.6162,1.6177,1.6183,1.617,1.617,1.6216,1.6176,1.6122,1.614,1.6158,1.6157,1.6163,1.6151,1.6156,1.6189,1.612,1.612,1.612,1.612,1.612,1.612,1.612,1.6114,1.6114,1.6121,1.6108,1.6114,1.612,1.612,1.612,1.612,1.612,1.612,1.6108,1.6108,1.6121,1.6116,1.6119,1.6113,1.6114,1.612,1.6121,1.6194,1.6299,1.6362,1.6393,1.6532,1.6704,1.6794,1.6869,1.7251,1.8806,1.8806,1.8806,1.8806,1.8806,1.8806,1.8806,1.8806,1.8806,1.8806,1.8806,1.8806,1.8806,1.8806,1.8806,1.8806,1.8806,1.8791,1.8852,1.8947,1.9007,1.9054,1.9189,1.931,1.9427,1.9517,1.9474,1.9468,1.9612,1.9756,1.9834,1.9956,1.9981,1.9969,1.9883,1.9858,1.9797,1.9729,1.9639,1.9627,1.9566,1.9325,1.9055,1.8852,1.8818,1.8784,1.8716,1.8558,1.8388,1.824,1.7975,1.7744,1.75,1.7148,1.6897,1.6695,1.6546,1.643,1.6362,1.6389,1.6374,1.6355,1.6362,1.6348,1.6314,1.6335,1.632,1.6307,1.6354,1.6429,1.6436,1.6262,1.6219,1.6296,1.6402,1.6441,1.6435,1.6389,1.6333,1.621,1.6155,1.6142,1.6182,1.6178,1.6159,1.6154,1.6166,1.6134,1.6115,1.6119,1.6122,1.6121,1.612,1.612,1.612,1.612,1.612,1.6114,1.6116,1.6111,1.6113,1.6112,1.6125,1.6255,1.6215,1.6147,1.6251,1.6421,1.6552,1.6631,1.6795,1.6952,1.7009,1.709,1.7365,1.8806,1.8806,1.8806,1.8806,1.8806,1.8806,1.8806,1.8806,1.8806,1.8806,1.8806,1.8806,1.8806,1.8806,1.8806,1.8806,1.8806,1.8806,1.8879,1.8987,1.9067,1.9161,1.9325,1.9466,1.9639,1.9727,1.9698,1.9739,1.9926,2.0037,2.0098,2.0105,2.0157,2.0123,2.0003,1.9932,1.9878,1.9797,1.9742,1.9717,1.9696,1.9442,1.9176,1.898,1.8885,1.8873,1.8771,1.862,1.8476,1.8354,1.8145,1.7942,1.7704,1.746,1.7168,1.6904,1.6708,1.6593,1.6505,1.6525,1.6497,1.6518,1.6531,1.6471,1.6403,1.6383,1.6389,1.6369,1.6423,1.6504,1.6497,1.6377,1.6376,1.6453,1.662,1.6729,1.6729,1.6569,1.6443,1.6354,1.6374,1.6362,1.6321,1.6303,1.6232,1.6206,1.6205,1.6198,1.6172,1.6106,1.6116,1.6159,1.6165,1.6169,1.6176,1.6176,1.6126,1.6113,1.6139,1.6141,1.6189,1.622,1.6412,1.6602,1.6486,1.6293,1.6448,1.666,1.6778,1.6895,1.7053,1.7189,1.723,1.7358,1.7595,1.8806,1.8806,1.8806,1.8806,1.8806,1.8806,1.8806,1.8806,1.8806,1.8806,1.8806,1.8806,1.8806,1.8806,1.8806,1.8806,1.8798,1.8818,1.8919,1.9062,1.9189,1.9317,1.9481,1.9646,1.981,1.9917,1.9969,2.0024,2.0126,2.0203,2.0232,2.0252,2.0304,2.0264,2.0153,2.0073,2.0,1.9919,1.9836,1.9769,1.9667,1.9501,1.9297,1.9054,1.9021,1.894,1.8859,1.8695,1.8565,1.8449,1.8266,1.8084,1.7928,1.7717,1.7453,1.7161,1.6938,1.681,1.6688,1.6681,1.6667,1.6642,1.6634,1.6586,1.6519,1.6485,1.6436,1.6443,1.6538,1.6646,1.6666,1.6619,1.6606,1.6645,1.6826,1.698,1.6965,1.6857,1.6749,1.6669,1.6648,1.6586,1.6518,1.6424,1.6352,1.6314,1.632,1.6453,1.6402,1.6159,1.6138,1.6194,1.623,1.6246,1.6251,1.6259,1.619,1.6116,1.6155,1.6202,1.6287,1.638,1.6612,1.6834,1.6686,1.6559,1.6735,1.6912,1.7087,1.7232,1.7344,1.7385,1.7344,1.7465,1.7687,1.8806,1.8791,1.8812,1.8806,1.8812,1.8812,1.8791,1.8806,1.8806,1.8806,1.8806,1.8806,1.8806,1.8806,1.8819,1.8812,1.8832,1.8926,1.904,1.9183,1.9303,1.9468,1.9667,1.981,1.9937,2.0058,2.0178,2.0259,2.03,2.0311,2.0365,2.0419,2.0449,2.0413,2.0293,2.0218,2.0207,2.0076,2.0035,1.9915,1.9707,1.9529,1.9373,1.9203,1.9081,1.8993,1.8953,1.8811,1.8702,1.8524,1.8361,1.8205,1.805,1.7771,1.7622,1.7473,1.7297,1.7019,1.6824,1.6843,1.6863,1.683,1.685,1.6823,1.6735,1.6688,1.6715,1.691,1.6917,1.6896,1.6883,1.691,1.693,1.6937,1.6982,1.7156,1.7204,1.7104,1.6993,1.7093,1.7093,1.6856,1.6674,1.6585,1.6497,1.6453,1.6447,1.6596,1.664,1.6435,1.6316,1.6422,1.6441,1.6456,1.6341,1.6361,1.6305,1.6186,1.6215,1.6313,1.6502,1.6661,1.6825,1.6959,1.6833,1.6835,1.7001,1.7194,1.7394,1.7532,1.7636,1.7548,1.7418,1.7599,1.7814,1.9042,1.9028,1.9042,1.898,1.8927,1.8906,1.8873,1.8819,1.8806,1.8806,1.8806,1.8806,1.8806,1.8826,1.8873,1.892,1.8954,1.9055,1.9175,1.929,1.9405,1.9547,1.9761,1.987,1.9976,2.0178,2.0286,2.0338,2.0415,2.0526,2.0594,2.0508,2.0598,2.0594,2.0406,2.0338,2.0286,2.0205,2.0139,2.0005,1.9836,1.9698,1.9554,1.933,1.9249,1.9149,1.9021,1.8953,1.8845,1.8667,1.8504,1.8347,1.8199,1.8002,1.7812,1.7595,1.7507,1.7311,1.7135,1.7121,1.708,1.7081,1.7107,1.7026,1.6937,1.6938,1.6898,1.6816,1.6944,1.7004,1.7012,1.7,1.6994,1.7034,1.7134,1.7256,1.7364,1.7304,1.727,1.7405,1.7507,1.7255,1.7052,1.7026,1.6919,1.678,1.6767,1.6825,1.6869,1.6793,1.6736,1.6765,1.6746,1.6706,1.6553,1.6457,1.6458,1.6384,1.6378,1.6516,1.6804,1.6989,1.7123,1.7146,1.7042,1.7116,1.7278,1.7548,1.7833,1.7882,1.7908,1.7811,1.7713,1.773,1.7987,1.9318,1.9312,1.9252,1.9142,1.9062,1.9055,1.8973,1.8874,1.8852,1.8825,1.8811,1.884,1.8852,1.8886,1.8987,1.9062,1.9069,1.9181,1.9297,1.9391,1.9513,1.9671,1.9856,1.9958,2.0103,2.0304,2.0352,2.0406,2.0523,2.0598,2.0591,2.0514,2.0621,2.0627,2.0508,2.0404,2.0359,2.0345,2.0225,2.0119,2.0003,1.9917,1.9746,1.9574,1.9424,1.9297,1.9088,1.9007,1.8926,1.8784,1.8585,1.8435,1.8341,1.8199,1.8016,1.7826,1.7738,1.7663,1.7494,1.7392,1.7331,1.7331,1.7338,1.7209,1.7154,1.7202,1.7202,1.6959,1.7046,1.712,1.7101,1.7102,1.7123,1.7196,1.7297,1.7405,1.7494,1.7473,1.75,1.7623,1.7704,1.7691,1.7541,1.7534,1.7399,1.7163,1.7096,1.7083,1.7055,1.7044,1.6975,1.6949,1.6927,1.6902,1.6852,1.6714,1.6661,1.6624,1.6616,1.6829,1.7167,1.7308,1.7417,1.7378,1.7304,1.7426,1.7616,1.795,1.8247,1.8211,1.8167,1.8129,1.8069,1.8065,1.8153,1.9661,1.9625,1.9325,1.921,1.9183,1.9183,1.9108,1.9009,1.8987,1.8934,1.8844,1.8919,1.8987,1.9013,1.91,1.9189,1.9181,1.9316,1.9425,1.9534,1.9707,1.9856,1.9999,2.0123,2.0257,2.0325,2.0406,2.0474,2.0508,2.0535,2.0535,2.0521,2.0564,2.0528,2.0501,2.0474,2.046,2.044,2.0354,2.0286,2.0178,2.0042,1.989,1.9795,1.9561,1.9322,1.9181,1.9074,1.8954,1.8819,1.864,1.851,1.8456,1.8354,1.8171,1.8077,1.8016,1.7941,1.7833,1.7582,1.7419,1.7406,1.7412,1.7406,1.7351,1.7351,1.7345,1.727,1.7277,1.7311,1.7311,1.7338,1.7358,1.7372,1.7507,1.7738,1.7772,1.769,1.7731,1.784,1.7902,1.7936,1.7909,1.7853,1.7704,1.7466,1.7392,1.7385,1.7257,1.7209,1.7108,1.7047,1.7032,1.7065,1.714,1.708,1.7013,1.6981,1.6963,1.7264,1.7634,1.7716,1.7657,1.7738,1.7704,1.7826,1.7949,1.8218,1.8412,1.8437,1.8427,1.8373,1.84,1.8413,1.8494,1.971,1.9696,1.9559,1.9434,1.9324,1.9324,1.9242,1.9135,1.9122,1.9109,1.9041,1.9109,1.9122,1.9162,1.9256,1.9316,1.9349,1.9603,1.9664,1.9759,1.9917,2.0066,2.0157,2.0239,2.0354,2.0413,2.0487,2.0508,2.0508,2.0508,2.0508,2.0508,2.0521,2.0508,2.0508,2.0508,2.0508,2.0501,2.0447,2.0399,2.0284,2.0203,2.0064,1.987,1.9822,1.9515,1.9242,1.9147,1.9001,1.886,1.8737,1.8626,1.853,1.8455,1.8368,1.8253,1.8219,1.8171,1.8091,1.7785,1.7548,1.7555,1.7616,1.7643,1.7534,1.7521,1.746,1.7419,1.7419,1.7467,1.7412,1.7548,1.7663,1.7614,1.773,1.8011,1.808,1.7976,1.794,1.8036,1.816,1.825,1.8201,1.8145,1.7962,1.7779,1.7725,1.7643,1.7514,1.7432,1.7358,1.7291,1.7269,1.7242,1.7311,1.7344,1.7345,1.7325,1.7297,1.7548,1.7834,1.7861,1.7845,1.7963,1.8066,1.8097,1.8206,1.8444,1.8568,1.8601,1.8625,1.8642,1.8676,1.8713,1.8753,1.971,1.971,1.971,1.9634,1.9493,1.9486,1.9413,1.9276,1.9256,1.9237,1.9195,1.9222,1.9271,1.9297,1.9427,1.952,1.9603,1.9774,1.9875,1.9976,2.0092,2.0212,2.0293,2.0352,2.0419,2.0494,2.0508,2.0508,2.0508,2.0508,2.0548,2.0591,2.0575,2.0584,2.0508,2.0508,2.0508,2.0508,2.0494,2.0458,2.0372,2.0298,2.023,2.0017,1.9937,1.9735,1.9428,1.9257,1.9089,1.8934,1.8811,1.8716,1.864,1.8571,1.8504,1.8422,1.8347,1.834,1.8226,1.8049,1.7798,1.7812,1.786,1.7833,1.7731,1.769,1.7663,1.767,1.765,1.7616,1.7643,1.788,1.7968,1.7911,1.8035,1.8249,1.8319,1.8284,1.8234,1.8225,1.8322,1.8344,1.8323,1.8232,1.8103,1.7927,1.7825,1.7799,1.7772,1.7718,1.7683,1.7615,1.7567,1.752,1.748,1.7494,1.7521,1.7636,1.7615,1.7662,1.7839,1.791,1.8124,1.8355,1.8403,1.8353,1.8414,1.8578,1.8682,1.8772,1.8768,1.8737,1.8744,1.8759,1.8773,1.971,1.971,1.971,1.9703,1.9674,1.9703,1.9578,1.9419,1.9412,1.9359,1.9263,1.9343,1.9397,1.9446,1.9584,1.9708,1.9824,1.9898,1.9978,2.0096,2.0232,2.0298,2.0352,2.0419,2.0474,2.0501,2.0508,2.0508,2.0508,2.0508,2.0591,2.0716,2.0759,2.0702,2.0528,2.0508,2.0508,2.0508,2.0508,2.0494,2.046,2.0395,2.0298,2.0198,2.0031,1.9831,1.9606,1.9312,1.9122,1.898,1.886,1.8778,1.8757,1.875,1.8675,1.8523,1.8503,1.8456,1.8356,1.8308,1.8255,1.8105,1.8084,1.8037,1.7942,1.7908,1.7935,1.7955,1.8009,1.8083,1.8185,1.8266,1.8231,1.8223,1.832,1.8452,1.8523,1.8537,1.8472,1.8443,1.8368,1.8314,1.8306,1.8279,1.8183,1.8067,1.795,1.7912,1.7936,1.7902,1.7868,1.7923,1.7854,1.782,1.7765,1.7683,1.771,1.7826,1.7886,1.7878,1.7958,1.8079,1.8344,1.8668,1.8686,1.8566,1.8606,1.8669,1.8739,1.8803,1.8801,1.8778,1.8806,1.8806,1.8806,1.971,1.971,1.971,1.971,1.971,1.971,1.9639,1.9605,1.9613,1.9571,1.9537,1.96,1.9598,1.9618,1.9661,1.9776,1.9905,2.0026,2.0105,2.0239,2.0365,2.0419,2.0453,2.0474,2.0508,2.0508,2.0508,2.0508,2.0508,2.0508,2.0612,2.0759,2.0938,2.0847,2.0702,2.0614,2.0508,2.0508,2.0508,2.0508,2.0501,2.0453,2.0392,2.0304,2.0132,1.9937,1.9722,1.9406,1.9176,1.9013,1.8893,1.8826,1.8806,1.8806,1.8764,1.8695,1.8703,1.8898,1.908,1.9182,1.8884,1.8568,1.8304,1.8297,1.8179,1.8179,1.8206,1.8212,1.824,1.8273,1.828,1.8388,1.8379,1.8342,1.8445,1.8627,1.8719,1.8698,1.8661,1.8689,1.8648,1.86,1.8587,1.8518,1.8415,1.8304,1.8201,1.8042,1.8012,1.797,1.7942,1.8117,1.8146,1.8111,1.8063,1.7968,1.7947,1.8056,1.8047,1.7988,1.8096,1.8248,1.8472,1.8763,1.8787,1.8795,1.8759,1.8737,1.8764,1.8799,1.8805,1.8818,1.884,1.8826,1.8791,1.971,1.971,1.971,1.971,1.971,1.971,1.971,1.971,1.971,1.971,1.9703,1.9703,1.9703,1.9703,1.9723,1.9824,1.9965,2.0051,2.0225,2.0368,2.0453,2.0487,2.0501,2.0508,2.0508,2.0508,2.0508,2.0508,2.0508,2.0508,2.0686,2.0933,2.1132,2.1166,2.1007,2.0808,2.0584,2.0541,2.0508,2.0508,2.0508,2.0487,2.0444,2.0365,2.0232,2.0056,1.9813,1.9542,1.9264,1.9088,1.8953,1.8845,1.8833,1.8806,1.8806,1.8806,1.906,1.927,1.9538,1.9951,1.9641,1.9319,1.8914,1.8695,1.8562,1.8429,1.8363,1.8348,1.8375,1.843,1.8485,1.8579,1.8564,1.8526,1.8581,1.8778,1.8785,1.8757,1.8757,1.8792,1.8799,1.8806,1.8806,1.8778,1.8689,1.8585,1.8474,1.8301,1.8156,1.8171,1.8171,1.8306,1.842,1.8387,1.8331,1.8226,1.8232,1.8293,1.8235,1.8148,1.8265,1.8433,1.8637,1.8807,1.8796,1.8801,1.8807,1.8806,1.8878,1.8862,1.8809,1.883,1.888,1.8902,1.8895,1.971,1.971,1.971,1.971,1.971,1.9723,1.973,1.9723,1.9723,1.973,1.9722,1.9757,1.9778,1.9751,1.9744,1.9885,2.0064,2.0103,2.0273,2.0419,2.0494,2.0508,2.0508,2.0508,2.0508,2.0508,2.0508,2.0508,2.0514,2.0602,2.0828,2.117,2.1444,2.1428,2.1258,2.1032,2.0774,2.0663,2.0591,2.0584,2.0584,2.0498,2.0494,2.0426,2.0325,2.0191,1.999,1.9752,1.9496,1.9272,1.9053,1.894,1.8852,1.8798,1.8806,1.8951,1.9321,1.9596,1.9907,2.0334,2.074,2.0513,1.995,1.9577,1.9114,1.8729,1.8528,1.8504,1.8545,1.8641,1.8737,1.8744,1.8757,1.8749,1.8749,1.8799,1.8799,1.8799,1.8799,1.8806,1.8806,1.8806,1.8806,1.8799,1.8791,1.8744,1.8654,1.8629,1.8525,1.8557,1.8571,1.8593,1.8672,1.8659,1.8631,1.8751,1.89,1.9098,1.8534,1.8381,1.8499,1.8598,1.8711,1.8803,1.8807,1.8878,1.911,1.9117,1.9022,1.8999,1.9133,1.9139,1.927,1.9112,1.911,1.971,1.971,1.971,1.971,1.9723,1.9797,1.9829,1.9853,1.9844,1.9892,1.9976,1.9976,1.9958,1.9969,1.9976,2.0092,2.0178,2.025,2.0352,2.0447,2.0508,2.0508,2.0508,2.0508,2.0508,2.0514,2.0514,2.0535,2.0582,2.0684,2.1002,2.1334,2.1641,2.1597,2.1472,2.128,2.107,2.0889,2.08,2.0702,2.0645,2.0575,2.0541,2.0474,2.0386,2.0268,2.0078,1.9856,1.9591,1.9379,1.9122,1.8973,1.8953,1.8859,1.8806,1.8864,1.935,1.9857,2.0363,2.104,2.1552,2.1627,2.1073,2.0255,1.9669,1.9072,1.8704,1.8716,1.8743,1.8825,1.8859,1.8859,1.8837,1.8793,1.8808,1.8822,1.8843,1.8873,1.8873,1.8873,1.8866,1.8852,1.8845,1.8804,1.8796,1.8805,1.8793,1.8803,1.8791,1.8794,1.8795,1.8803,1.9139,1.9204,1.944,1.9583,1.9742,1.9785,1.9274,1.8864,1.8921,1.8984,1.8866,1.9023,1.9384,1.9544,1.9646,1.9624,1.9607,1.9665,1.9765,1.9691,1.9661,1.9841,1.9948,1.971,1.971,1.971,1.9722,1.9783,1.9865,1.9944,2.0039,2.0005,2.0039,2.0107,2.0107,2.0114,2.01,2.0092,2.0151,2.0277,2.0307,2.0381,2.0474,2.0508,2.0508,2.0508,2.0508,2.0508,2.0521,2.0584,2.0655,2.072,2.1062,2.1401,2.153,2.1784,2.1808,2.1723,2.1628,2.1472,2.1252,2.1074,2.0904,2.0772,2.0666,2.0589,2.0501,2.0422,2.0293,2.0119,1.9903,1.9734,1.9473,1.921,1.9135,1.9101,1.9001,1.9209,1.9384,1.9984,2.0621,2.1206,2.1881,2.225,2.2179,2.1654,2.0761,1.999,1.9334,1.9092,1.8973,1.8981,1.8981,1.896,1.8938,1.8865,1.8799,1.8828,1.8857,1.8901,1.896,1.8981,1.8967,1.8953,1.8947,1.8912,1.8849,1.8802,1.8797,1.8806,1.88,1.8794,1.8802,1.8803,1.8796,1.9387,1.985,2.0197,2.0732,2.1048,2.0981,2.0217,1.9857,1.9648,2.0066,2.061,2.0473,2.0241,2.0379,2.0503,2.0372,2.0342,2.0452,2.0658,2.082,2.113,2.1628,2.1704,1.971,1.971,1.971,1.9769,1.9892,1.9919,2.0058,2.0286,2.0178,2.0146,2.0153,2.013,2.0166,2.0184,2.0191,2.0245,2.0318,2.0352,2.0399,2.0508,2.0508,2.0508,2.0508,2.0508,2.0551,2.0598,2.0682,2.0786,2.0969,2.1234,2.1506,2.1726,2.2011,2.2076,2.1981,2.1869,2.1723,2.1539,2.1254,2.1007,2.0884,2.0786,2.0702,2.0535,2.046,2.037,2.0184,2.0022,1.9893,1.9602,1.9391,1.9324,1.9223,1.9347,1.9651,2.014,2.0687,2.1277,2.1859,2.2489,2.2543,2.2256,2.1568,2.1079,2.0515,1.9549,1.919,1.9116,1.9096,1.9096,1.9081,1.9053,1.9008,1.8906,1.887,1.9333,1.9862,1.973,1.945,1.9376,1.9169,1.9127,1.9012,1.8941,1.881,1.8798,1.8793,1.8807,1.881,1.8824,1.8804,1.8847,1.9639,2.0501,2.1709,2.2198,2.2577,2.2307,2.1735,2.1331,2.1491,2.1996,2.2594,2.1991,2.1295,2.1356,2.1409,2.1232,2.1196,2.1448,2.1687,2.2025,2.2499,2.3068,2.3438,1.971,1.971,1.971,1.9776,1.9912,1.9997,2.0137,2.0304,2.0379,2.0408,2.0399,2.0408,2.0392,2.0365,2.0381,2.0406,2.0426,2.0433,2.0474,2.0501,2.0508,2.0508,2.0508,2.0514,2.0616,2.0695,2.08,2.11,2.1338,2.1477,2.158,2.1852,2.2042,2.2021,2.2109,2.1994,2.1825,2.1702,2.1469,2.1161,2.0973,2.0833,2.0718,2.0578,2.0471,2.0404,2.0243,2.013,1.9997,1.9802,1.9505,1.9351,1.9225,1.9692,2.0011,2.0375,2.1331,2.1904,2.2403,2.2942,2.3138,2.297,2.2486,2.1902,2.1106,1.9909,1.9268,1.9253,1.9217,1.9223,1.9253,1.9225,1.9248,1.9145,1.9036,1.9894,2.0753,2.0471,2.007,1.9773,1.9499,1.9345,1.9243,1.9038,1.8855,1.8798,1.8806,1.8809,1.8847,1.8865,1.8804,1.9003,1.9979,2.1,2.2577,2.3906,2.4388,2.4754,2.4494,2.3977,2.3427,2.3545,2.3748,2.2929,2.2349,2.23,2.216,2.1959,2.2012,2.2292,2.2489,2.271,2.3571,2.426,2.4754,1.971,1.971,1.971,1.9817,1.9985,2.0064,2.022,2.0401,2.048,2.0698,2.0889,2.0682,2.0523,2.0523,2.0508,2.0539,2.0539,2.0508,2.0501,2.0501,2.0508,2.0508,2.0508,2.0569,2.0928,2.1096,2.1735,2.209,2.2094,2.2008,2.2133,2.2223,2.2143,2.2004,2.212,2.2004,2.1859,2.1784,2.1588,2.1364,2.1093,2.0946,2.0813,2.0673,2.0535,2.0431,2.0331,2.0218,2.0132,2.0158,2.0096,2.0211,2.0318,2.0751,2.12,2.1623,2.2198,2.2673,2.3057,2.3463,2.3837,2.3661,2.3402,2.2829,2.1786,2.0672,1.9872,1.9783,1.9528,1.9491,1.9748,1.9794,2.0148,2.0223,1.9956,2.0218,2.1107,2.1504,2.1122,2.0806,2.0507,2.0209,2.001,1.962,1.9392,1.9075,1.9042,1.9158,1.9143,1.9,1.891,1.9326,2.0401,2.2277,2.437,2.5589,2.6382,2.6724,2.7156,2.6444,2.576,2.519,2.4753,2.4188,2.3593,2.3045,2.2896,2.2772,2.2781,2.2998,2.3165,2.3339,2.4259,2.4947,2.5141,1.971,1.971,1.9715,1.9878,2.0069,2.0126,2.0273,2.049,2.0619,2.1016,2.146,2.1047,2.0777,2.0762,2.065,2.0635,2.0603,2.0555,2.0539,2.0508,2.0508,2.0508,2.0585,2.07,2.1315,2.2036,2.27,2.3073,2.3276,2.2988,2.2737,2.2768,2.2468,2.2093,2.213,2.2032,2.1831,2.1784,2.1655,2.1482,2.1279,2.1075,2.0929,2.0763,2.0596,2.0437,2.035,2.0284,2.0232,2.0393,2.0623,2.0922,2.1302,2.1713,2.2228,2.2681,2.2981,2.3526,2.405,2.4433,2.453,2.4434,2.4191,2.3618,2.2643,2.174,2.0956,2.0295,2.0022,1.9939,2.0184,2.0505,2.0891,2.179,2.1481,2.127,2.2137,2.2599,2.2092,2.1744,2.1397,2.1081,2.091,2.0493,2.0115,1.9742,1.9461,1.9609,1.963,1.9372,1.9197,2.0009,2.1126,2.3273,2.5946,2.7272,2.8192,2.9284,2.9608,2.8811,2.8133,2.778,2.7026,2.5767,2.5152,2.4368,2.3889,2.3729,2.3746,2.3684,2.3482,2.3506,2.3821,2.447,2.4895,1.971,1.9717,1.981,1.9951,2.009,2.0196,2.0352,2.0582,2.1143,2.1492,2.1809,2.2157,2.2205,2.2189,2.1587,2.1381,2.1285,2.092,2.0571,2.0508,2.0566,2.0537,2.0855,2.1523,2.2151,2.2864,2.344,2.3558,2.3939,2.367,2.3212,2.2887,2.2763,2.2394,2.2004,2.1916,2.1868,2.1833,2.1658,2.1452,2.1334,2.1147,2.0949,2.0777,2.0605,2.0514,2.0431,2.0352,2.0313,2.0449,2.0889,2.1422,2.2013,2.2571,2.3029,2.3378,2.3696,2.423,2.4747,2.5258,2.5393,2.5836,2.5588,2.5156,2.4151,2.313,2.2202,2.1084,2.0784,2.0529,2.0701,2.1063,2.1563,2.3693,2.4401,2.446,2.4921,2.3835,2.2728,2.238,2.2032,2.2122,2.2394,2.2008,2.1639,2.1016,1.9904,1.9964,1.973,1.9582,1.9465,2.0611,2.175,2.4762,2.7601,2.8933,3.0,3.1287,3.2089,3.1423,3.0891,3.0579,2.9649,2.8114,2.6639,2.56,2.5202,2.4862,2.4376,2.4206,2.3711,2.3573,2.3898,2.4152,2.4742]}]]